[[[{"header":{"parameterUnit":"kt","parameterCategory":2,"dx":1,"dy":1,"la1":29.587661999999998,"la2":31.0,"lo1":-88.76705300000003,"lo2":-86.6583820000003,"nx":115,"ny":88,"refTime":"2022-10-04T00:00:00:Z","depth":0,"parameterNumber":1,"parameterNumberName":"U-component_of_WINDS"},"data":[-5.2864,-5.2582,-5.1485,-5.1955,-5.3346,-5.4332,-5.4564,-5.4801,-5.6525,-5.6371,-5.4672,-5.4181,-5.4348,-5.4896,-5.524,-5.5651,-5.6827,-5.7288,-5.7303,-5.678,-5.4907,-5.5704,-5.5772,-5.3801,-5.2397,-5.2194,-5.2264,-5.1922,-5.2756,-5.2289,-5.1502,-5.1269,-5.2695,-5.2822,-5.2583,-5.2238,-5.1554,-5.0287,-4.7952,-4.5313,-4.4265,-4.1819,-3.9623,-3.8275,-3.6533,-3.6441,-3.5468,-3.3068,-3.0869,-2.7938,-2.3784,-1.9189,-1.6588,-1.5138,-1.4746,-1.3481,-1.2691,-1.2616,-1.2291,-1.2638,-1.1378,-1.0498,-0.9046,-0.759,-0.7132,-0.6097,-0.6972,-0.8666,-0.883,-0.8541,-0.8398,-0.8312,-0.8219,-0.8166,-0.7976,-0.7687,-0.7037,-0.6976,-0.6307,-0.5889,-0.5813,-0.4669,-0.3194,-0.2829,-0.2648,-0.3341,-0.2472,-0.2466,-0.2202,-0.2029,-0.187,-0.1295,-0.0827,-0.1654,-0.2383,-0.1638,-0.0466,-0.0353,-0.0118,-0.0119,-0.0119,-0.012,0.012,0.0483,-0.0,-0.0498,-0.0252,-0.0125,-0.0253,-0.0251,-0.0256,-0.0129,0.0256,0.1132,0.162,-5.5477,-5.6637,-5.536,-5.4948,-5.5359,-5.7329,-5.8018,-5.7185,-5.3241,-5.2712,-5.4837,-5.4804,-5.5639,-5.6819,-5.7956,-5.7628,-5.7543,-5.7811,-5.7502,-5.683,-5.5656,-5.4882,-5.4169,-5.3353,-5.212,-5.1757,-5.2611,-5.2928,-5.272,-5.3024,-5.2751,-5.258,-5.249,-5.2287,-5.1398,-5.1129,-5.1026,-4.9728,-4.7574,-4.5319,-4.2607,-3.9762,-3.8882,-3.829,-3.7685,-3.7895,-3.685,-3.4929,-3.2519,-2.9843,-2.7279,-2.2407,-1.9332,-1.8501,-1.7897,-1.6929,-1.6134,-1.5532,-1.487,-1.5056,-1.3541,-1.2065,-1.0649,-0.9816,-0.9949,-0.9686,-1.0055,-1.0687,-1.0886,-1.0771,-1.0763,-1.0648,-1.0655,-1.0569,-1.0352,-1.0197,-0.935,-0.8557,-0.7195,-0.5643,-0.5386,-0.5075,-0.4199,-0.3633,-0.4325,-0.5887,-0.634,-0.6458,-0.6258,-0.5448,-0.462,-0.4026,-0.3661,-0.4614,-0.5719,-0.4738,-0.3069,-0.2843,-0.2823,-0.2867,-0.2784,-0.2327,-0.1846,-0.1841,-0.1942,-0.2072,-0.1973,-0.226,-0.173,-0.1459,-0.1483,-0.1496,-0.1113,-0.1362,-0.1116,-5.6515,-5.6484,-5.6198,-5.5957,-5.5888,-5.6394,-5.5582,-5.3653,-5.1007,-5.0902,-5.2567,-5.4076,-5.4928,-5.568,-5.7232,-5.7515,-5.8257,-5.7972,-5.7216,-5.6219,-5.49,-5.3491,-5.251,-5.2055,-5.1691,-5.2683,-5.3462,-5.2638,-5.1643,-5.2339,-5.2593,-5.1509,-5.1369,-5.1194,-5.0702,-4.9818,-4.9343,-4.8826,-4.601,-4.3551,-4.1111,-4.0258,-3.9561,-3.7714,-3.753,-3.7922,-3.724,-3.6141,-3.4669,-3.3299,-3.1357,-2.6532,-2.2972,-2.2049,-2.1277,-2.0012,-1.9175,-1.881,-1.7278,-1.6299,-1.5328,-1.3989,-1.2593,-1.1877,-1.1991,-1.3142,-1.3364,-1.2994,-1.313,-1.2615,-1.2615,-1.1948,-1.1835,-1.1626,-1.1415,-1.1268,-1.0673,-0.9951,-0.8992,-0.7692,-0.7362,-0.7077,-0.6573,-0.6066,-0.6695,-0.8232,-0.8726,-0.8721,-0.8519,-0.8145,-0.6885,-0.6129,-0.5845,-0.6558,-0.7091,-0.6249,-0.5125,-0.5295,-0.5356,-0.4992,-0.4385,-0.3978,-0.4173,-0.4557,-0.4776,-0.4304,-0.4394,-0.4983,-0.4567,-0.3259,-0.2893,-0.2782,-0.3252,-0.3618,-0.424,-5.6747,-5.6558,-5.7052,-5.7133,-5.6874,-5.6294,-5.4691,-5.2212,-5.0669,-5.0228,-5.1081,-5.3253,-5.4874,-5.5885,-5.6848,-5.7237,-5.7758,-5.7007,-5.6388,-5.5615,-5.4726,-5.3315,-5.1709,-5.2462,-5.3623,-5.4474,-5.3462,-5.1413,-5.1081,-5.0849,-5.0651,-5.0106,-5.0278,-4.9916,-4.9197,-4.8407,-4.7904,-4.7877,-4.5564,-4.3338,-4.126,-4.0805,-4.0146,-3.8243,-3.7373,-3.7895,-3.7703,-3.6846,-3.6291,-3.587,-3.4576,-3.1477,-2.7062,-2.5631,-2.3953,-2.2285,-2.1695,-2.0233,-1.8741,-1.766,-1.6792,-1.5685,-1.464,-1.4129,-1.4438,-1.5825,-1.6335,-1.5767,-1.5298,-1.4555,-1.3926,-1.3187,-1.2551,-1.2146,-1.1847,-1.1785,-1.1605,-1.1284,-1.0937,-1.0511,-1.0248,-0.9737,-0.9305,-0.9268,-0.9597,-0.9754,-0.9801,-0.9769,-0.9124,-0.9496,-0.8193,-0.821,-0.7921,-0.7569,-0.7536,-0.7043,-0.6526,-0.6542,-0.6585,-0.6176,-0.574,-0.5569,-0.5504,-0.6596,-0.7058,-0.6332,-0.6109,-0.6821,-0.6417,-0.5207,-0.4577,-0.4749,-0.5221,-0.5988,-0.7213,-5.6394,-5.8893,-5.919,-5.9126,-5.9659,-5.9237,-5.8823,-5.8595,-5.2309,-5.0917,-5.2544,-5.399,-5.5981,-5.6845,-5.6772,-5.6681,-5.6214,-5.5689,-5.5137,-5.5699,-5.4463,-5.4633,-5.3732,-5.3367,-5.3626,-5.4117,-5.3357,-5.1116,-5.1033,-5.1058,-5.0499,-4.8995,-4.9257,-4.8778,-4.7669,-4.6885,-4.6568,-4.6558,-4.5192,-4.3524,-4.193,-4.1051,-4.0483,-3.8173,-3.7774,-3.7938,-3.7924,-3.7257,-3.6032,-3.5229,-3.4078,-3.2584,-3.025,-2.8846,-2.4999,-2.3209,-2.2883,-2.1603,-2.0258,-1.9944,-1.8805,-1.7452,-1.5969,-1.6061,-1.6418,-1.745,-1.7567,-1.7218,-1.6643,-1.592,-1.5064,-1.4215,-1.3292,-1.274,-1.2243,-1.1912,-1.1817,-1.1632,-1.1262,-1.0878,-1.0547,-1.0081,-0.9658,-0.9691,-0.9863,-0.8395,-0.8135,-0.8217,-0.8563,-0.9982,-0.987,-1.0177,-0.9619,-0.8992,-0.8851,-0.8438,-0.7896,-0.7595,-0.7364,-0.7084,-0.7019,-0.6976,-0.6962,-0.7315,-0.7838,-0.7521,-0.7319,-0.7198,-0.6946,-0.6271,-0.618,-0.65,-0.7224,-0.8151,-0.8874,-5.826,-5.918,-5.8466,-5.8131,-5.8151,-5.7359,-5.5695,-5.3706,-5.1218,-5.0845,-5.2685,-5.5784,-5.683,-5.6575,-5.6383,-5.5817,-5.4888,-5.411,-5.3812,-5.4038,-5.3538,-5.4859,-5.5175,-5.4195,-5.3164,-5.232,-5.156,-5.077,-5.1991,-5.1928,-5.0821,-4.9031,-4.8492,-4.7661,-4.6533,-4.5714,-4.5508,-4.5265,-4.4638,-4.307,-4.1424,-3.9848,-3.8745,-3.7251,-3.718,-3.7534,-3.7938,-3.8021,-3.7624,-3.7172,-3.6899,-3.499,-3.2307,-3.1378,-2.8226,-2.5324,-2.4841,-2.3733,-2.2507,-2.2713,-2.1894,-2.0634,-1.9389,-1.8791,-1.8896,-1.891,-1.8735,-1.8506,-1.7907,-1.715,-1.6284,-1.531,-1.4341,-1.3393,-1.2798,-1.2197,-1.2074,-1.2047,-1.1564,-1.1082,-1.0603,-1.0186,-0.9963,-0.9893,-0.9592,-0.9204,-0.9096,-0.9103,-0.9836,-1.0725,-1.1085,-1.1296,-1.0777,-1.0325,-1.0171,-0.9796,-0.9509,-0.9212,-0.8771,-0.8371,-0.8237,-0.8286,-0.8339,-0.8523,-0.8519,-0.8474,-0.8322,-0.8117,-0.7963,-0.7521,-0.7174,-0.8142,-0.9085,-0.9895,-0.9782,-5.9149,-5.9414,-5.8425,-5.7976,-5.7699,-5.5907,-5.3597,-5.1247,-5.022,-5.144,-5.3688,-5.7447,-5.7842,-5.5618,-5.5516,-5.5111,-5.3978,-5.28,-5.2649,-5.2921,-5.3477,-5.4585,-5.4481,-5.32,-5.1127,-4.9962,-4.9541,-4.9636,-5.0877,-5.1229,-4.9952,-4.8422,-4.6975,-4.6048,-4.5118,-4.4528,-4.4653,-4.4698,-4.4521,-4.3434,-4.1984,-4.0484,-3.9129,-3.7963,-3.7679,-3.7592,-3.791,-3.8169,-3.8314,-3.8139,-3.7893,-3.7057,-3.397,-3.2961,-3.1694,-2.8449,-2.7107,-2.6547,-2.5508,-2.596,-2.5132,-2.2724,-2.0963,-2.0631,-2.0831,-2.052,-2.0154,-1.9746,-1.9232,-1.8307,-1.7409,-1.6654,-1.5838,-1.5143,-1.4417,-1.4005,-1.3891,-1.359,-1.2941,-1.2417,-1.1615,-1.1189,-1.0996,-1.0863,-1.0625,-1.0973,-1.1196,-1.1172,-1.1477,-1.1643,-1.185,-1.1958,-1.1656,-1.1651,-1.15,-1.0893,-1.0927,-1.0816,-1.0274,-0.9863,-0.9587,-0.9459,-0.974,-0.9703,-0.9611,-0.9416,-0.9242,-0.926,-0.9272,-0.8773,-0.8591,-0.9899,-1.0766,-1.0893,-1.095,-5.8322,-5.9636,-5.9905,-5.9796,-5.9301,-5.6529,-5.4959,-5.4098,-5.1463,-5.2715,-5.6492,-5.8125,-5.8473,-5.7885,-5.5148,-5.4396,-5.4513,-5.2994,-5.3263,-5.3718,-5.3334,-5.4299,-5.3752,-5.1509,-4.9358,-4.7502,-4.7475,-4.898,-4.7926,-4.9468,-4.8561,-4.6386,-4.556,-4.444,-4.3828,-4.3501,-4.3992,-4.4217,-4.4018,-4.3147,-4.1901,-4.1149,-3.9457,-3.8572,-3.7987,-3.7719,-3.7899,-3.8193,-3.8438,-3.8042,-3.7236,-3.6485,-3.5539,-3.4218,-3.2906,-3.0992,-2.8321,-2.7103,-2.6236,-2.8154,-2.7015,-2.3872,-2.1807,-2.1565,-2.156,-2.0918,-2.0525,-2.0264,-2.007,-1.9323,-1.8466,-1.7778,-1.7092,-1.6466,-1.5837,-1.5371,-1.5307,-1.4762,-1.3962,-1.3382,-1.2554,-1.2083,-1.169,-1.158,-1.1204,-1.1538,-1.1708,-1.1957,-1.2619,-1.2785,-1.2461,-1.2574,-1.2725,-1.2811,-1.2523,-1.1953,-1.1732,-1.1589,-1.1196,-1.0932,-1.0674,-1.0539,-1.0539,-1.0539,-1.0545,-1.0449,-1.0184,-1.0074,-1.0249,-1.039,-1.0195,-1.1088,-1.1361,-1.1596,-1.1748,-5.8807,-5.8314,-5.8353,-5.7691,-5.6681,-5.7406,-5.7718,-5.7515,-5.6567,-5.6078,-5.6922,-5.8333,-5.8411,-5.6569,-5.4489,-5.3671,-5.3465,-5.2718,-5.3152,-5.403,-5.3057,-5.2838,-5.238,-5.0492,-4.8432,-4.8434,-4.883,-4.9579,-4.9931,-5.0533,-4.9438,-4.7343,-4.5464,-4.4128,-4.3576,-4.3566,-4.4096,-4.3699,-4.3313,-4.2464,-4.1111,-3.9435,-3.8099,-3.7821,-3.7598,-3.7562,-3.7719,-3.8084,-3.8485,-3.8412,-3.7845,-3.7205,-3.6113,-3.4888,-3.3617,-3.1781,-2.9682,-2.8632,-2.8155,-2.9702,-2.8115,-2.5153,-2.4153,-2.2801,-2.1325,-2.1066,-2.0616,-2.0483,-2.0331,-2.0052,-1.9585,-1.8006,-1.7347,-1.6946,-1.6243,-1.5252,-1.4911,-1.4406,-1.3774,-1.3361,-1.2692,-1.2276,-1.1886,-1.1742,-1.186,-1.2052,-1.2225,-1.3162,-1.3907,-1.3497,-1.3139,-1.3326,-1.3621,-1.3314,-1.2862,-1.26,-1.2375,-1.2239,-1.2103,-1.1959,-1.171,-1.1224,-1.1324,-1.131,-1.1118,-1.0992,-1.0879,-1.0838,-1.0821,-1.1102,-1.1267,-1.1616,-1.1896,-1.1941,-1.2025,-5.8949,-5.7453,-5.7972,-5.71,-5.5818,-5.8054,-5.9188,-5.9308,-5.9051,-5.7803,-5.6532,-5.8258,-5.7874,-5.5802,-5.4069,-5.3604,-5.3879,-5.3769,-5.3793,-5.4625,-5.2531,-5.1499,-5.0592,-4.9728,-4.8762,-4.9077,-4.9769,-5.0633,-5.1484,-5.1552,-5.0604,-4.8653,-4.6043,-4.444,-4.3874,-4.4008,-4.4424,-4.377,-4.2849,-4.1789,-4.0986,-3.9221,-3.8138,-3.8289,-3.7622,-3.7499,-3.7699,-3.8215,-3.8511,-3.846,-3.8436,-3.7869,-3.7113,-3.6699,-3.5306,-3.3405,-3.1891,-3.0802,-3.02,-2.9428,-2.8432,-2.71,-2.563,-2.3682,-2.1972,-2.1384,-2.077,-2.0576,-2.0376,-2.0445,-2.0353,-1.9005,-1.8451,-1.7911,-1.7438,-1.6439,-1.5557,-1.4913,-1.4255,-1.3981,-1.2692,-1.2202,-1.2115,-1.202,-1.2633,-1.2987,-1.2868,-1.36,-1.426,-1.3893,-1.3685,-1.4053,-1.413,-1.3665,-1.3214,-1.3086,-1.2888,-1.2736,-1.272,-1.2616,-1.2398,-1.1906,-1.1713,-1.141,-1.1557,-1.1547,-1.1289,-1.1069,-1.1293,-1.1511,-1.1689,-1.1972,-1.2227,-1.2377,-1.237,-5.8583,-5.7403,-5.8693,-5.8256,-5.6849,-5.8313,-5.8739,-5.8439,-5.8893,-5.7417,-5.5334,-5.6784,-5.7081,-5.5913,-5.4068,-5.4459,-5.5536,-5.4712,-5.4642,-5.4693,-5.2527,-5.1102,-5.0032,-4.9239,-4.8786,-4.9051,-5.0019,-5.0705,-5.0705,-5.119,-4.9691,-4.7553,-4.6428,-4.5167,-4.2952,-4.343,-4.4023,-4.4502,-4.4238,-4.377,-4.286,-4.0656,-3.9595,-3.9081,-3.8063,-3.7408,-3.7633,-3.8091,-3.8415,-3.8511,-3.8485,-3.8412,-3.8066,-3.8017,-3.7181,-3.5739,-3.4586,-3.3138,-3.1203,-2.9092,-2.8342,-2.7919,-2.5879,-2.4607,-2.3649,-2.3018,-2.2392,-2.1108,-2.0792,-2.0677,-2.0337,-2.0168,-1.9965,-1.9688,-1.945,-1.8763,-1.7924,-1.7205,-1.6304,-1.567,-1.3782,-1.2248,-1.2364,-1.2668,-1.3516,-1.3658,-1.3536,-1.3805,-1.4261,-1.419,-1.4326,-1.4426,-1.4537,-1.4177,-1.3924,-1.363,-1.3392,-1.3358,-1.3111,-1.3065,-1.2727,-1.278,-1.2363,-1.1644,-1.1713,-1.1946,-1.1748,-1.1413,-1.1828,-1.2271,-1.2307,-1.2369,-1.2712,-1.2832,-1.2864,-5.7567,-5.7088,-5.7505,-5.7214,-5.6435,-5.5674,-5.538,-5.5817,-5.7915,-5.8137,-5.6766,-5.4227,-5.4377,-5.5877,-5.4857,-5.5014,-5.5521,-5.487,-5.4807,-5.3799,-5.2149,-5.0134,-4.9565,-4.9357,-4.9602,-5.0827,-5.1383,-5.122,-5.0956,-5.044,-4.8685,-4.72,-4.6368,-4.5519,-4.4381,-4.4657,-4.3484,-4.1318,-4.0569,-4.0476,-3.9294,-3.8262,-3.8004,-3.769,-3.7444,-3.7061,-3.7562,-3.7924,-3.8241,-3.8365,-3.8485,-3.8485,-3.8485,-3.8336,-3.7588,-3.6972,-3.6286,-3.5268,-3.2084,-2.9531,-2.814,-2.8289,-2.6312,-2.5132,-2.4542,-2.4415,-2.3494,-2.2117,-2.1863,-2.1559,-2.0452,-2.0138,-1.9962,-2.0052,-1.985,-1.9703,-1.9105,-1.8362,-1.7569,-1.687,-1.5579,-1.3907,-1.391,-1.3796,-1.4268,-1.4186,-1.4158,-1.4497,-1.4798,-1.4896,-1.4839,-1.4915,-1.501,-1.4874,-1.463,-1.4258,-1.4012,-1.3986,-1.4021,-1.3742,-1.3468,-1.3858,-1.3718,-1.2715,-1.2286,-1.2483,-1.2395,-1.2327,-1.2605,-1.2886,-1.2969,-1.294,-1.3171,-1.3236,-1.3239,-5.7556,-5.681,-5.6035,-5.5922,-5.6038,-5.4698,-5.4591,-5.5461,-5.6192,-5.6889,-5.7473,-5.4054,-5.3588,-5.5172,-5.4748,-5.4756,-5.4942,-5.3955,-5.3905,-5.3036,-5.1716,-5.0142,-5.0019,-5.0374,-5.0804,-5.1469,-5.0996,-5.0769,-5.0214,-4.9235,-4.7587,-4.5917,-4.4534,-4.4446,-4.4684,-4.4335,-4.3796,-4.197,-4.1794,-4.0986,-3.9109,-3.8451,-3.7674,-3.7145,-3.7099,-3.6907,-3.7512,-3.7803,-3.8137,-3.839,-3.846,-3.8485,-3.8485,-3.8485,-3.7693,-3.6455,-3.7583,-3.5601,-3.1903,-2.9286,-2.8802,-2.8795,-2.7791,-2.6124,-2.5367,-2.5613,-2.4695,-2.3361,-2.2347,-2.1701,-2.0683,-2.0038,-1.9737,-1.9722,-1.9652,-1.9581,-1.9163,-1.854,-1.7765,-1.7037,-1.6169,-1.5484,-1.5173,-1.496,-1.4736,-1.4666,-1.5012,-1.5224,-1.536,-1.5466,-1.5427,-1.5466,-1.5457,-1.5331,-1.4747,-1.463,-1.463,-1.4766,-1.5048,-1.4447,-1.4009,-1.4458,-1.4527,-1.3759,-1.3164,-1.299,-1.2966,-1.3079,-1.3125,-1.3125,-1.3306,-1.3604,-1.3632,-1.3734,-1.3711,-5.8106,-5.6695,-5.4859,-5.4783,-5.5648,-5.4918,-5.5576,-5.6262,-5.4124,-5.4854,-5.6529,-5.5078,-5.4199,-5.4578,-5.463,-5.4121,-5.3738,-5.3385,-5.3029,-5.2148,-5.0925,-5.0721,-5.1033,-5.0975,-5.0993,-5.1549,-5.053,-4.8879,-4.7619,-4.7956,-4.6183,-4.4449,-4.389,-4.3385,-4.3596,-4.3838,-4.3337,-4.4015,-4.3511,-4.2975,-4.1434,-4.0379,-3.9317,-3.8263,-3.7364,-3.6972,-3.7735,-3.7893,-3.8063,-3.8511,-3.8485,-3.8485,-3.8485,-3.8485,-3.7969,-3.6767,-3.7356,-3.535,-3.2237,-2.9885,-3.0057,-3.1037,-3.0435,-2.8048,-2.6725,-2.6719,-2.5429,-2.3479,-2.3122,-2.2185,-2.1112,-2.0452,-2.0253,-2.0199,-2.0236,-2.0165,-1.9967,-1.9175,-1.864,-1.74,-1.6745,-1.6494,-1.6184,-1.5702,-1.5602,-1.5824,-1.6061,-1.6105,-1.6252,-1.6406,-1.6344,-1.6279,-1.6218,-1.5535,-1.4949,-1.463,-1.463,-1.4766,-1.5038,-1.4705,-1.4349,-1.4624,-1.4916,-1.4271,-1.3733,-1.3582,-1.349,-1.3938,-1.4084,-1.3783,-1.3783,-1.419,-1.4454,-1.443,-1.4579,-5.6473,-5.7725,-5.6016,-5.5257,-5.5133,-5.4375,-5.4056,-5.4131,-5.4823,-5.5259,-5.5325,-5.5645,-5.5729,-5.5607,-5.4461,-5.4042,-5.4416,-5.1975,-5.1803,-5.1939,-5.1414,-5.0961,-5.1393,-5.1638,-5.1482,-5.1845,-4.9725,-4.8816,-4.7867,-4.676,-4.5465,-4.4743,-4.4139,-4.4698,-4.4579,-4.3434,-4.2558,-4.3511,-4.2315,-4.0526,-3.8774,-3.7774,-3.7348,-3.6879,-3.6698,-3.6855,-3.7384,-3.7693,-3.8109,-3.8415,-3.8436,-3.8485,-3.8485,-3.8485,-3.8017,-3.7455,-3.607,-3.4757,-3.344,-3.1148,-2.8924,-2.8822,-2.8444,-2.8466,-2.7712,-2.8108,-2.7323,-2.5411,-2.4445,-2.3096,-2.197,-2.0882,-2.063,-2.06,-2.0831,-2.1001,-2.104,-2.1005,-2.0543,-1.9415,-1.8592,-1.8103,-1.7596,-1.6912,-1.6772,-1.6986,-1.7102,-1.7119,-1.7282,-1.766,-1.764,-1.7628,-1.711,-1.6168,-1.5643,-1.5175,-1.4766,-1.463,-1.4766,-1.4722,-1.464,-1.474,-1.4995,-1.4781,-1.434,-1.4277,-1.4568,-1.5009,-1.5323,-1.5,-1.4932,-1.52,-1.5132,-1.5374,-1.5436,-5.4826,-5.5892,-5.4233,-5.3963,-5.4641,-5.4313,-5.4089,-5.4477,-5.5746,-5.5954,-5.5563,-5.6051,-5.5885,-5.4907,-5.3893,-5.3379,-5.2997,-5.1578,-5.1169,-5.1288,-5.0888,-5.0847,-5.1554,-5.1195,-5.0149,-4.9367,-4.8362,-4.8002,-4.7282,-4.5699,-4.4427,-4.4367,-4.4687,-4.5121,-4.4982,-4.2806,-4.2366,-4.2091,-4.1025,-3.9063,-3.7553,-3.7095,-3.6799,-3.6028,-3.6235,-3.6482,-3.6946,-3.7384,-3.7836,-3.8093,-3.8438,-3.846,-3.8485,-3.8485,-3.8042,-3.7552,-3.6018,-3.5853,-3.6004,-3.4098,-3.1342,-2.9456,-2.8101,-2.8089,-2.8225,-2.8315,-2.7858,-2.6738,-2.5282,-2.3847,-2.2468,-2.1479,-2.0988,-2.0986,-2.1434,-2.1634,-2.1851,-2.229,-2.2252,-2.1497,-2.0662,-2.0348,-1.9998,-1.9221,-1.885,-1.8575,-1.8002,-1.7705,-1.7733,-1.8419,-1.8877,-1.8748,-1.7928,-1.7035,-1.6596,-1.5928,-1.5545,-1.5152,-1.529,-1.5417,-1.5232,-1.493,-1.509,-1.4971,-1.5252,-1.5556,-1.5862,-1.627,-1.6728,-1.6502,-1.625,-1.5978,-1.5794,-1.5981,-1.5891,-5.3871,-5.3468,-5.2065,-5.2573,-5.4573,-5.4712,-5.5371,-5.6475,-5.6368,-5.6501,-5.7153,-5.6603,-5.5612,-5.454,-5.3603,-5.2529,-5.1812,-5.1204,-5.0903,-5.1032,-5.0747,-5.1118,-5.1587,-5.0214,-4.9368,-4.7455,-4.6412,-4.5934,-4.5822,-4.4968,-4.4173,-4.4098,-4.4275,-4.4037,-4.4382,-4.2257,-4.2364,-4.2406,-4.1071,-3.9412,-3.8179,-3.7879,-3.7183,-3.6464,-3.6211,-3.6456,-3.6913,-3.7397,-3.7727,-3.7892,-3.8292,-3.846,-3.8485,-3.8485,-3.7552,-3.7236,-3.7479,-3.8485,-3.8265,-3.7435,-3.5286,-3.1688,-2.8634,-2.8109,-2.8095,-2.8053,-2.7799,-2.675,-2.5589,-2.4452,-2.3544,-2.2414,-2.19,-2.1908,-2.2159,-2.236,-2.2607,-2.2883,-2.2771,-2.2095,-2.1953,-2.1918,-2.1633,-2.1197,-2.0705,-1.9664,-1.8693,-1.8216,-1.8233,-1.9414,-2.0043,-1.9669,-1.8926,-1.836,-1.7912,-1.6963,-1.6396,-1.586,-1.6277,-1.6555,-1.6494,-1.6315,-1.6018,-1.5955,-1.6567,-1.7039,-1.7225,-1.7563,-1.7945,-1.7712,-1.673,-1.6505,-1.6358,-1.6331,-1.6342,-5.5733,-5.6312,-5.5984,-5.5887,-5.6001,-5.5949,-5.6877,-5.7749,-5.7087,-5.787,-5.9532,-5.7654,-5.6583,-5.6172,-5.4941,-5.3623,-5.2653,-5.1121,-5.1093,-5.1286,-5.1453,-5.1554,-5.1818,-5.1129,-4.956,-4.7018,-4.6728,-4.6599,-4.5599,-4.5252,-4.5313,-4.502,-4.4076,-4.3697,-4.3188,-4.1224,-3.9619,-3.8997,-3.7907,-3.6936,-3.6585,-3.6481,-3.6336,-3.6377,-3.6834,-3.7182,-3.7499,-3.7918,-3.819,-3.8341,-3.8389,-3.8485,-3.8485,-3.8485,-3.8312,-3.809,-3.8287,-3.8485,-3.8511,-3.8489,-3.768,-3.5241,-3.0987,-2.876,-2.7997,-2.7981,-2.787,-2.7744,-2.6959,-2.6164,-2.5318,-2.4476,-2.3693,-2.3261,-2.3049,-2.3194,-2.3295,-2.337,-2.3245,-2.3244,-2.3135,-2.2785,-2.2214,-2.1686,-2.1645,-2.0745,-2.0611,-1.9973,-1.9547,-2.0649,-2.0585,-2.0355,-1.9841,-1.924,-1.8626,-1.7551,-1.7356,-1.7156,-1.7361,-1.7742,-1.7768,-1.7684,-1.7312,-1.7052,-1.7684,-1.8519,-1.8679,-1.8864,-1.8652,-1.8178,-1.7192,-1.6753,-1.6688,-1.6706,-1.6679,-5.7881,-5.8128,-5.8086,-5.8305,-5.8591,-5.8651,-5.9115,-5.9864,-6.0542,-6.041,-5.939,-5.8575,-5.7122,-5.49,-5.38,-5.3279,-5.245,-5.1377,-5.1449,-5.1718,-5.1916,-5.1916,-5.1883,-5.0374,-4.8566,-4.7433,-4.7178,-4.6755,-4.5593,-4.5686,-4.5773,-4.5606,-4.5146,-4.452,-4.3446,-4.0675,-3.9574,-3.93,-3.7583,-3.6211,-3.6635,-3.6164,-3.6262,-3.6483,-3.6776,-3.7146,-3.7598,-3.803,-3.8266,-3.8414,-3.8464,-3.8536,-3.8485,-3.8485,-3.8485,-3.846,-3.8485,-3.8485,-3.8536,-3.8462,-3.8464,-3.7823,-3.3138,-2.9554,-2.8427,-2.7997,-2.796,-2.7856,-2.7559,-2.7337,-2.7156,-2.5844,-2.4894,-2.4193,-2.3915,-2.3928,-2.3951,-2.4213,-2.4217,-2.4159,-2.398,-2.3453,-2.2854,-2.2656,-2.2596,-2.2591,-2.251,-2.1865,-2.1066,-2.1173,-2.1021,-2.0484,-1.9602,-1.9297,-1.9003,-1.8524,-1.8426,-1.8466,-1.8754,-1.8824,-1.8918,-1.8994,-1.8743,-1.8407,-1.9085,-1.9973,-1.9982,-1.9265,-1.8985,-1.8473,-1.7614,-1.6826,-1.6891,-1.6918,-1.69,-5.9589,-5.9401,-5.9446,-5.9802,-6.0458,-6.0397,-6.017,-6.0895,-6.2725,-6.1779,-5.819,-5.8443,-5.598,-5.3585,-5.2757,-5.2398,-5.2143,-5.1882,-5.185,-5.1883,-5.1883,-5.1916,-5.1454,-4.9965,-4.7905,-4.6941,-4.6801,-4.6699,-4.5998,-4.5864,-4.578,-4.5638,-4.5152,-4.4557,-4.3166,-4.1339,-3.9786,-3.9732,-3.7906,-3.6965,-3.7235,-3.6827,-3.6453,-3.6535,-3.6703,-3.6991,-3.732,-3.7727,-3.8099,-3.8339,-3.839,-3.8487,-3.8485,-3.8485,-3.8485,-3.8485,-3.8485,-3.8485,-3.8485,-3.846,-3.8513,-3.7533,-3.4284,-3.0925,-2.8779,-2.8293,-2.888,-2.8732,-2.8452,-2.8109,-2.8651,-2.7409,-2.6216,-2.54,-2.495,-2.444,-2.4471,-2.4518,-2.4533,-2.4533,-2.4414,-2.4159,-2.369,-2.3355,-2.3199,-2.2994,-2.3,-2.2815,-2.2451,-2.2243,-2.1874,-2.0949,-1.9888,-1.9795,-1.9852,-1.9979,-2.0128,-2.0371,-1.9961,-2.0175,-2.0339,-2.0243,-2.0158,-2.0132,-2.0573,-2.0779,-2.0294,-1.9653,-1.9013,-1.8066,-1.7503,-1.6918,-1.6918,-1.6918,-1.6918,-5.9841,-6.0781,-6.0745,-5.9995,-5.878,-5.8375,-5.8155,-5.8085,-5.9306,-5.9293,-5.8281,-5.5084,-5.4677,-5.4212,-5.3117,-5.2273,-5.1982,-5.1916,-5.1916,-5.1884,-5.1914,-5.1811,-5.1308,-4.9816,-4.8013,-4.6169,-4.6197,-4.614,-4.5948,-4.5864,-4.5556,-4.4843,-4.3847,-4.3136,-4.2088,-4.0443,-3.9914,-3.9684,-3.8319,-3.792,-3.8363,-3.7612,-3.6967,-3.6847,-3.7005,-3.7291,-3.7485,-3.7905,-3.8144,-3.7566,-3.8169,-3.8487,-3.8485,-3.8485,-3.8485,-3.8485,-3.8485,-3.8485,-3.8485,-3.846,-3.8462,-3.839,-3.4944,-3.1593,-2.9382,-2.9209,-2.9914,-3.0188,-3.0074,-2.9408,-3.0138,-2.9047,-2.8111,-2.7107,-2.5458,-2.4653,-2.4533,-2.4533,-2.4533,-2.4533,-2.4533,-2.4279,-2.41,-2.3842,-2.3576,-2.3297,-2.3674,-2.3737,-2.3711,-2.3465,-2.3245,-2.2489,-2.2236,-2.2108,-2.212,-2.2162,-2.2372,-2.2272,-2.1325,-2.157,-2.1904,-2.1244,-2.0422,-2.0975,-2.1161,-2.0811,-2.0529,-2.0369,-1.9395,-1.7595,-1.7131,-1.7569,-1.7373,-1.6937,-1.6918,-6.1478,-6.1983,-6.103,-6.0098,-5.9258,-5.8453,-5.8238,-5.8089,-5.6304,-5.586,-5.6122,-5.3792,-5.2787,-5.339,-5.2602,-5.2144,-5.1916,-5.1916,-5.1916,-5.1916,-5.1911,-5.1539,-5.0764,-4.8752,-4.7247,-4.6131,-4.5828,-4.5835,-4.578,-4.5527,-4.53,-4.4756,-4.3812,-4.2724,-4.2051,-4.1261,-4.0644,-4.0129,-3.9111,-3.8803,-3.9197,-3.8431,-3.7539,-3.7497,-3.7574,-3.7727,-3.7893,-3.8317,-3.8243,-3.812,-3.8267,-3.8485,-3.8485,-3.8485,-3.8485,-3.8485,-3.8485,-3.8485,-3.8485,-3.8485,-3.8536,-3.8439,-3.4609,-3.2253,-3.1314,-2.9964,-3.0326,-3.0438,-3.0812,-3.0908,-3.1179,-3.0457,-2.9502,-2.8205,-2.6581,-2.5539,-2.5216,-2.4772,-2.4533,-2.4533,-2.4533,-2.4263,-2.4161,-2.4089,-2.3888,-2.3748,-2.3904,-2.3879,-2.3905,-2.3905,-2.3918,-2.3918,-2.3918,-2.3918,-2.3918,-2.4035,-2.4046,-2.3382,-2.2317,-2.235,-2.2432,-2.156,-2.0725,-2.115,-2.1755,-2.127,-2.0876,-2.1227,-2.0746,-1.9075,-1.8192,-1.8288,-1.8098,-1.727,-1.701,-6.24,-6.2294,-6.0793,-5.9876,-5.9313,-5.7921,-5.7533,-5.7636,-5.3632,-5.3204,-5.3907,-5.2794,-5.1979,-5.2014,-5.2014,-5.1916,-5.1916,-5.1916,-5.1916,-5.1916,-5.1941,-5.1058,-4.9165,-4.7235,-4.6011,-4.5935,-4.5832,-4.5864,-4.578,-4.5471,-4.5043,-4.4841,-4.4002,-4.3402,-4.2714,-4.1879,-4.1606,-4.1353,-4.0273,-3.9918,-4.0188,-3.9279,-3.8645,-3.8584,-3.8193,-3.8087,-3.8264,-3.8464,-3.8485,-3.8485,-3.8485,-3.8485,-3.8485,-3.8485,-3.8485,-3.8485,-3.8485,-3.8485,-3.8485,-3.8485,-3.8485,-3.8214,-3.5613,-3.3006,-3.3313,-3.1505,-3.0922,-3.1097,-3.1517,-3.1872,-3.2074,-3.1576,-3.0236,-2.8779,-2.728,-2.633,-2.6145,-2.5335,-2.4533,-2.4533,-2.4533,-2.4533,-2.4476,-2.4201,-2.4079,-2.4045,-2.4079,-2.3942,-2.3918,-2.3918,-2.3918,-2.3918,-2.3931,-2.4088,-2.4153,-2.4349,-2.4386,-2.394,-2.2852,-2.2308,-2.2102,-2.161,-2.1556,-2.1811,-2.2044,-2.1458,-2.0711,-2.0886,-2.0182,-2.0124,-1.948,-1.8689,-1.7909,-1.7551,-1.7129,-6.0511,-6.0511,-5.994,-5.8736,-5.6887,-5.4549,-5.3848,-5.34,-5.2368,-5.2144,-5.2309,-5.208,-5.1916,-5.1916,-5.1916,-5.1916,-5.1883,-5.1818,-5.1851,-5.1748,-5.152,-5.036,-4.8006,-4.6397,-4.5964,-4.5861,-4.5835,-4.5864,-4.578,-4.578,-4.5442,-4.4755,-4.4054,-4.3429,-4.2585,-4.1965,-4.1658,-4.1564,-4.1128,-4.1195,-4.1221,-4.0377,-3.985,-3.9591,-3.8787,-3.8038,-3.7896,-3.8091,-3.8485,-3.8485,-3.8485,-3.8485,-3.8485,-3.8485,-3.8485,-3.8485,-3.8485,-3.8485,-3.8485,-3.8485,-3.8485,-3.8287,-3.7796,-3.6667,-3.396,-3.336,-3.3484,-3.4066,-3.3252,-3.2737,-3.2832,-3.1616,-3.0349,-2.9236,-2.7332,-2.6849,-2.7082,-2.5926,-2.4533,-2.4533,-2.4533,-2.4533,-2.4374,-2.4225,-2.4141,-2.4085,-2.3945,-2.3996,-2.3918,-2.3918,-2.3918,-2.3918,-2.3931,-2.4088,-2.4415,-2.4665,-2.4607,-2.4406,-2.3232,-2.2929,-2.272,-2.2727,-2.2559,-2.199,-2.1667,-2.1268,-2.0818,-1.9704,-1.8463,-1.8372,-1.9407,-1.8414,-1.7523,-1.7701,-1.7442,-5.8219,-5.8129,-5.6682,-5.5616,-5.4641,-5.2992,-5.2421,-5.2491,-5.2143,-5.1916,-5.1916,-5.1916,-5.1916,-5.1916,-5.1883,-5.1752,-5.142,-5.1452,-5.1285,-5.1041,-5.0658,-4.9235,-4.735,-4.6276,-4.5861,-4.5864,-4.5864,-4.5864,-4.578,-4.5442,-4.4928,-4.4318,-4.3519,-4.2822,-4.2177,-4.1711,-4.1643,-4.1831,-4.1684,-4.1865,-4.2251,-4.104,-4.0591,-4.0378,-3.9205,-3.8194,-3.8104,-3.8292,-3.8485,-3.8485,-3.8485,-3.8485,-3.8485,-3.8485,-3.8485,-3.8485,-3.8485,-3.8485,-3.8485,-3.8485,-3.8485,-3.8263,-3.633,-3.48,-3.3797,-3.3585,-3.3605,-3.4018,-3.3458,-3.3247,-3.3284,-3.254,-3.1414,-3.0558,-2.9431,-2.8845,-2.8978,-2.7222,-2.6111,-2.5749,-2.5206,-2.4533,-2.446,-2.4328,-2.4191,-2.405,-2.3916,-2.3931,-2.3918,-2.3918,-2.3918,-2.3918,-2.3931,-2.4271,-2.4704,-2.4862,-2.4892,-2.4346,-2.3708,-2.4299,-2.4444,-2.4684,-2.3722,-2.2325,-2.1642,-2.1264,-2.15,-2.1138,-1.9328,-1.8479,-1.8945,-1.8984,-1.8719,-1.8772,-1.8163,-5.5914,-5.5754,-5.3973,-5.3167,-5.2912,-5.2254,-5.2166,-5.2398,-5.2078,-5.1916,-5.1916,-5.1916,-5.1916,-5.1916,-5.1883,-5.1686,-5.142,-5.125,-5.0839,-5.0316,-4.9458,-4.799,-4.6634,-4.6032,-4.5864,-4.5864,-4.5864,-4.5864,-4.578,-4.5271,-4.4668,-4.4026,-4.3277,-4.2574,-4.2004,-4.1786,-4.1796,-4.2187,-4.2032,-4.2226,-4.27,-4.1783,-4.1207,-4.1178,-3.9949,-3.9104,-3.8685,-3.8585,-3.8485,-3.8485,-3.8485,-3.8485,-3.8485,-3.8485,-3.8485,-3.8485,-3.8485,-3.8485,-3.8485,-3.8485,-3.8485,-3.8263,-3.6525,-3.4662,-3.4592,-3.4416,-3.379,-3.3426,-3.329,-3.3586,-3.3565,-3.3129,-3.2581,-3.1999,-3.1674,-3.116,-3.0246,-2.8546,-2.702,-2.6803,-2.5469,-2.4746,-2.4404,-2.4336,-2.4198,-2.4067,-2.4052,-2.3955,-2.3866,-2.3918,-2.3918,-2.3918,-2.4205,-2.452,-2.485,-2.5085,-2.5091,-2.4583,-2.5009,-2.5522,-2.5822,-2.551,-2.4011,-2.2573,-2.1912,-2.0947,-2.1424,-2.0962,-2.0882,-1.9377,-1.9337,-1.8726,-1.8762,-1.9218,-1.8466,-5.3702,-5.3549,-5.2964,-5.2483,-5.2092,-5.1945,-5.1916,-5.1982,-5.1883,-5.1916,-5.1916,-5.1916,-5.1916,-5.1916,-5.1916,-5.1818,-5.1752,-5.1318,-5.0737,-4.9895,-4.8483,-4.712,-4.6158,-4.5974,-4.5864,-4.5864,-4.5864,-4.5864,-4.578,-4.5214,-4.487,-4.4462,-4.3359,-4.2785,-4.2712,-4.2128,-4.2209,-4.2818,-4.2604,-4.2674,-4.3314,-4.3057,-4.2623,-4.1713,-4.1001,-4.0123,-3.9181,-3.8685,-3.8485,-3.8485,-3.8485,-3.8485,-3.8485,-3.8485,-3.8485,-3.8485,-3.8485,-3.8485,-3.8485,-3.8485,-3.8485,-3.8485,-3.7917,-3.8163,-3.7344,-3.6227,-3.5573,-3.5283,-3.4319,-3.3586,-3.3586,-3.3586,-3.3301,-3.2795,-3.3055,-3.295,-3.1838,-2.9195,-2.7774,-2.6997,-2.567,-2.4533,-2.4476,-2.4379,-2.4151,-2.4184,-2.4068,-2.3946,-2.3866,-2.3918,-2.3918,-2.4113,-2.436,-2.4744,-2.5236,-2.5519,-2.6035,-2.5859,-2.6293,-2.6723,-2.6903,-2.5723,-2.4076,-2.3021,-2.1923,-2.0951,-2.0308,-1.9055,-1.8342,-1.8683,-1.875,-1.809,-1.8227,-1.884,-1.8582,-5.2992,-5.2931,-5.2398,-5.2077,-5.1913,-5.1883,-5.1916,-5.1916,-5.1916,-5.1916,-5.1916,-5.1916,-5.1916,-5.1916,-5.1916,-5.1719,-5.1353,-5.0871,-4.9998,-4.8801,-4.7688,-4.6775,-4.5915,-4.5835,-4.5864,-4.5864,-4.5864,-4.5612,-4.53,-4.4956,-4.4434,-4.3712,-4.3396,-4.3178,-4.2804,-4.2958,-4.3167,-4.3425,-4.3472,-4.3665,-4.3906,-4.3421,-4.2655,-4.1783,-4.0955,-3.9965,-3.8932,-3.8585,-3.8485,-3.8485,-3.8485,-3.8485,-3.8485,-3.8485,-3.8485,-3.8485,-3.8485,-3.8485,-3.8485,-3.8485,-3.8485,-3.8485,-3.8485,-3.8111,-3.7184,-3.6608,-3.5868,-3.5342,-3.4299,-3.3586,-3.3586,-3.3586,-3.3533,-3.3436,-3.3842,-3.3903,-3.3481,-3.1713,-3.0137,-2.8479,-2.709,-2.5792,-2.4766,-2.4428,-2.4216,-2.4151,-2.4071,-2.4104,-2.4008,-2.3918,-2.3918,-2.4048,-2.4516,-2.5041,-2.5538,-2.615,-2.6723,-2.71,-2.7385,-2.7385,-2.7144,-2.5847,-2.4896,-2.3672,-2.1889,-2.0929,-1.9308,-1.7868,-1.727,-1.7423,-1.7993,-1.7994,-1.8352,-1.8864,-1.9077,-5.2398,-5.2431,-5.2014,-5.1916,-5.1916,-5.1916,-5.1916,-5.1916,-5.1916,-5.1916,-5.1916,-5.1916,-5.1818,-5.1686,-5.162,-5.1385,-5.0839,-5.0133,-4.9119,-4.7912,-4.729,-4.667,-4.5948,-4.5864,-4.5864,-4.5864,-4.5696,-4.5357,-4.487,-4.4258,-4.3768,-4.3074,-4.2988,-4.2922,-4.3062,-4.3804,-4.4203,-4.405,-4.4273,-4.4502,-4.4498,-4.3951,-4.2987,-4.1912,-4.1072,-3.9949,-3.8607,-3.8485,-3.8485,-3.8485,-3.8485,-3.8485,-3.8485,-3.8485,-3.8485,-3.8485,-3.8485,-3.8485,-3.8485,-3.8485,-3.8485,-3.8485,-3.8485,-3.7886,-3.7035,-3.6482,-3.5845,-3.5342,-3.4213,-3.3586,-3.3586,-3.3586,-3.3695,-3.3978,-3.4041,-3.4318,-3.4395,-3.3726,-3.2206,-3.017,-2.8091,-2.6353,-2.4992,-2.445,-2.4293,-2.41,-2.4022,-2.404,-2.3982,-2.3918,-2.3931,-2.4217,-2.4775,-2.5295,-2.5879,-2.6473,-2.6924,-2.7282,-2.7385,-2.7385,-2.7053,-2.6047,-2.5593,-2.4371,-2.2278,-2.0525,-1.8884,-1.7993,-1.789,-1.7999,-1.7892,-1.8245,-1.8743,-1.9119,-1.9242,-5.1982,-5.1949,-5.1916,-5.1916,-5.1916,-5.1916,-5.1916,-5.1916,-5.1916,-5.1916,-5.1916,-5.1949,-5.1685,-5.1218,-5.1182,-5.0801,-5.0062,-4.9181,-4.8283,-4.7439,-4.6886,-4.6423,-4.5864,-4.5864,-4.5864,-4.5864,-4.53,-4.487,-4.4609,-4.3232,-4.2751,-4.312,-4.2497,-4.2731,-4.3781,-4.436,-4.4744,-4.4522,-4.4653,-4.4848,-4.4903,-4.461,-4.3472,-4.1877,-4.1476,-4.0454,-3.8458,-3.8485,-3.8436,-3.8412,-3.8436,-3.8485,-3.8387,-3.846,-3.8485,-3.8485,-3.8485,-3.8485,-3.8485,-3.8485,-3.8485,-3.8485,-3.8485,-3.8385,-3.8011,-3.694,-3.6055,-3.5786,-3.4642,-3.3586,-3.3586,-3.3586,-3.3779,-3.4139,-3.4183,-3.4349,-3.4767,-3.4928,-3.3708,-3.0726,-2.8421,-2.6489,-2.5105,-2.4432,-2.4327,-2.4161,-2.4103,-2.4039,-2.3955,-2.3918,-2.4165,-2.478,-2.5191,-2.5569,-2.6326,-2.698,-2.7182,-2.7385,-2.7385,-2.7372,-2.6877,-2.6749,-2.6153,-2.5904,-2.3775,-2.1778,-2.0113,-1.8342,-1.829,-1.8046,-1.8178,-1.8181,-1.8673,-1.9205,-1.942,-5.1916,-5.1916,-5.1916,-5.1916,-5.1916,-5.1916,-5.1916,-5.1916,-5.1916,-5.1916,-5.1884,-5.1914,-5.1613,-5.1146,-5.0769,-4.9772,-4.8267,-4.7925,-4.748,-4.6886,-4.6752,-4.6423,-4.5948,-4.5864,-4.5864,-4.578,-4.5186,-4.4142,-4.3086,-4.2979,-4.2767,-4.2522,-4.3129,-4.3607,-4.4007,-4.4633,-4.4859,-4.4834,-4.4873,-4.4354,-4.3377,-4.319,-4.2092,-4.0403,-3.9912,-3.9112,-3.7798,-3.8184,-3.8093,-3.7361,-3.8044,-3.8068,-3.7288,-3.7995,-3.8485,-3.8485,-3.8485,-3.8485,-3.8485,-3.8485,-3.8485,-3.8485,-3.8485,-3.8485,-3.8385,-3.6618,-3.5882,-3.5749,-3.4601,-3.3586,-3.3586,-3.3565,-3.3743,-3.3876,-3.4061,-3.4417,-3.4619,-3.4905,-3.44,-3.304,-3.0567,-2.7648,-2.5257,-2.4684,-2.4398,-2.4263,-2.4143,-2.4105,-2.4057,-2.3944,-2.4126,-2.4859,-2.5311,-2.5808,-2.6535,-2.6993,-2.7372,-2.7385,-2.7385,-2.7385,-2.7144,-2.7053,-2.6762,-2.68,-2.5624,-2.3534,-2.138,-1.9297,-1.8375,-1.7817,-1.7938,-1.8195,-1.866,-1.9123,-1.9242,-5.1916,-5.1916,-5.1916,-5.1818,-5.162,-5.1555,-5.1454,-5.1353,-5.0925,-5.0825,-5.1081,-5.166,-5.1213,-4.9967,-4.9447,-4.8391,-4.7078,-4.6997,-4.6752,-4.6423,-4.634,-4.6257,-4.5864,-4.5864,-4.5867,-4.5701,-4.5042,-4.3609,-4.2031,-4.2318,-4.2398,-4.2342,-4.328,-4.4012,-4.4431,-4.4751,-4.4952,-4.4952,-4.4952,-4.4208,-4.2691,-4.2343,-4.0816,-3.8182,-3.7548,-3.7166,-3.6573,-3.7029,-3.6726,-3.5552,-3.5957,-3.6293,-3.6392,-3.6728,-3.7284,-3.8287,-3.8485,-3.8485,-3.8485,-3.8485,-3.8485,-3.8485,-3.8485,-3.8485,-3.8087,-3.612,-3.5013,-3.5531,-3.4339,-3.3183,-3.3055,-3.3055,-3.3217,-3.3507,-3.39,-3.4298,-3.4417,-3.4752,-3.5004,-3.4532,-3.1937,-2.8457,-2.5552,-2.4533,-2.4414,-2.4281,-2.4172,-2.4105,-2.4031,-2.3931,-2.423,-2.497,-2.5466,-2.5992,-2.665,-2.7182,-2.7385,-2.7385,-2.7385,-2.7385,-2.7385,-2.7294,-2.7105,-2.7105,-2.6852,-2.5166,-2.4283,-2.2068,-1.9103,-1.852,-1.791,-1.828,-1.8625,-1.8752,-1.8897,-5.1916,-5.1883,-5.1851,-5.1554,-5.1114,-5.0851,-5.0507,-5.0347,-4.923,-4.9015,-4.9782,-5.0991,-5.023,-4.799,-4.7499,-4.6997,-4.6618,-4.6618,-4.634,-4.5977,-4.5864,-4.5864,-4.5894,-4.578,-4.5788,-4.5782,-4.4539,-4.295,-4.136,-4.1232,-4.1541,-4.2452,-4.3174,-4.3976,-4.4732,-4.4927,-4.4952,-4.4952,-4.4927,-4.3995,-4.2595,-4.2038,-3.9606,-3.602,-3.5086,-3.4954,-3.503,-3.5021,-3.4609,-3.3987,-3.3306,-3.3726,-3.5623,-3.4786,-3.5283,-3.7724,-3.8338,-3.8412,-3.8485,-3.8485,-3.8485,-3.8485,-3.846,-3.846,-3.8312,-3.5755,-3.4676,-3.5868,-3.3487,-3.1994,-3.1996,-3.2123,-3.2393,-3.288,-3.3581,-3.3876,-3.3758,-3.4336,-3.4871,-3.4456,-3.2012,-2.9008,-2.552,-2.4684,-2.4414,-2.4267,-2.4157,-2.4105,-2.4044,-2.4075,-2.4399,-2.5191,-2.5658,-2.6061,-2.7113,-2.7385,-2.7385,-2.7385,-2.7385,-2.7385,-2.7385,-2.7385,-2.7372,-2.7346,-2.7092,-2.6852,-2.6586,-2.4575,-2.1221,-1.9004,-1.838,-1.7771,-1.7806,-1.8256,-1.8336,-5.1686,-5.1385,-5.1385,-5.1045,-5.0559,-5.0195,-4.9951,-4.9687,-4.8966,-4.8779,-4.9069,-4.8681,-4.7755,-4.6582,-4.6311,-4.6228,-4.6061,-4.6061,-4.6061,-4.5864,-4.5864,-4.5841,-4.5817,-4.507,-4.5033,-4.5296,-4.324,-4.1725,-4.1396,-4.1814,-4.2155,-4.2242,-4.3634,-4.4567,-4.4927,-4.4952,-4.4952,-4.4927,-4.4866,-4.3504,-4.0846,-3.8886,-3.6887,-3.4708,-3.4233,-3.4156,-3.4168,-3.4252,-3.3658,-3.2426,-3.3145,-3.3448,-3.2982,-3.2935,-3.3588,-3.517,-3.6344,-3.7409,-3.8436,-3.8485,-3.8485,-3.846,-3.8464,-3.8538,-3.819,-3.6615,-3.5384,-3.4935,-3.2057,-3.0536,-3.1013,-3.1702,-3.1977,-3.1814,-3.2726,-3.3068,-3.2747,-3.3528,-3.4108,-3.4068,-3.2612,-3.0693,-2.8561,-2.6168,-2.4429,-2.4297,-2.4157,-2.4105,-2.4044,-2.4101,-2.4388,-2.544,-2.5624,-2.6215,-2.7074,-2.7385,-2.7385,-2.7385,-2.7385,-2.7385,-2.7385,-2.7385,-2.7385,-2.7385,-2.7385,-2.7105,-2.6147,-2.519,-2.2799,-2.0054,-1.8021,-1.6987,-1.6961,-1.7208,-1.7456,-5.1318,-5.0839,-5.0769,-5.0347,-4.974,-4.9469,-4.9069,-4.8543,-4.7808,-4.7717,-4.7851,-4.707,-4.6375,-4.5864,-4.5864,-4.5864,-4.5864,-4.5864,-4.5519,-4.4834,-4.5325,-4.4843,-4.3812,-4.3626,-4.3241,-4.2685,-4.1628,-4.0589,-4.0265,-4.0575,-4.1244,-4.1901,-4.3927,-4.4952,-4.4927,-4.4348,-4.3898,-4.3831,-4.3968,-4.247,-3.9385,-3.6413,-3.4448,-3.3648,-3.3087,-3.2729,-3.2483,-3.2524,-3.201,-3.0916,-3.1599,-3.1943,-3.1645,-3.1966,-3.2704,-3.3964,-3.4909,-3.5791,-3.6632,-3.7847,-3.8536,-3.8513,-3.8538,-3.7752,-3.6484,-3.5491,-3.4753,-3.3813,-3.1482,-2.9903,-3.0127,-3.0605,-3.0908,-3.101,-3.1818,-3.2275,-3.1796,-3.3012,-3.3796,-3.3757,-3.2955,-3.1593,-2.9729,-2.7305,-2.5406,-2.4358,-2.4179,-2.4082,-2.4021,-2.4075,-2.4427,-2.5296,-2.5742,-2.61,-2.7074,-2.7385,-2.7385,-2.7385,-2.7385,-2.7385,-2.7385,-2.7385,-2.7385,-2.7385,-2.7385,-2.689,-2.586,-2.492,-2.3083,-2.112,-1.8672,-1.6439,-1.5966,-1.6206,-1.6361,-5.0699,-5.034,-5.0237,-4.9699,-4.888,-4.8697,-4.8159,-4.718,-4.627,-4.6116,-4.6559,-4.6061,-4.5864,-4.5864,-4.5864,-4.5864,-4.5864,-4.5664,-4.4747,-4.3444,-4.4074,-4.302,-4.0585,-4.1927,-4.1209,-3.9114,-3.9711,-3.9672,-3.8685,-3.8582,-3.9583,-4.1633,-4.378,-4.4713,-4.4713,-4.3577,-4.2679,-4.2319,-4.2101,-4.0617,-3.7704,-3.4492,-3.2823,-3.2801,-3.1933,-3.1118,-3.0654,-3.0457,-3.0134,-2.9478,-2.9478,-3.0104,-3.1232,-3.1529,-3.2125,-3.3469,-3.3728,-3.3798,-3.4007,-3.6219,-3.7627,-3.8415,-3.8489,-3.7215,-3.4456,-3.3489,-3.3121,-3.2955,-3.1461,-2.9964,-2.9551,-2.9446,-2.9699,-3.0142,-3.0975,-3.1448,-3.1407,-3.2575,-3.3643,-3.3725,-3.2936,-3.1861,-3.0284,-2.8546,-2.6683,-2.507,-2.4496,-2.4026,-2.406,-2.3931,-2.4362,-2.5204,-2.5556,-2.6107,-2.6976,-2.7372,-2.7372,-2.7385,-2.7385,-2.7385,-2.7385,-2.7385,-2.7385,-2.7385,-2.7385,-2.732,-2.6348,-2.482,-2.2233,-2.0749,-1.8541,-1.6172,-1.5844,-1.5677,-1.5466,-5.0133,-4.9584,-4.9584,-4.9181,-4.8606,-4.822,-4.756,-4.6752,-4.6152,-4.5906,-4.6032,-4.5948,-4.5864,-4.5864,-4.5864,-4.5864,-4.5635,-4.4462,-4.3527,-4.3047,-4.1982,-4.0534,-3.8997,-3.9823,-3.961,-3.8661,-3.8736,-3.876,-3.8585,-3.8485,-3.9193,-4.0608,-4.2682,-4.4147,-4.4952,-4.3764,-4.3228,-4.2857,-3.8793,-3.5991,-3.4711,-3.3264,-3.2536,-3.2471,-3.1309,-3.0635,-3.0542,-3.0127,-2.9845,-2.9637,-2.9616,-2.9797,-3.0205,-3.0226,-3.031,-3.0777,-3.1782,-3.2388,-3.2291,-3.1549,-3.3097,-3.7949,-3.8525,-3.8124,-3.7112,-3.4034,-3.2264,-3.2788,-3.0373,-2.9058,-2.9892,-2.9646,-2.9323,-2.9253,-3.0093,-3.0559,-3.0391,-3.117,-3.2069,-3.2736,-3.3151,-3.2963,-3.1793,-3.0228,-2.838,-2.6469,-2.508,-2.4163,-2.3982,-2.3918,-2.4114,-2.4744,-2.503,-2.5505,-2.6474,-2.6626,-2.6816,-2.7372,-2.7372,-2.7385,-2.7385,-2.7385,-2.7385,-2.7372,-2.7372,-2.6864,-2.5872,-2.4271,-2.2516,-2.0213,-1.8246,-1.6498,-1.531,-1.4833,-1.457,-4.9584,-4.9031,-4.8728,-4.8499,-4.8189,-4.756,-4.6916,-4.6311,-4.5998,-4.5832,-4.5864,-4.5864,-4.5864,-4.5806,-4.5033,-4.481,-4.5014,-4.3082,-4.1927,-4.1498,-4.0983,-3.9596,-3.7852,-3.8809,-3.9018,-3.8513,-3.846,-3.8485,-3.8485,-3.8485,-3.9046,-4.0322,-4.1804,-4.3414,-4.4616,-4.2937,-4.1829,-4.1444,-3.69,-3.4167,-3.3225,-3.1787,-3.0887,-3.0505,-2.9525,-2.9043,-2.9043,-2.8755,-2.8583,-2.8583,-2.8563,-2.8769,-2.9082,-2.9124,-2.9329,-2.9719,-3.0521,-3.1189,-3.1919,-3.0127,-3.0436,-3.3332,-3.373,-3.416,-3.5515,-3.2237,-3.065,-3.1735,-2.9565,-2.8354,-2.9236,-2.9002,-2.878,-2.8951,-2.9411,-2.9721,-3.0009,-3.0714,-3.1402,-3.1945,-3.3088,-3.3,-3.0731,-3.0131,-2.8907,-2.6261,-2.4979,-2.4047,-2.3929,-2.3918,-2.4088,-2.4794,-2.4793,-2.5184,-2.5885,-2.6259,-2.65,-2.6847,-2.7204,-2.7372,-2.7385,-2.7385,-2.7182,-2.6639,-2.6436,-2.5723,-2.4004,-2.2828,-2.1044,-1.8715,-1.7119,-1.5859,-1.4708,-1.4214,-1.4168,-4.8646,-4.8222,-4.776,-4.7616,-4.7639,-4.6916,-4.6423,-4.5977,-4.5864,-4.5777,-4.5519,-4.5464,-4.538,-4.518,-4.3731,-4.3306,-4.3765,-4.1873,-4.0449,-3.9514,-4.0232,-3.926,-3.7087,-3.8388,-3.876,-3.8485,-3.8485,-3.8485,-3.8485,-3.8485,-3.8973,-3.9949,-4.1023,-4.2328,-4.3747,-4.1525,-3.9736,-3.8684,-3.5694,-3.3696,-3.2713,-3.0789,-2.9313,-2.8452,-2.7809,-2.7316,-2.7264,-2.7244,-2.7264,-2.7264,-2.7264,-2.7592,-2.8232,-2.8278,-2.8583,-2.9153,-2.9414,-3.0042,-3.1094,-2.982,-2.8687,-2.7968,-2.795,-2.893,-3.1068,-2.958,-2.9012,-3.0394,-2.9111,-2.8145,-2.8512,-2.8348,-2.8411,-2.897,-2.9025,-2.9307,-2.9877,-3.0581,-3.108,-3.1423,-3.2661,-3.2157,-2.9701,-2.9335,-2.8323,-2.5597,-2.4595,-2.405,-2.4032,-2.3853,-2.4088,-2.4584,-2.4741,-2.493,-2.5414,-2.6,-2.6229,-2.6292,-2.6775,-2.7035,-2.7152,-2.7282,-2.6829,-2.5895,-2.5835,-2.4893,-2.2438,-2.0693,-1.9268,-1.7302,-1.5821,-1.4469,-1.3982,-1.3871,-1.3897,-4.7019,-4.648,-4.6405,-4.66,-4.698,-4.6775,-4.6647,-4.6594,0.0,0.0,0.0,-4.345,-4.2883,-4.2402,-4.2365,-4.2379,-4.2396,-4.057,-3.9643,-3.9436,-3.8154,-3.7785,-3.8149,-3.7914,-3.8045,-3.846,-3.8485,-3.8485,-3.8485,-3.8485,-3.8582,-3.8851,-3.9379,-3.9912,-4.02,-3.9327,-3.7923,-3.6064,-3.4074,-3.296,-3.2933,-3.1388,-3.0128,-2.9354,-2.8609,-2.799,-2.739,-2.7354,-2.7337,-2.7337,-2.7439,-2.7444,-2.759,-2.7579,-2.7395,-2.6949,-2.7841,-2.8101,-2.716,-2.7378,-2.7531,-2.748,-2.7795,-2.7763,-2.7099,-2.7332,-2.8462,-3.0743,-2.9328,-2.9046,-3.0803,-2.9678,-2.897,-2.9378,-2.9496,-2.9544,-2.9916,-3.0126,-3.0487,-3.1172,-3.1484,-3.134,-3.0473,-2.9419,-2.7984,-2.6621,-2.5031,-2.4126,-2.4005,-2.3916,-2.3931,-2.4088,-2.4101,-2.4308,-2.4839,-2.522,-2.5375,-2.5685,-2.5918,-2.6152,-2.6434,-2.6698,-2.6778,-2.655,-2.6954,-2.5461,-2.2689,-2.0911,-1.9354,-1.6221,-1.468,-1.3818,-1.3871,-1.3878,-1.3878,-4.593,0.0,-4.5875,-4.6139,0.0,-4.6394,-4.6247,-4.6197,-4.4276,-4.3104,-4.2463,-4.1336,-4.1233,-4.1818,-4.1098,-4.0931,-4.1245,-3.9337,-3.869,-3.8887,-3.803,-3.7868,-3.8512,-3.8193,-3.8169,-3.8485,-3.8485,-3.8117,-3.7433,-3.7409,-3.6947,-3.6052,-3.6775,-3.7221,-3.727,-3.7468,-3.6368,-3.4062,-3.3175,-3.2531,-3.1839,-3.0768,-2.9607,-2.8548,0.0,0.0,0.0,0.0,0.0,0.0,0.0,0.0,0.0,0.0,0.0,-2.6224,-2.4906,-2.4294,-2.4886,-2.5722,-2.5422,-2.3813,-2.5473,-2.6235,-2.5623,-2.6062,-2.6896,-2.7987,-2.8133,-2.8558,-2.9596,-2.9315,-2.9041,-2.9507,-2.9516,-2.9629,-2.9916,-2.9974,-3.0125,-3.0486,-3.0277,-2.9719,-2.9275,-2.7944,-2.6812,-2.5751,-2.4672,-2.411,-2.4091,-2.3978,-2.3918,-2.3918,-2.3918,-2.3981,-2.4376,-2.4686,-2.5082,-2.523,-2.5485,-2.5683,-2.5957,-2.6081,-2.5635,-2.4773,-2.4795,-2.3779,-2.0521,-1.9366,-1.8558,-1.6346,-1.5125,-1.4336,-1.3673,-1.3779,-1.3878,-4.5018,-4.5346,-4.5059,-4.5173,-4.5554,-4.5113,-4.5045,-4.5092,-4.2235,-4.0979,-4.0896,-3.9549,-3.98,-4.1222,-3.9879,-3.9551,-3.9986,-3.8358,-3.7997,-3.8485,-3.8485,-3.8485,-3.8485,-3.8485,-3.8485,-3.8485,-3.8485,-3.775,-3.6368,-3.6368,-3.5455,-3.3726,-3.447,-3.4861,-3.4878,0.0,0.0,0.0,-3.2519,-3.2096,-3.083,-3.0041,-2.8971,-2.769,-2.7664,0.0,-2.7383,-2.7383,-2.7241,-2.6958,-2.7072,0.0,0.0,0.0,0.0,0.0,0.0,0.0,0.0,0.0,0.0,0.0,-2.1649,-2.3574,-2.3477,-2.4095,-2.4589,-2.4923,-2.6376,-2.737,-2.7273,-2.795,-2.8618,-2.904,-2.9311,-2.952,-2.986,-2.9974,-2.9974,-2.9955,-2.9125,-2.8247,-2.7253,-2.6327,-2.5317,-2.4338,-2.405,-2.4105,-2.4091,-2.3916,-2.3905,-2.3918,-2.3918,-2.3918,-2.3918,-2.4376,-2.4709,-2.4723,-2.5035,-2.5368,-2.5499,-2.5297,-2.437,-2.303,-2.2303,-2.138,-1.8137,-1.7515,-1.7398,-1.6147,-1.5214,-1.4591,-1.3825,-1.3729,-1.3798,-4.382,-4.2854,-4.2807,-4.2384,-4.1794,-4.1685,-4.2103,-4.2957,-4.1543,-4.0243,-3.8821,-3.7931,-3.7884,-3.8452,-3.8584,-3.8661,-3.876,-3.8462,-3.8462,-3.8485,-3.8485,-3.8485,-3.8485,-3.8485,-3.8485,-3.8485,-3.8485,-3.7775,-3.6368,-3.6368,-3.5552,-3.4081,-3.3628,-3.3358,-3.3039,-3.0913,-3.0196,-3.099,-3.1086,-3.1223,-3.1177,-3.0334,-2.9477,-2.8708,-2.862,-2.8227,-2.7421,-2.7383,-2.7648,-2.8036,-2.7063,-2.6005,-2.5282,-2.3855,-2.2513,0.0,-1.9125,0.0,0.0,0.0,0.0,0.0,0.0,0.0,0.0,-1.9268,-2.1153,-2.3364,-2.5033,-2.5795,-2.5475,-2.6126,-2.6848,-2.7667,-2.8391,-2.9153,-2.9822,-2.9974,-2.9974,-2.9974,-2.8865,-2.7641,-2.6453,-2.563,-2.4713,-2.3613,-2.372,-2.3889,-2.3903,-2.3789,-2.3879,-2.3918,-2.3918,-2.3918,-2.3944,-2.4061,-2.402,-2.4074,-2.4127,-2.431,-2.4775,-2.4066,-2.3268,-2.3333,-2.2539,-2.0963,-1.8052,-1.7479,-1.6535,-1.4343,-1.3695,-1.375,-1.4025,-1.3796,-1.3495,-4.1846,-4.1675,-4.1232,-3.9771,-3.7761,-3.7867,-3.8221,-3.8576,-3.7901,-3.7015,-3.6003,-3.5958,-3.615,-3.6443,-3.6652,-3.7094,-3.7631,-3.7655,-3.7459,-3.7336,-3.7336,-3.6826,-3.5958,-3.5958,-3.6901,-3.8386,-3.6755,-3.5241,-3.3799,-3.3752,-3.2936,-3.1189,-3.0937,-3.02,-2.8823,-2.8091,-2.8069,-2.8647,-2.9189,-2.9583,-2.982,-2.922,-2.888,-2.8849,-2.8504,-2.8432,-2.8745,-2.8854,-2.8957,-2.9205,-2.824,-2.6929,-2.516,-2.2864,-2.0746,0.0,0.0,0.0,0.0,0.0,0.0,0.0,0.0,0.0,0.0,0.0,-1.8518,-2.0388,-2.3018,-2.4481,-2.4336,-2.5095,-2.5741,-2.6082,-2.6143,-2.6499,-2.7183,-2.7761,-2.7913,-2.7316,-2.6707,-2.6032,-2.5072,-2.3742,-2.2958,-2.3121,-2.288,-2.2687,-2.2533,-2.3074,-2.3451,-2.3464,-2.3711,-2.3918,-2.3918,-2.3918,-2.3918,-2.3918,-2.3918,-2.3736,-2.3424,-2.2869,-2.2162,-2.1081,-2.0485,-1.9498,-1.7339,-1.7001,-1.6676,-1.4934,-1.371,-1.3194,-1.3346,-1.3282,-1.3258,-4.0397,-4.0455,-3.8684,-3.6476,-3.4234,-3.447,-3.4716,-3.499,-3.4389,-3.4,-3.3633,-3.4194,-3.4309,-3.3936,-3.3939,-3.4528,-3.5638,-3.5905,-3.5958,-3.5863,-3.5719,-3.4647,-3.2979,-3.387,-3.5523,-3.7198,-3.517,-3.3237,-3.1691,-3.169,-3.0528,-2.8636,-2.7871,-2.677,-2.5269,-2.5762,-2.6294,-2.667,-2.756,-2.8077,-2.8372,-2.7903,-2.7958,-2.8485,-2.7882,-2.7958,-2.8995,-2.9033,-2.8972,-2.901,-2.7867,-2.6608,-2.513,-2.1462,0.0,0.0,0.0,0.0,0.0,0.0,0.0,0.0,0.0,-1.1247,-1.3077,0.0,-1.5719,0.0,-2.0628,-2.2359,-2.207,-2.304,0.0,0.0,-2.3247,-2.3412,-2.4098,-2.4958,-2.5298,-2.4601,-2.4389,-2.4027,-2.3346,-2.1928,-2.1407,-2.2349,-2.1777,-2.1357,-2.1423,-2.2243,-2.2867,-2.2893,-2.3278,-2.3412,-2.3464,-2.3581,-2.3659,-2.3426,-2.3015,-2.2518,-2.1715,-2.1449,-2.059,-1.8948,-1.8458,-1.7883,-1.6372,-1.6119,-1.5857,-1.4808,-1.3494,-1.2368,-1.2299,-1.2651,-1.2882,-4.0034,-3.8501,-3.4254,-3.2016,-3.1363,-3.2059,-3.2742,-3.337,-3.2708,-3.251,-3.2649,-3.3313,-3.2121,-2.9837,-2.9737,0.0,-3.1996,-3.2781,-3.3645,-3.4716,-3.3987,-3.2259,-2.9929,-3.3659,-3.5073,-3.4364,-3.4218,-3.3353,-3.1645,-3.1475,-3.0115,-2.7332,-2.4832,-2.3746,-2.4016,-2.3986,-2.448,-2.5526,-2.6668,-2.7311,-2.717,-2.7096,-2.7096,-2.7188,-2.6488,-2.6252,-2.6306,-2.6324,-2.6332,-2.6323,-2.4159,-2.3578,-2.4797,0.0,0.0,0.0,0.0,0.0,0.0,0.0,0.0,0.0,0.0,0.0,0.0,0.0,0.0,0.0,-1.7872,0.0,-1.737,-1.8755,0.0,0.0,0.0,-2.0576,-2.1516,-2.2165,-2.2576,-2.2869,0.0,0.0,-2.1388,-2.0768,-2.0398,-2.0792,-2.0705,-2.0861,-2.1295,-2.1841,-2.2282,-2.2243,-2.2313,-2.226,-2.2442,-2.2755,-2.2781,-2.1911,-2.0496,-1.9873,-1.9927,-1.9151,-1.848,-1.8249,-1.7457,-1.6433,-1.5524,-1.4868,-1.397,-1.2187,-1.1531,-1.1387,-1.1538,-1.1824,-1.2341,-3.5981,-3.2536,-2.9937,-2.8681,-2.8444,-2.8322,-2.8743,-2.9697,-2.9232,-2.904,-2.8947,-2.9391,-2.8282,-2.6187,-2.6125,0.0,0.0,0.0,-2.9122,-3.0472,-2.9028,-2.8136,-2.7777,-2.9965,-3.1048,-3.1115,-3.0363,-2.9224,-2.7756,-2.7779,-2.5801,-2.1989,0.0,0.0,-2.034,-2.0948,-2.1548,-2.2311,-2.4122,-2.5174,-2.528,-2.5282,-2.563,-2.6138,-2.5314,-2.5206,-2.6002,-2.5571,-2.478,-2.3594,-2.1852,-1.9973,0.0,0.0,0.0,0.0,0.0,0.0,0.0,0.0,0.0,0.0,0.0,-0.792,-0.7962,0.0,0.0,0.0,-1.3944,-1.495,-1.5168,-1.6133,0.0,0.0,0.0,0.0,0.0,0.0,0.0,-1.8212,-1.9543,-2.0328,-1.9872,-1.8926,-1.8439,-1.8977,-1.9014,-1.9062,-1.9283,0.0,-2.1192,-2.1205,-2.1493,-2.1732,-2.1739,-2.1616,-2.1486,-2.1047,-1.9903,-1.8821,-1.8216,-1.7158,-1.6228,-1.5555,-1.4977,-1.4366,-1.3708,-1.3437,-1.2898,-1.2134,-1.1593,-1.1258,-1.1242,-1.1426,-1.1635,-3.161,0.0,0.0,0.0,0.0,-2.436,-2.4569,-2.5495,-2.4856,-2.4591,-2.4762,-2.5131,0.0,0.0,0.0,0.0,0.0,0.0,-2.4747,-2.5861,-2.472,-2.432,-2.4662,-2.6811,-2.8154,-2.8616,-2.688,-2.5243,-2.3754,-2.2405,-1.9971,-1.6499,0.0,0.0,0.0,0.0,-1.7786,-1.9727,-2.2069,-2.3494,-2.4066,-2.3961,-2.4317,-2.5181,-2.3956,-2.3749,-2.447,-2.3666,-2.2474,-2.0704,-1.8724,0.0,0.0,0.0,0.0,0.0,0.0,0.0,0.0,0.0,0.0,0.0,0.0,0.0,0.0,0.0,0.0,0.0,0.0,0.0,-1.3206,-1.3795,-1.3976,0.0,0.0,0.0,0.0,0.0,0.0,0.0,0.0,0.0,-1.7736,-1.7214,-1.7157,0.0,0.0,-1.8361,-1.821,-1.9451,-2.0231,-2.0182,-2.0435,0.0,-2.0274,-2.0117,-1.984,-1.9172,-1.847,-1.7551,-1.6143,-1.5299,-1.4383,-1.3409,-1.3229,-1.2895,-1.1785,-1.1323,-1.1337,-1.1315,-1.0906,-1.0666,-1.057,-1.0775,-1.0718,0.0,0.0,0.0,0.0,0.0,0.0,0.0,0.0,-1.94,-1.9326,0.0,-2.1002,0.0,0.0,0.0,0.0,0.0,-1.9488,0.0,0.0,-2.1659,-2.1269,-2.058,-2.5018,-2.7217,-2.7118,-2.4291,-2.2029,-2.0081,-1.5704,0.0,0.0,0.0,0.0,0.0,0.0,-1.2863,-1.833,-2.0859,-2.2769,-2.3999,-2.3345,-2.3329,-2.4066,-2.2836,-2.1749,-2.0987,-1.9908,-1.877,-1.7656,-1.4368,0.0,0.0,0.0,0.0,0.0,0.0,0.0,0.0,0.0,0.0,0.0,0.0,0.0,0.0,0.0,0.0,0.0,0.0,0.0,0.0,-1.1446,0.0,0.0,0.0,0.0,0.0,0.0,0.0,0.0,0.0,0.0,-1.4734,-1.5661,-1.6746,-1.7725,0.0,0.0,0.0,0.0,-1.9503,-1.8984,-1.8893,-1.8641,-1.7805,-1.8074,-1.7846,-1.5786,0.0,0.0,-1.385,-1.3332,-1.2945,-1.2639,-1.2794,-1.2129,-0.9361,-0.9012,-0.8999,-0.893,-0.8953,-0.8986,-0.9184,-0.9438,-0.9689,0.0,0.0,0.0,0.0,0.0,0.0,0.0,0.0,0.0,-1.5014,0.0,-1.6667,0.0,0.0,0.0,0.0,0.0,0.0,0.0,0.0,-1.5558,-1.5071,-1.6114,-2.2708,-2.406,0.0,-1.9011,-1.6049,0.0,0.0,0.0,0.0,0.0,0.0,0.0,0.0,-1.1708,-1.7067,-2.0329,-2.255,-2.3768,-2.3217,-2.3201,-2.3817,-2.2823,-2.1346,-1.9233,-1.7987,-1.6374,0.0,0.0,0.0,0.0,0.0,0.0,0.0,0.0,0.0,0.0,0.0,0.0,0.0,0.0,0.0,0.0,0.0,0.0,0.0,0.0,0.0,0.0,0.0,-0.9362,0.0,0.0,0.0,0.0,0.0,0.0,0.0,0.0,0.0,-1.1855,-1.2838,-1.4456,-1.6543,-1.7138,-1.7737,-1.8721,0.0,0.0,0.0,0.0,0.0,0.0,0.0,-1.5537,-1.4512,-1.4509,-1.4091,-1.271,-1.1412,-1.036,-1.0192,0.0,0.0,-0.8596,-0.8351,-0.8392,-0.8636,-0.8423,-0.8251,-0.8784,-0.8625,-0.8545,0.0,0.0,0.0,0.0,0.0,0.0,0.0,0.0,0.0,-1.1966,-1.3506,0.0,0.0,0.0,0.0,0.0,0.0,0.0,0.0,0.0,0.0,0.0,-1.2055,-1.8265,0.0,0.0,0.0,0.0,0.0,0.0,0.0,0.0,0.0,0.0,0.0,0.0,-1.07,-1.601,-1.9948,-2.2498,-2.3693,-2.2882,-2.285,-2.3726,-2.2839,-2.1248,-1.8852,0.0,0.0,0.0,0.0,0.0,0.0,0.0,0.0,0.0,0.0,0.0,0.0,0.0,0.0,0.0,0.0,0.0,0.0,0.0,0.0,0.0,0.0,0.0,0.0,0.0,-0.7633,0.0,0.0,0.0,0.0,0.0,0.0,0.0,0.0,0.0,0.0,0.0,-1.2426,-1.4585,-1.5283,-1.6073,-1.7146,-1.7642,-1.7468,0.0,0.0,0.0,0.0,0.0,0.0,0.0,0.0,0.0,0.0,0.0,0.0,0.0,0.0,-0.7722,-0.7475,-0.7404,-0.7493,-0.7795,0.0,0.0,0.0,0.0,0.0,0.0,0.0,0.0,0.0,0.0,0.0,0.0,0.0,0.0,0.0,0.0,0.0,0.0,-0.9235,0.0,0.0,0.0,0.0,0.0,0.0,0.0,0.0,0.0,0.0,0.0,0.0,0.0,0.0,0.0,0.0,0.0,0.0,0.0,0.0,0.0,0.0,-0.9807,-1.5143,-1.9649,-2.2547,-2.3569,-2.26,-2.2448,-2.3553,-2.2448,-2.1247,-1.9758,0.0,0.0,0.0,0.0,0.0,0.0,0.0,0.0,0.0,0.0,0.0,0.0,0.0,0.0,0.0,0.0,0.0,0.0,0.0,0.0,0.0,0.0,0.0,0.0,0.0,0.0,-0.5994,-0.6009,-0.6116,0.0,0.0,0.0,0.0,0.0,0.0,0.0,0.0,0.0,0.0,-1.3437,-1.4425,-1.4294,-1.4196,-1.4334,-1.3968,-1.361,-1.3378,-1.3372,-1.2823,-1.2296,0.0,0.0,0.0,0.0,0.0,0.0,0.0,0.0,0.0,0.0,0.0,0.0,0.0,0.0,0.0,0.0,0.0,0.0,0.0,0.0,0.0,0.0,0.0,0.0,0.0,0.0,0.0,0.0,0.0,0.0,0.0,0.0,0.0,0.0,0.0,0.0,0.0,0.0,0.0,0.0,0.0,0.0,0.0,0.0,0.0,0.0,0.0,0.0,0.0,0.0,0.0,0.0,0.0,0.0,-0.8827,-1.5129,-1.9611,-2.2202,-2.2657,-2.1877,-2.1513,-2.1815,-2.0654,-1.9382,0.0,0.0,0.0,0.0,0.0,0.0,0.0,0.0,0.0,0.0,0.0,0.0,0.0,0.0,0.0,0.0,0.0,0.0,0.0,0.0,0.0,0.0,0.0,0.0,0.0,0.0,0.0,0.0,-0.6279,-0.6127,-0.5673,0.0,0.0,0.0,0.0,0.0,0.0,0.0,0.0,0.0,0.0,-1.2899,-1.4268,-1.4639,-1.4385,-1.3416,-1.3153,-1.2655,-1.1189,-1.1229,-1.1117,-1.0435,0.0,0.0,0.0,0.0,0.0,0.0,0.0,0.0,0.0,0.0,0.0,0.0,0.0,0.0,0.0,0.0,0.0,0.0,0.0,0.0,0.0,0.0,0.0,0.0,0.0,0.0,0.0,0.0,0.0,0.0,0.0,0.0,0.0,0.0,0.0,0.0,0.0,0.0,0.0,0.0,0.0,0.0,0.0,0.0,0.0,0.0,0.0,0.0,0.0,0.0,0.0,0.0,0.0,-0.818,-1.4594,-1.9455,-2.2,-2.2158,-2.1376,-2.1013,-2.0994,-1.9752,-1.8206,0.0,0.0,0.0,0.0,0.0,0.0,0.0,0.0,0.0,0.0,0.0,0.0,0.0,0.0,0.0,0.0,0.0,0.0,0.0,0.0,0.0,0.0,0.0,0.0,0.0,0.0,0.0,0.0,-0.5589,-0.5419,-0.5029,0.0,0.0,0.0,0.0,0.0,0.0,0.0,0.0,0.0,0.0,-1.0293,-1.186,-1.248,0.0,0.0,-1.1773,-1.13,-1.0258,-1.0292,-1.0325,-0.9651,-0.8982,0.0,0.0,0.0,0.0,0.0,0.0,0.0,0.0,0.0,0.0,0.0,0.0,0.0,0.0,0.0,0.0,0.0,0.0,0.0,0.0,0.0,0.0,0.0,0.0,0.0,0.0,0.0,0.0,0.0,0.0,0.0,0.0,0.0,0.0,0.0,0.0,0.0,0.0,0.0,0.0,0.0,0.0,0.0,0.0,0.0,0.0,0.0,0.0,0.0,0.0,0.0,0.0,0.0,-1.3651,-1.9055,-2.1895,-2.1955,-2.1032,-2.0662,-2.0826,-1.9392,-1.7401,0.0,0.0,0.0,0.0,0.0,0.0,0.0,0.0,0.0,0.0,0.0,0.0,0.0,0.0,0.0,0.0,0.0,0.0,0.0,0.0,0.0,0.0,0.0,0.0,0.0,0.0,0.0,0.0,0.0,0.0,0.0,0.0,0.0,0.0,0.0,0.0,0.0,0.0,0.0,0.0,0.0,-0.7219,-0.8068,-0.8653,-0.9161,0.0,0.0,-0.9545,-0.9954,-0.9784,-0.9634,-0.9267,0.0,0.0,0.0,0.0,0.0,0.0,0.0,0.0,0.0,0.0,0.0,0.0,0.0,0.0,0.0,0.0,0.0,0.0,0.0,0.0,0.0,0.0,0.0,0.0,0.0,0.0,0.0,0.0,0.0,0.0,0.0,0.0,0.0,0.0,0.0,0.0,0.0,0.0,0.0,0.0,0.0,0.0,0.0,0.0,0.0,0.0,0.0,0.0,0.0,0.0,0.0,0.0,0.0,0.0,-1.2847,-1.7614,-2.0214,-2.0466,-1.9447,-1.9105,-1.9396,-1.8219,0.0,0.0,0.0,0.0,0.0,0.0,0.0,0.0,0.0,0.0,0.0,0.0,0.0,0.0,0.0,0.0,0.0,0.0,0.0,0.0,0.0,0.0,0.0,0.0,0.0,0.0,0.0,-0.2946,0.0,0.0,0.0,0.0,0.0,0.0,0.0,0.0,0.0,0.0,0.0,0.0,0.0,0.0,-0.7129,-0.8452,-0.7828,-0.741,0.0,0.0,-0.7941,-0.7367,-0.7761,-0.7786,0.0,0.0,0.0,0.0,0.0,0.0,0.0,0.0,0.0,0.0,0.0,0.0,0.0,0.0,0.0,0.0,0.0,0.0,0.0,0.0,0.0,0.0,0.0,0.0,0.0,0.0,0.0,0.0,0.0,0.0,0.0,0.0,0.0,0.0,0.0,0.0,0.0,0.0,0.0,0.0,0.0,0.0,0.0,0.0,0.0,0.0,0.0,0.0,0.0,0.0,0.0,0.0,0.0,0.0,-0.7016,-1.2201,-1.696,-1.9673,-1.9898,-1.8938,-1.8476,-1.8902,-1.7289,-1.546,0.0,0.0,0.0,0.0,0.0,0.0,0.0,0.0,0.0,0.0,0.0,0.0,0.0,0.0,0.0,0.0,0.0,0.0,0.0,0.0,0.0,0.0,0.0,0.0,0.0,0.0,0.0,0.0,0.0,0.0,0.0,0.0,0.0,0.0,0.0,0.0,0.0,0.0,0.0,0.0,0.0,0.0,-0.7925,-0.7301,0.0,0.0,0.0,-0.6793,-0.7204,0.0,0.0,0.0,0.0,0.0,0.0,0.0,0.0,0.0,0.0,0.0,0.0,0.0,0.0,0.0,0.0,0.0,0.0,0.0,0.0,0.0,0.0,0.0,0.0,0.0,0.0,0.0,0.0,0.0,0.0,0.0,0.0,0.0,0.0,0.0,0.0,0.0,0.0,0.0,0.0,0.0,0.0,0.0,0.0,0.0,0.0,0.0,0.0,0.0,0.0,0.0,0.0,0.0,0.0,0.0,0.0,0.0,-1.1539,-1.6605,-1.9367,-1.9663,-1.8791,-1.8436,-1.8646,-1.6747,-1.4664,0.0,0.0,0.0,0.0,0.0,0.0,0.0,0.0,0.0,0.0,0.0,0.0,0.0,0.0,0.0,0.0,0.0,0.0,0.0,0.0,0.0,0.0,0.0,0.0,0.0,0.0,0.0,0.0,0.0,0.0,0.0,0.0,0.0,0.0,0.0,0.0,0.0,0.0,0.0,0.0,0.0,-0.4567,-0.6497,-0.6472,-0.6024,0.0,0.0,-0.5555,-0.7465,-0.6437,0.0,0.0,0.0,0.0,0.0,0.0,0.0,0.0,0.0,0.0,0.0,0.0,0.0,0.0,0.0,0.0,0.0,0.0,0.0,0.0,0.0,0.0,0.0,0.0,0.0,0.0,0.0,0.0,0.0,0.0,0.0,0.0,0.0,0.0,0.0,0.0,0.0,0.0,0.0,0.0,0.0,0.0,0.0,0.0,0.0,0.0,0.0,0.0,0.0,0.0,0.0,0.0,0.0,0.0,0.0,0.0,-1.0308,-1.5106,-1.7823,-1.8265,-1.8272,-1.8245,-1.8075,-1.7392,-1.5584,0.0,0.0,0.0,0.0,0.0,0.0,0.0,0.0,0.0,0.0,0.0,0.0,0.0,0.0,0.0,0.0,0.0,0.0,0.0,0.0,0.0,0.0,0.0,0.0,0.0,0.0,0.0,0.0,0.0,0.0,0.0,0.0,0.0,0.0,0.0,0.0,0.0,0.0,0.0,0.0,0.0,-0.1758,-0.303,-0.2679,0.0,0.0,0.0,0.0,-0.1697,-0.2602,0.0,0.0,0.0,0.0,0.0,0.0,0.0,0.0,0.0,0.0,0.0,0.0,0.0,0.0,0.0,0.0,0.0,0.0,0.0,0.0,0.0,0.0,0.0,0.0,0.0,0.0,0.0,0.0,0.0,0.0,0.0,0.0,0.0,0.0,0.0,0.0,0.0,0.0,0.0,0.0,0.0,0.0,0.0,0.0,0.0,0.0,0.0,0.0,0.0,0.0,0.0,0.0,0.0,0.0,0.0,0.0,-1.013,-1.4774,-1.7397,-1.7893,-1.7803,-1.779,-1.7799,-1.7078,-1.5412,0.0,0.0,0.0,0.0,0.0,0.0,0.0,0.0,0.0,0.0,0.0,0.0,0.0,0.0,0.0,0.0,0.0,0.0,0.0,0.0,0.0,0.0,0.0,0.0,0.0,0.0,0.0,0.0,0.0,0.0,0.0,0.0,0.0,0.0,0.0,0.0,0.0,0.0,0.0,0.0,0.1045,0.0486,-0.024,0.0,0.0,0.0,0.0,0.0,0.0,0.0235,-0.0,0.0,0.0,0.0,0.0,0.0,0.0,0.0,0.0,0.0,0.0,0.0,0.0,0.0,0.0,0.0,0.0,0.0,0.0,0.0,0.0,0.0,0.0,0.0,0.0,0.0,0.0,0.0,0.0,0.0,0.0,0.0,0.0,0.0,0.0,0.0,0.0,0.0,0.0,0.0,0.0,0.0,0.0,0.0,0.0,0.0,0.0,0.0,0.0,0.0,0.0,0.0,0.0,0.0,0.0,0.0,-0.9893,-1.4689,-1.7282,-1.7528,-1.7309,-1.7348,-1.7751,-1.6446,-1.4946,-1.311,0.0,0.0,0.0,0.0,0.0,0.0,0.0,0.0,0.0,0.0,0.0,0.0,0.0,0.0,0.0,0.0,0.0,0.0,0.0,0.0,0.0,0.0,0.0,0.0,0.0,0.0,0.0,0.0,0.0,0.0,0.0,0.0,0.0,0.0,0.0,0.0,0.0,0.0,0.0,0.2539,0.2383,0.0,0.0,0.0,0.0,0.0,0.0,0.0,0.0,0.2706,0.0,0.0,0.0,0.0,0.0,0.0,0.0,0.0,0.0,0.0,0.0,0.0,0.0,0.0,0.0,0.0,0.0,0.0,0.0,0.0,0.0,0.0,0.0,0.0,0.0,0.0,0.0,0.0,0.0,0.0,0.0,0.0,0.0,0.0,0.0,0.0,0.0,0.0,0.0,0.0,0.0,0.0,0.0,0.0,0.0,0.0,0.0,0.0,0.0,0.0,0.0,0.0,0.0,0.0,0.0,0.0,-1.3762,-1.683,-1.6293,-1.6805,-1.7166,-1.7244,-1.6629,-1.4992,-1.2472,0.0,0.0,0.0,0.0,0.0,0.0,0.0,0.0,0.0,0.0,0.0,0.0,0.0,0.0,0.0,0.0,0.0,0.0,0.0,0.0,0.0,0.0,0.0,0.0,0.0,0.0,0.0,0.0,0.0,0.0,0.0,0.0,0.0,0.0,0.0,0.0,0.0,0.0,0.3787,0.4051,0.0,0.0,0.0,0.0,0.0,0.0,0.0,0.0,0.3619,0.0,0.0,0.0,0.0,0.0,0.0,0.0,0.0,0.0,0.0,0.0,0.0,0.0,0.0,0.0,0.0,0.0,0.0,0.0,0.0,0.0,0.0,0.0,0.0,0.0,0.0,0.0,0.0,0.0,0.0,0.0,0.0,0.0,0.0,0.0,0.0,0.0,0.0,0.0,0.0,0.0,0.0,0.0,0.0,0.0,0.0,0.0,0.0,0.0,0.0,0.0,0.0,0.0,0.0,0.0,0.0,0.0,0.0,-1.5582,-1.5022,-1.6083,-1.6793,-1.6973,-1.5191,-1.3168,0.0,0.0,0.0,0.0,0.0,0.0,0.0,0.0,0.0,0.0,0.0,0.0,0.0,0.0,0.0,0.0,0.0,0.0,0.0,0.0,0.0,0.0,0.0,0.0,0.0,0.0,0.0,0.0,0.0,0.0,0.0,0.0,0.0,0.0,0.0,0.0,0.0,0.0,0.0,0.0,0.0,0.0,0.0,0.0,0.0,0.0,0.0,0.0,0.0,0.0,0.0,0.0,0.0,0.0,0.0,0.0,0.0,0.0,0.0,0.0,0.0,0.0,0.0,0.0,0.0,0.0,0.0,0.0,0.0,0.0,0.0,0.0,0.0,0.0,0.0,0.0,0.0,0.0,0.0,0.0,0.0,0.0,0.0,0.0,0.0,0.0,0.0,0.0,0.0,0.0,0.0,0.0,0.0,0.0,0.0,0.0,0.0,0.0,0.0,0.0,0.0,0.0,0.0,0.0,0.0,0.0,0.0,0.0,-1.3174,-1.3762,-1.5099,-1.6023,-1.6526,-1.3473,-1.0957,0.0,0.0,0.0,0.0,0.0,0.0,0.0,0.0,0.0,0.0,0.0,0.0,0.0,0.0,0.0,0.0,0.0,0.0,0.0,0.0,0.0,0.0,0.0,0.0,0.0,0.0,0.0,0.0,0.0,0.0,0.0,0.0,0.0,0.0,0.0,0.0,0.0,0.0,0.0,0.0,0.0,0.0,0.0,0.0,0.0,0.0,0.0,0.0,0.4795,0.0,0.0,0.0,0.0,0.0,0.0,0.0,0.0,0.0,0.0,0.0,0.0,0.0,0.0,0.0,0.0,0.0,0.0,0.0,0.0,0.0,0.0,0.0,0.0,0.0,0.0,0.0,0.0,0.0,0.0,0.0,0.0,0.0,0.0,0.0,0.0,0.0,0.0,0.0,0.0,0.0,0.0,0.0,0.0,0.0,0.0,0.0,0.0,0.0,0.0,0.0,0.0,0.0,0.0,0.0,0.0,0.0,0.0,0.0,-0.8783,-1.2138,-1.3402,-1.4191,-1.4537,-1.1732,-0.9221,0.0,0.0,0.0,0.0,0.0,0.0,0.0,0.0,0.0,0.0,0.0,0.0,0.0,0.0,0.0,0.0,0.0,0.0,0.0,0.0,0.0,0.0,0.0,0.0,0.0,0.0,0.0,0.0,0.0,0.0,0.0,0.0,0.0,0.0,0.0,0.0,0.0,0.0,0.0,0.0,0.0,0.0,0.0,0.0,0.0,0.0,0.0,0.0,0.0,0.0,0.0,0.0,0.0,0.0,0.0,0.0,0.0,0.0,0.0,0.0,0.0,0.0,0.0,0.0,0.0,0.0,0.0,0.0,0.0,0.0,0.0,0.0,0.0,0.0,0.0,0.0,0.0,0.0,0.0,0.0,0.0,0.0,0.0,0.0,0.0,0.0,0.0,0.0,0.0,0.0,0.0,0.0,0.0,0.0,0.0,0.0,0.0,0.0,0.0,0.0,0.0,0.0,0.0,0.0,0.0,0.0,0.0,0.0,-0.6297,-0.7995,-1.053,-1.0503,-0.7722,-0.6564,-0.56,0.0,0.0,0.0,0.0,0.0,0.0,0.0,0.0,0.0,0.0,0.0,0.0,0.0,0.0,0.0,0.0,0.0,0.0,0.0,0.0,0.0,0.0,0.0,0.0,0.0,0.0,0.0,0.0,0.0,0.0,0.0,0.0,0.0,0.0,0.0,0.0,0.0,0.0,0.0,0.0,0.0,0.0,0.0,0.0,0.0,0.0,0.0,0.0,0.0,0.0,0.0,0.0,0.0,0.0,0.0,0.0,0.0,0.0,0.0,0.0,0.0,0.0,0.0,0.0,0.0,0.0,0.0,0.0,0.0,0.0,0.0,0.0,0.0,0.0,0.0,0.0,0.0,0.0,0.0,0.0,0.0,0.0,0.0,0.0,0.0,0.0,0.0,0.0,0.0,0.0,0.0,0.0,0.0,0.0,0.0,0.0,0.0,0.0,0.0,0.0,0.0,0.0,0.0,0.0,0.0,0.0,0.0,0.0,0.0,-0.3585,-0.5989,-0.536,-0.133,-0.1643,-0.1845,0.0,0.0,0.0,0.0,0.0,0.0,0.0,0.0,0.0,0.0,0.0,0.0,0.0,0.0,0.0,0.0,0.0,0.0,0.0,0.0,0.0,0.0,0.0,0.0,0.0,0.0,0.0,0.0,0.0,0.0,0.0,0.0,0.0,0.0,0.0,0.0,0.0,0.0,0.0,0.0,0.0,0.0,0.0,0.0,0.0,0.0,0.0,0.0,0.0,0.0,0.0,0.0,0.0,0.0,0.0,0.0,0.0,0.0,0.0,0.0,0.0,0.0,0.0,0.0,0.0,0.0,0.0,0.0,0.0,0.0,0.0,0.0,0.0,0.0,0.0,0.0,0.0,0.0,0.0,0.0,0.0,0.0,0.0,0.0,0.0,0.0,0.0,0.0,0.0,0.0,0.0,0.0,0.0,0.0,0.0,0.0,0.0,0.0,0.0,0.0,0.0,0.0,0.0,0.0,0.0,0.0,0.0,0.0,0.0,0.0475,0.0767,0.1577,0.2904,0.181,0.1623,0.0,0.0,0.0,0.0,0.0,0.0,0.0,0.0,0.0,0.0,0.0,0.0,0.0,0.0,0.0,0.0,0.0,0.0,0.0,0.0,0.0,0.0,0.0,0.0,0.0,0.0,0.0,0.0,0.0,0.0,0.0,0.0,0.0,0.0,0.0,0.0,0.0,0.0,0.0,0.0,0.0,0.0,0.0,0.0,0.0,0.0,0.0,0.0,0.0,0.0,0.0,0.0,0.0,0.0,0.0,0.0,0.0,0.0,0.0,0.0,0.0,0.0,0.0,0.0,0.0,0.0,0.0,0.0,0.0,0.0,0.0,0.0,0.0,0.0,0.0,0.0,0.0,0.0,0.0,0.0,0.0,0.0,0.0,0.0,0.0,0.0,0.0,0.0,0.0,0.0,0.0,0.0,0.0,0.0,0.0,0.0,0.0,0.0,0.0,0.0,0.0,0.0,0.0,0.0,0.0,0.0,0.0,0.0,0.0,1.0152,0.7956,0.7047,0.7793,0.5809,0.4748,0.4725,0.0,0.0,0.0,0.0,0.0,0.0,0.0,0.0,0.0,0.0,0.0,0.0,0.0,0.0,0.0,0.0,0.0,0.0,0.0,0.0,0.0,0.0,0.0,0.0,0.0,0.0,0.0,0.0,0.0,0.0,0.0,0.0,0.0,0.0,0.0,0.0,0.0,0.0,0.0,0.0,0.0,0.0,0.0,0.0,0.0,0.0,0.0,0.0,0.0,0.0,0.0,0.0,0.0,0.0,0.0,0.0,0.0,0.0,0.0,0.0,0.0,0.0,0.0,0.0,0.0,0.0,0.0,0.0,0.0,0.0,0.0,0.0,0.0,0.0,0.0,0.0,0.0,0.0,0.0,0.0,0.0,0.0,0.0,0.0,0.0,0.0,0.0,0.0,0.0,0.0,0.0,0.0,0.0,0.0,0.0,0.0,0.0,0.0,0.0,0.0,0.0,0.0,0.0,0.0,0.0,0.0,0.0,0.0,1.6347,1.3329,1.1714,1.1794,1.0106,0.8625,0.0,0.0,0.0,0.0,0.0,0.0,0.0,0.0,0.0,0.0,0.0,0.0,0.0,0.0,0.0,0.0,0.0,0.0,0.0,0.0,0.0,0.0,0.0,0.0,0.0,0.0,0.0,0.0,0.0,0.0,0.0,0.0,0.0,0.0,0.0,0.0,0.0,0.0,0.0,0.0,0.0,0.0,0.0,0.0,0.0,0.0,0.0,0.0,0.0,0.0,0.0,0.0,0.0,0.0,0.0,0.0,0.0,0.0,0.0,0.0,0.0,0.0,0.0,0.0,0.0,0.0,0.0,0.0,0.0,0.0,0.0,0.0,0.0,0.0,0.0,0.0,0.0,0.0,0.0,0.0,0.0,0.0,0.0,0.0,0.0,0.0,0.0,0.0,0.0,0.0,0.0,0.0,0.0,0.0,0.0,0.0,0.0,0.0,0.0,0.0,0.0,0.0,0.0,0.0,0.0,0.0,0.0,0.0,1.9179,1.7575,1.6463,1.544,1.478,1.4285,1.3226,0.0,0.0,0.0,0.0,0.0,0.0,0.0,0.0,0.0,0.0,0.0,0.0,0.0,0.0,0.0,0.0,0.0,0.0,0.0,0.0,0.0,0.0,0.0,0.0,0.0,0.0,0.0,0.0,0.0,0.0,0.0,0.0,0.0,0.0,0.0,0.0,0.0,0.0,0.0,0.0,0.0,0.0,0.0,0.0,0.0,0.0,0.0,0.0,0.0,0.0,0.0,0.0,0.0,0.0,0.0,0.0,0.0,0.0,0.0,0.0,0.0,0.0,0.0,0.0,0.0,0.0,0.0,0.0,0.0,0.0,0.0,0.0,0.0,0.0,0.0,0.0,0.0,0.0,0.0,0.0,0.0,0.0,0.0,0.0,0.0,0.0,0.0,0.0,0.0,0.0,0.0,0.0,0.0,0.0,0.0,0.0,0.0,0.0,0.0,0.0,0.0,0.0,0.0,0.0,0.0,0.0,0.0,0.0,0.0,2.2056,0.0,1.8185,0.0,1.5639,1.3921,0.0,0.0,0.0,0.0,0.0,0.0,0.0,0.0,0.0,0.0,0.0,0.0,0.0,0.0,0.0,0.0,0.0,0.0,0.0,0.0,0.0,0.0,0.0,0.0,0.0,0.0,0.0,0.0,0.0,0.0,0.0,0.0,0.0,0.0,0.0,0.0,0.0,0.0,0.0,0.0,0.0,0.0,0.0,0.0,0.0,0.0,0.0,0.0,0.0,0.0,0.0,0.0,0.0,0.0,0.0,0.0,0.0,0.0,0.0,0.0,0.0,0.0,0.0,0.0,0.0,0.0,0.0,0.0,0.0,0.0,0.0,0.0,0.0,0.0,0.0,0.0,0.0,0.0,0.0,0.0,0.0,0.0,0.0,0.0,0.0,0.0,0.0,0.0,0.0,0.0,0.0,0.0,0.0,0.0,0.0,0.0,0.0,0.0,0.0,0.0,0.0,0.0,0.0,0.0,0.0,0.0,0.0,0.0,0.0,2.4781,2.3022,2.1277,1.9729,1.7522,1.5663,0.0,0.0,0.0,0.0,0.0,0.0,0.0,0.0,0.0,0.0,0.0,0.0,0.0,0.0,0.0,0.0,0.0,0.0,0.0,0.0,0.0,0.0,0.0,0.0,0.0,0.0,0.0,0.0,0.0,0.0,0.0,0.0,0.0,0.0,0.0,0.0,0.0,0.0,0.0,0.0,0.0,0.0,0.0,0.0,0.0,0.0,0.0,0.0,0.0,0.0,0.0,0.0,0.0,0.0,0.0,0.0,0.0,0.0,0.0,0.0,0.0,0.0,0.0,0.0,0.0,0.0,0.0,0.0,0.0,0.0,0.0,0.0,0.0,0.0,0.0,0.0,0.0,0.0,0.0,0.0,0.0,0.0,0.0,0.0,0.0,0.0,0.0,0.0,0.0,0.0,0.0,0.0,0.0,0.0,0.0,0.0,0.0,0.0,0.0,0.0,0.0,0.0,0.0,0.0,0.0,0.0,0.0,0.0,0.0,0.0,2.6086,2.4742,2.1905,2.0095,1.8323,0.0,0.0,0.0,0.0,0.0,0.0,0.0,0.0,0.0,0.0,0.0,0.0,0.0,0.0,0.0,0.0,0.0,0.0,0.0,0.0,0.0,0.0,0.0,0.0,0.0,0.0,0.0,0.0,0.0,0.0,0.0,0.0,0.0,0.0,0.0,0.0,0.0,0.0,0.0,0.0,0.0,0.0,0.0,0.0,0.0,0.0,0.0,0.0,0.0,0.0,0.0,0.0,0.0,0.0,0.0,0.0,0.0,0.0,0.0,0.0,0.0,0.0,0.0,0.0,0.0,0.0,0.0,0.0,0.0,0.0,0.0,0.0,0.0,0.0,0.0,0.0,0.0,0.0,0.0,0.0,0.0,0.0,0.0,0.0,0.0,0.0,0.0,0.0,0.0,0.0,0.0,0.0,0.0,0.0,0.0,0.0,0.0,0.0,0.0,0.0,0.0,0.0,0.0,0.0,0.0,0.0,0.0,0.0,0.0,0.0,2.7882,0.0,2.5107,2.2474,1.9903,1.7551,0.0,0.0,0.0,0.0,0.0,0.0,0.0,0.0,0.0,0.0,0.0,0.0,0.0,0.0,0.0,0.0,0.0,0.0,0.0,0.0,0.0,0.0,0.0,0.0,0.0,0.0,0.0,0.0,0.0,0.0,0.0,0.0,0.0,0.0,0.0,0.0,0.0,0.0,0.0,0.0,0.0,0.0,0.0,0.0,0.0,0.0,0.0,0.0,0.0,0.0,0.0,0.0,0.0,0.0,0.0,0.0,0.0,0.0,0.0,0.0,0.0,0.0,0.0,0.0,0.0,0.0,0.0,0.0,0.0,0.0,0.0,0.0,0.0,0.0,0.0,0.0,0.0,0.0,0.0,0.0,0.0,0.0,0.0,0.0,0.0,0.0,0.0,0.0,0.0,0.0,0.0,0.0,0.0,0.0,0.0,0.0,0.0,0.0,0.0,0.0,0.0,0.0,0.0,0.0,0.0,0.0,0.0,0.0,0.0,0.0,0.0,2.6552,2.4868,2.2525,0.0,0.0,0.0,0.0,0.0,0.0,0.0,0.0,0.0,0.0,0.0,0.0,0.0,0.0,0.0,0.0,0.0,0.0,0.0,0.0,0.0,0.0,0.0,0.0,0.0,0.0,0.0,0.0,0.0,0.0,0.0,0.0,0.0,0.0,0.0,0.0,0.0,0.0,0.0,0.0,0.0,0.0,0.0,0.0,0.0,0.0,0.0,0.0,0.0,0.0,0.0,0.0,0.0,0.0,0.0,0.0,0.0,0.0,0.0,0.0,0.0,0.0,0.0,0.0,0.0,0.0,0.0,0.0,0.0,0.0,0.0,0.0,0.0,0.0,0.0,0.0,0.0,0.0,0.0,0.0,0.0,0.0,0.0,0.0,0.0,0.0,0.0,0.0,0.0,0.0,0.0,0.0,0.0,0.0,0.0,0.0,0.0,0.0,0.0,0.0,0.0,0.0,0.0,0.0,0.0,0.0,0.0,0.0,0.0,0.0,0.0,2.8744,2.6988,2.6827,0.0,2.2389,0.0,0.0,0.0,0.0,0.0,0.0,0.0,0.0,0.0,0.0,0.0,0.0,0.0,0.0,0.0,0.0,0.0,0.0,0.0,0.0,0.0,0.0,0.0,0.0,0.0,0.0,0.0,0.0,0.0,0.0,0.0,0.0,0.0,0.0,0.0,0.0,0.0,0.0,0.0,0.0,0.0,0.0,0.0,0.0,0.0,0.0,0.0,0.0,0.0,0.0,0.0,0.0,0.0,0.0,0.0,0.0,0.0,0.0,0.0,0.0,0.0,0.0,0.0,0.0,0.0,0.0,0.0,0.0,0.0,0.0,0.0,0.0,0.0,0.0,0.0,0.0,0.0,0.0,0.0,0.0,0.0,0.0,0.0,0.0,0.0,0.0,0.0,0.0,0.0,0.0,0.0,0.0,0.0,0.0,0.0,0.0,0.0,0.0,0.0,0.0,0.0,0.0,0.0,0.0,0.0,0.0,0.0,0.0,0.0,0.0,0.0,0.0,2.6697,2.4971,2.4196,0.0,0.0,0.0,0.0,0.0,0.0,0.0,0.0,0.0,0.0,0.0,0.0,0.0,0.0,0.0,0.0,0.0,0.0,0.0,0.0,0.0,0.0,0.0,0.0,0.0,0.0,0.0,0.0,0.0,0.0,0.0,0.0,0.0,0.0,0.0,0.0,0.0,0.0,0.0,0.0,0.0,0.0,0.0,0.0,0.0,0.0,0.0,0.0,0.0,0.0,0.0,0.0,0.0,0.0,0.0,0.0,0.0,0.0,0.0,0.0,0.0,0.0,0.0,0.0,0.0,0.0,0.0,0.0,0.0,0.0,0.0,0.0,0.0,0.0,0.0,0.0,0.0,0.0,0.0,0.0,0.0,0.0,0.0,0.0,0.0,0.0,0.0,0.0,0.0,0.0,0.0,0.0,0.0,0.0,0.0,0.0,0.0,0.0,0.0,0.0,0.0,0.0,0.0,0.0,0.0,0.0,0.0,0.0,0.0,0.0,3.0293,3.1002,2.7787,2.5699,2.4852,0.0,0.0,0.0,0.0,0.0,0.0,0.0,0.0,0.0,0.0,0.0,0.0,0.0,0.0,0.0,0.0,0.0,0.0,0.0,0.0,0.0,0.0,0.0,0.0,0.0,0.0,0.0,0.0,0.0,0.0,0.0,0.0,0.0,0.0,0.0,0.0,0.0,0.0,0.0,0.0,0.0,0.0,0.0,0.0,0.0,0.0,0.0,0.0,0.0,0.0,0.0,0.0,0.0,0.0,0.0,0.0,0.0,0.0,0.0,0.0,0.0,0.0,0.0,0.0,0.0,0.0,0.0,0.0,0.0,0.0,0.0,0.0,0.0,0.0,0.0,0.0,0.0,0.0,0.0,0.0,0.0,0.0,0.0,0.0,0.0,0.0,0.0,0.0,0.0,0.0,0.0,0.0,0.0,0.0,0.0,0.0,0.0,0.0,0.0,0.0,0.0,0.0,0.0,0.0,0.0,0.0,0.0,0.0,0.0,0.0,0.0,0.0,0.0,0.0,2.4966,0.0,0.0,0.0,0.0,0.0,0.0,0.0,0.0,0.0,0.0,0.0,0.0,0.0,0.0,0.0,0.0,0.0,0.0,0.0,0.0,0.0,0.0,0.0,0.0,0.0,0.0,0.0,0.0,0.0,0.0,0.0,0.0,0.0,0.0,0.0,0.0,0.0,0.0,0.0,0.0,0.0,0.0,0.0,0.0,0.0,0.0,0.0,0.0,0.0,0.0,0.0,0.0,0.0,0.0,0.0,0.0,0.0,0.0,0.0,0.0,0.0,0.0,0.0,0.0,0.0,0.0,0.0,0.0,0.0,0.0,0.0,0.0,0.0,0.0,0.0,0.0,0.0,0.0,0.0,0.0,0.0,0.0,0.0,0.0,0.0,0.0,0.0,0.0,0.0,0.0,0.0,0.0,0.0,0.0,0.0,0.0,0.0,0.0,0.0,0.0,0.0,0.0,0.0,0.0,0.0,0.0,0.0,0.0,0.0,0.0,0.0,0.0,0.0,0.0,0.0,0.0,0.0,0.0,0.0,0.0,0.0,0.0,0.0,0.0,0.0,0.0,0.0,0.0,0.0,0.0,0.0,0.0,0.0,0.0,0.0,0.0,0.0,0.0,0.0,0.0,0.0,0.0,0.0,0.0,0.0,0.0,0.0,0.0,0.0,0.0,0.0,0.0,0.0,0.0,0.0,0.0,0.0,0.0,0.0,0.0,0.0,0.0,0.0,0.0,0.0,0.0,0.0,0.0,0.0,0.0,0.0,0.0,0.0,0.0,0.0,0.0,0.0,0.0,0.0,0.0,0.0,0.0,0.0,0.0,0.0,0.0,0.0,0.0,0.0,0.0,0.0,0.0,0.0,0.0,0.0,0.0,0.0,0.0,0.0,0.0,0.0,0.0,0.0,0.0,0.0,0.0,0.0,0.0,0.0,0.0,0.0,0.0,0.0,0.0,0.0,0.0,0.0,0.0,0.0,0.0,0.0,0.0,0.0,0.0,0.0,0.0,0.0,0.0,0.0,0.0,0.0,0.0,0.0,0.0,0.0,0.0,0.0,0.0,0.0,0.0,0.0,0.0,0.0,0.0,0.0,0.0,0.0,0.0,0.0,0.0,0.0,0.0,0.0,0.0,0.0,0.0,0.0,0.0,0.0,0.0,0.0,0.0,0.0,0.0,0.0,0.0,0.0,0.0,0.0,0.0,0.0,0.0,0.0,0.0,0.0,0.0,0.0,0.0,0.0,0.0,0.0,0.0,0.0,0.0,0.0,0.0,0.0,0.0,0.0,0.0,0.0,0.0,0.0,0.0,0.0,0.0,0.0,0.0,0.0,0.0,0.0,0.0,0.0,0.0,0.0,0.0,0.0,0.0,0.0,0.0,0.0,0.0,0.0,0.0,0.0,0.0,0.0,0.0,0.0,0.0,0.0,0.0,0.0,0.0,0.0,0.0,0.0,0.0,0.0,0.0,0.0,0.0,0.0,0.0,0.0,0.0,0.0,0.0,0.0,0.0,0.0,0.0,0.0,0.0,0.0,0.0,0.0,0.0,0.0,0.0,0.0,0.0,0.0,0.0,0.0,0.0,0.0,0.0,0.0,0.0,0.0,0.0,0.0,0.0,0.0,0.0,0.0,0.0,0.0,0.0,0.0,0.0,0.0,0.0,0.0,0.0,0.0,0.0,0.0,0.0,0.0,0.0,0.0,0.0,0.0,0.0,0.0,0.0,0.0,0.0,0.0,0.0,0.0,0.0,0.0,0.0,0.0,0.0,0.0,0.0,0.0,0.0,0.0,0.0,0.0,0.0,0.0,0.0,0.0,0.0,0.0,0.0,0.0,0.0,0.0,0.0,0.0,0.0,0.0,0.0,0.0,0.0,0.0,0.0,0.0,0.0,0.0,0.0,0.0,0.0,0.0,0.0,0.0,0.0,0.0,0.0,0.0,0.0,0.0,0.0,0.0,0.0,0.0,0.0,0.0,0.0,0.0,0.0,0.0,0.0,0.0,0.0,0.0,0.0,0.0,0.0,0.0,0.0,0.0,0.0,0.0,0.0,0.0,0.0,0.0,0.0,0.0,0.0,0.0,0.0,0.0,0.0,0.0,0.0,0.0,0.0,0.0,0.0,0.0,0.0,0.0,0.0,0.0,0.0,0.0,0.0,0.0,0.0,0.0,0.0,0.0,0.0,0.0,0.0,0.0,0.0,0.0,0.0,0.0,0.0,0.0,0.0,0.0,0.0,0.0,0.0,0.0,0.0,0.0,0.0,0.0,0.0,0.0,0.0,0.0,0.0,0.0,0.0,0.0,0.0,0.0,0.0,0.0,0.0,0.0,0.0,0.0,0.0,0.0,0.0,0.0,0.0,0.0,0.0,0.0,0.0,0.0,0.0,0.0,0.0,0.0,0.0,0.0,0.0,0.0,0.0,0.0,0.0,0.0,0.0,0.0,0.0,0.0,0.0,0.0,0.0,0.0,0.0,0.0,0.0,0.0,0.0,0.0,0.0,0.0,0.0,0.0,0.0,0.0,0.0,0.0,0.0,0.0,0.0,0.0,0.0,0.0,0.0,0.0,0.0,0.0,0.0,0.0,0.0,0.0,0.0,0.0,0.0,0.0,0.0,0.0,0.0,0.0,0.0,0.0,0.0,0.0,0.0,0.0,0.0,0.0,0.0,0.0,0.0,0.0,0.0,0.0,0.0,0.0,0.0,0.0,0.0,0.0,0.0,0.0,0.0,0.0,0.0,0.0,0.0,0.0,0.0,0.0,0.0,0.0,0.0,0.0,0.0,0.0,0.0,0.0,0.0,0.0,0.0,0.0,0.0,0.0,0.0,0.0,0.0,0.0,0.0,0.0,0.0,0.0,0.0,0.0,0.0,0.0,0.0,0.0,0.0,0.0,0.0,0.0,0.0,0.0,0.0,0.0,0.0,0.0,0.0,0.0,0.0,0.0,0.0,0.0,0.0,0.0,0.0,0.0,0.0,0.0,0.0,0.0,0.0,0.0,0.0,0.0,0.0,0.0,0.0,0.0,0.0,0.0,0.0,0.0,0.0,0.0,0.0,0.0,0.0,0.0,0.0,0.0,0.0,0.0,0.0,0.0,0.0,0.0,0.0,0.0,0.0,0.0,0.0,0.0,0.0,0.0,0.0,0.0,0.0,0.0,0.0,0.0,0.0,0.0,0.0,0.0,0.0,0.0,0.0,0.0,0.0,0.0,0.0,0.0,0.0,0.0,0.0,0.0,0.0,0.0,0.0,0.0,0.0,0.0,0.0,0.0,0.0,0.0,0.0,0.0,0.0,0.0,0.0,0.0,0.0,0.0,0.0,0.0,0.0,0.0,0.0,0.0,0.0,0.0,0.0,0.0,0.0,0.0,0.0,0.0,0.0,0.0,0.0,0.0,0.0,0.0,0.0,0.0,0.0,0.0,0.0,0.0,0.0,0.0,0.0,0.0,0.0,0.0,0.0,0.0,0.0,0.0,0.0,0.0,0.0,0.0,0.0,0.0,0.0,0.0,0.0,0.0,0.0,0.0,0.0,0.0,0.0,0.0,0.0,0.0,0.0,0.0,0.0,0.0,0.0,0.0,0.0,0.0,0.0,0.0,0.0,0.0,0.0,0.0,0.0,0.0,0.0,0.0,0.0,0.0,0.0,0.0,0.0,0.0,0.0,0.0,0.0,0.0,0.0,0.0,0.0,0.0,0.0,0.0,0.0,0.0,0.0,0.0,0.0,0.0,0.0,0.0,0.0,0.0,0.0,0.0,0.0,0.0,0.0,0.0,0.0,0.0,0.0,0.0,0.0,0.0,0.0,0.0,0.0,0.0,0.0,0.0,0.0,0.0,0.0,0.0,0.0,0.0,0.0,0.0,0.0,0.0,0.0,0.0,0.0,0.0,0.0,0.0,0.0,0.0,0.0,0.0,0.0,0.0,0.0,0.0,0.0,0.0,0.0,0.0,0.0,0.0,0.0,0.0,0.0,0.0,0.0,0.0,0.0,0.0,0.0,0.0,0.0,0.0,0.0,0.0,0.0,0.0,0.0,0.0,0.0,0.0,0.0,0.0,0.0,0.0,0.0,0.0,0.0,0.0,0.0,0.0,0.0,0.0,0.0,0.0,0.0,0.0,0.0,0.0,0.0,0.0,0.0,0.0,0.0,0.0,0.0,0.0,0.0,0.0,0.0,0.0,0.0,0.0,0.0,0.0,0.0,0.0,0.0,0.0,0.0,0.0,0.0,0.0,0.0,0.0,0.0,0.0,0.0,0.0,0.0,0.0,0.0,0.0,0.0,0.0,0.0,0.0,0.0,0.0,0.0,0.0,0.0,0.0,0.0,0.0,0.0,0.0,0.0,0.0,0.0,0.0,0.0,0.0,0.0]}],[{"header":{"parameterUnit":"kt","parameterCategory":2,"dx":1,"dy":1,"la1":29.587661999999998,"la2":31.0,"lo1":-88.76705300000003,"lo2":-86.6583820000003,"nx":115,"ny":88,"refTime":"2022-10-04T00:00:00:Z","depth":0,"parameterNumber":2,"parameterNumberName":"V-component_of_WINDS"},"data":[2.0558,1.8362,1.5863,1.4531,1.4045,1.2419,1.1723,1.1523,1.0221,0.956,0.8904,0.7013,0.38,-0.0479,-0.205,-0.3038,-0.3725,-0.5138,-0.6149,-0.672,-0.7595,-0.8449,-0.9458,-1.0336,-1.1856,-1.3498,-1.511,-1.6247,-1.6634,-1.929,-2.1201,-2.1368,-2.5417,-2.7205,-2.7665,-2.9255,-3.0519,-3.1575,-3.2649,-3.3991,-3.6489,-3.832,-4.0852,-4.2322,-4.3538,-4.4403,-4.4991,-4.5099,-4.5765,-4.6728,-4.7703,-4.8099,-4.8174,-4.8012,-4.8611,-4.9449,-4.9971,-4.9677,-4.9758,-5.0219,-4.978,-4.9391,-4.9407,-5.0036,-5.156,-5.2495,-5.208,-5.1786,-5.2067,-5.1037,-5.0869,-5.1037,-5.1167,-5.156,-5.182,-5.3015,-5.4369,-5.4836,-5.4305,-5.271,-5.2031,-5.3366,-5.4159,-5.3989,-5.5138,-5.666,-5.6629,-5.6477,-5.6032,-5.4671,-5.3537,-5.3934,-5.4171,-5.4152,-5.4581,-5.362,-5.3454,-5.3872,-5.4291,-5.4556,-5.4708,-5.4784,-5.4974,-5.5352,-5.6341,-5.706,-5.7745,-5.729,-5.7897,-5.7479,-5.8732,-5.9264,-5.8618,-5.7621,-5.7115,1.6697,1.5973,1.4446,1.3446,1.2526,1.0884,0.9839,0.9057,0.772,0.6823,0.5643,0.1435,-0.1457,-0.3226,-0.4434,-0.5169,-0.6048,-0.7355,-0.7953,-0.862,-0.9688,-1.0544,-1.1391,-1.244,-1.3479,-1.5086,-1.6714,-1.7581,-1.854,-2.1289,-2.3211,-2.341,-2.5318,-2.7655,-2.8344,-2.9967,-3.204,-3.307,-3.4248,-3.5727,-3.7038,-3.8565,-4.0616,-4.2154,-4.3352,-4.4174,-4.4902,-4.5315,-4.559,-4.662,-4.7729,-4.7779,-4.755,-4.7269,-4.8189,-4.8819,-4.9288,-4.964,-4.9802,-5.0024,-4.9669,-4.9305,-4.9048,-4.9918,-5.1787,-5.2262,-5.1728,-5.195,-5.2917,-5.2941,-5.2903,-5.2927,-5.2964,-5.3136,-5.3256,-5.3711,-5.5136,-5.6417,-5.4654,-5.2584,-5.3489,-5.5235,-5.489,-5.3636,-5.4956,-5.7216,-5.7893,-5.7804,-5.7138,-5.5314,-5.417,-5.4179,-5.4053,-5.4094,-5.4409,-5.416,-5.4052,-5.4254,-5.3875,-5.4709,-5.5436,-5.6103,-5.6387,-5.6235,-5.5624,-5.5847,-5.6496,-5.7512,-5.6618,-5.5714,-5.6625,-5.7119,-5.6672,-5.6742,-5.6824,1.5275,1.4345,1.2073,1.0371,0.9227,0.7926,0.6825,0.5994,0.5024,0.3559,0.1262,-0.1652,-0.4202,-0.5607,-0.6774,-0.7572,-0.8577,-0.9182,-0.9575,-1.042,-1.1419,-1.2349,-1.3336,-1.4314,-1.5312,-1.6485,-1.8018,-1.955,-2.1259,-2.3577,-2.5368,-2.6104,-2.8474,-3.0306,-3.0465,-3.189,-3.3439,-3.4189,-3.5146,-3.6221,-3.718,-3.8707,-4.0434,-4.1703,-4.2984,-4.4401,-4.4975,-4.5232,-4.58,-4.6899,-4.6488,-4.6188,-4.6327,-4.6226,-4.642,-4.7144,-4.8063,-4.837,-4.8455,-4.8713,-4.8987,-4.9189,-4.9134,-4.8999,-5.0924,-5.0364,-4.9874,-5.0246,-5.123,-5.1555,-5.1555,-5.1753,-5.1779,-5.1904,-5.2028,-5.2449,-5.3657,-5.5031,-5.4465,-5.3053,-5.4096,-5.5627,-5.5536,-5.4295,-5.4527,-5.6772,-5.8388,-5.8351,-5.6999,-5.5327,-5.5077,-5.4861,-5.4472,-5.439,-5.4783,-5.4847,-5.4468,-5.3765,-5.3187,-5.4328,-5.5713,-5.6885,-5.7861,-5.7908,-5.7472,-5.6253,-5.5827,-5.6959,-5.646,-5.5258,-5.5202,-5.5398,-5.5144,-5.5197,-5.7057,1.3101,1.2022,0.9164,0.7268,0.6229,0.5173,0.4304,0.3308,0.2323,0.011,-0.2454,-0.4191,-0.601,-0.773,-0.875,-0.945,-1.0444,-1.0952,-1.1344,-1.2075,-1.3391,-1.4161,-1.4705,-1.5914,-1.7165,-1.8227,-1.9063,-1.9994,-2.1814,-2.4527,-2.6932,-2.7064,-2.9468,-3.0589,-3.0741,-3.204,-3.3387,-3.415,-3.5599,-3.7178,-3.7974,-3.9233,-4.0498,-4.1735,-4.2616,-4.4174,-4.5132,-4.5298,-4.6034,-4.6746,-4.506,-4.4746,-4.5039,-4.5303,-4.5527,-4.5945,-4.7606,-4.7957,-4.8193,-4.8519,-4.8425,-4.8635,-4.8643,-4.8872,-4.8743,-4.799,-4.7779,-4.8169,-4.8519,-4.8747,-4.897,-4.9214,-4.9419,-4.9637,-4.9827,-5.0543,-5.1286,-5.2523,-5.3759,-5.4076,-5.4629,-5.5223,-5.5606,-5.5381,-5.5132,-5.603,-5.7794,-5.7607,-5.6021,-5.5265,-5.4821,-5.4934,-5.4631,-5.4719,-5.5375,-5.5363,-5.4127,-5.3283,-5.4617,-5.5276,-5.5781,-5.5302,-5.466,-5.6794,-5.8537,-5.6672,-5.578,-5.6577,-5.6318,-5.5337,-5.5088,-5.5683,-5.5488,-5.6976,-5.8747,0.7926,0.8146,0.6352,0.5043,0.4041,0.3493,0.2697,0.1662,-0.0913,-0.3337,-0.5291,-0.639,-0.7868,-0.9258,-1.0138,-1.0633,-1.1054,-1.2091,-1.2476,-1.3244,-1.4721,-1.5666,-1.6172,-1.734,-1.8596,-1.9031,-1.9685,-2.1042,-2.1926,-2.4353,-2.6569,-2.5099,-2.8582,-3.048,-3.0809,-3.1923,-3.337,-3.4608,-3.6433,-3.7835,-3.876,-3.947,-4.0483,-4.221,-4.3073,-4.3836,-4.4997,-4.56,-4.5706,-4.6328,-4.6477,-4.6752,-4.7712,-4.8485,-4.8279,-4.8659,-4.852,-4.8522,-4.8606,-4.8448,-4.8046,-4.7625,-4.7382,-4.8352,-4.8713,-4.8272,-4.7299,-4.7306,-4.7994,-4.8279,-4.8513,-4.8769,-4.8753,-4.8821,-4.9105,-4.9616,-5.0185,-5.089,-5.1867,-5.2298,-5.3024,-5.439,-5.4775,-5.4962,-5.4545,-5.6173,-5.6978,-5.5815,-5.4841,-5.4524,-5.4583,-5.4912,-5.455,-5.4465,-5.5103,-5.4822,-5.3637,-5.4907,-5.6891,-5.7692,-5.7165,-5.4836,-5.2005,-5.4639,-5.7594,-5.6181,-5.5595,-5.5611,-5.5567,-5.5036,-5.5313,-5.5965,-5.779,-5.9889,-6.1206,0.6123,0.609,0.473,0.3555,0.2412,0.0876,-0.0243,-0.1289,-0.3919,-0.512,-0.577,-0.7344,-0.862,-0.9721,-1.0577,-1.1103,-1.1292,-1.2368,-1.3292,-1.4101,-1.5352,-1.6511,-1.7794,-1.8926,-1.9877,-2.1006,-2.1753,-2.2339,-2.5217,-2.7032,-2.7737,-2.7599,-2.957,-3.11,-3.1832,-3.2607,-3.3983,-3.5365,-3.6633,-3.7605,-3.7627,-3.7485,-3.8409,-3.9599,-4.1111,-4.2424,-4.3836,-4.5312,-4.5642,-4.6109,-4.6182,-4.6223,-4.5926,-4.652,-4.6288,-4.7378,-4.7975,-4.866,-4.8821,-4.8432,-4.7766,-4.7455,-4.7691,-4.8011,-4.797,-4.8005,-4.7258,-4.6981,-4.7578,-4.8098,-4.8318,-4.8556,-4.8415,-4.8292,-4.861,-4.8921,-4.9342,-4.9701,-5.0088,-5.0508,-5.1541,-5.3018,-5.3755,-5.4038,-5.4401,-5.4275,-5.3639,-5.3676,-5.4396,-5.3918,-5.3884,-5.4305,-5.4179,-5.4382,-5.4218,-5.4172,-5.534,-5.7352,-5.8688,-5.8632,-5.8612,-5.7148,-5.5797,-5.6192,-5.6999,-5.6698,-5.6529,-5.5983,-5.5775,-5.5262,-5.5423,-5.7936,-6.0791,-6.2472,-6.2643,0.4266,0.4285,0.3062,0.2025,0.1007,-0.1342,-0.3043,-0.4033,-0.5944,-0.6886,-0.6354,-0.8074,-0.9032,-0.9682,-1.0665,-1.1338,-1.209,-1.2798,-1.3861,-1.53,-1.7247,-1.8132,-1.9026,-1.9891,-2.0917,-2.1724,-2.2577,-2.3542,-2.5923,-2.7382,-2.7975,-2.8951,-2.9496,-3.106,-3.2331,-3.3707,-3.473,-3.5714,-3.6537,-3.7591,-3.7969,-3.7917,-3.8452,-3.9657,-4.1119,-4.2119,-4.361,-4.4889,-4.5661,-4.5857,-4.5764,-4.5762,-4.4471,-4.414,-4.4639,-4.5749,-4.6951,-4.814,-4.8484,-4.7812,-4.7266,-4.7376,-4.7643,-4.7167,-4.6788,-4.6635,-4.6629,-4.7379,-4.8204,-4.832,-4.8489,-4.8713,-4.8745,-4.8767,-4.9065,-4.9658,-5.0517,-5.0717,-5.0495,-5.0744,-5.031,-5.1534,-5.173,-5.2224,-5.2815,-5.1075,-5.1027,-5.3129,-5.3996,-5.3067,-5.2904,-5.3386,-5.3685,-5.4813,-5.4689,-5.5394,-5.7553,-5.908,-5.9022,-5.8938,-5.8868,-5.8889,-5.8997,-5.8772,-5.8211,-5.7819,-5.754,-5.7652,-5.7727,-5.6999,-5.7487,-6.0779,-6.3483,-6.4232,-6.4569,0.1909,0.2343,0.0784,0.013,-0.0388,-0.2963,-0.5171,-0.6762,-0.7004,-0.7643,-0.8569,-0.8687,-0.9654,-1.0598,-1.1345,-1.2309,-1.3465,-1.5321,-1.6539,-1.7974,-1.8625,-1.9763,-2.0365,-2.068,-2.159,-2.1648,-2.2517,-2.4287,-2.3505,-2.6164,-2.7195,-2.7323,-2.8608,-3.0116,-3.1262,-3.2484,-3.3909,-3.5647,-3.6609,-3.7342,-3.806,-3.854,-3.8606,-3.9596,-4.1094,-4.226,-4.3216,-4.4719,-4.5606,-4.574,-4.5372,-4.6074,-4.5899,-4.4999,-4.592,-4.6824,-4.7604,-4.8395,-4.8828,-4.8276,-4.7748,-4.7362,-4.7304,-4.7873,-4.7584,-4.6708,-4.6923,-4.7738,-4.7861,-4.8127,-4.8421,-4.8516,-4.8602,-4.8857,-4.9105,-4.9888,-5.086,-5.1061,-5.0774,-5.038,-4.9888,-4.9848,-5.0137,-5.1175,-5.2152,-5.099,-5.1223,-5.2841,-5.2062,-5.1278,-5.2919,-5.34,-5.4573,-5.5489,-5.6488,-5.7465,-5.8982,-5.8933,-5.897,-5.8981,-5.9028,-5.9014,-5.9014,-5.9014,-5.9052,-5.9261,-5.9269,-5.9403,-5.9643,-6.0466,-6.0923,-6.3698,-6.6116,-6.6615,-6.6627,0.0385,0.0382,-0.0255,-0.1385,-0.2971,-0.4644,-0.6194,-0.7572,-0.8833,-0.9007,-0.9016,-1.0024,-1.109,-1.2153,-1.3082,-1.4005,-1.5331,-1.6243,-1.7142,-1.8472,-1.918,-2.0415,-2.1563,-2.2217,-2.2713,-2.4945,-2.5827,-2.6361,-2.6829,-2.7867,-2.8113,-2.8166,-2.8547,-2.9765,-3.1806,-3.3279,-3.4763,-3.5863,-3.6505,-3.6913,-3.718,-3.7259,-3.6953,-3.8152,-3.9794,-4.1534,-4.226,-4.381,-4.5864,-4.5777,-4.5706,-4.574,-4.54,-4.5059,-4.5638,-4.7118,-4.8201,-4.9096,-4.9764,-4.9433,-4.821,-4.7555,-4.6151,-4.6749,-4.7898,-4.6766,-4.7132,-4.7107,-4.6759,-4.6673,-4.6706,-4.7215,-4.734,-4.7525,-4.7851,-4.8375,-4.9156,-4.9425,-4.925,-4.9009,-4.8638,-4.8784,-4.9036,-5.0358,-5.189,-5.1689,-5.1415,-5.0438,-4.9725,-5.1724,-5.3694,-5.4977,-5.6194,-5.6541,-5.7424,-5.8648,-5.8851,-5.884,-5.883,-5.8781,-5.887,-5.9119,-5.8946,-5.8871,-5.9989,-6.0784,-6.092,-6.1467,-6.2164,-6.2963,-6.3898,-6.5879,-6.8336,-6.8597,-6.8197,-0.1158,-0.1755,-0.2151,-0.3617,-0.5744,-0.6614,-0.7661,-0.8731,-0.9882,-1.0192,-0.9968,-1.0666,-1.2038,-1.314,-1.3983,-1.5118,-1.6601,-1.7082,-1.7868,-1.9076,-1.951,-2.0807,-2.1605,-2.2532,-2.3783,-2.5684,-2.7445,-2.7922,-2.9277,-2.9464,-2.9512,-2.9378,-2.8911,-3.0116,-3.217,-3.4075,-3.5814,-3.6728,-3.6758,-3.6648,-3.6581,-3.6097,-3.6034,-3.6975,-3.93,-4.0923,-4.187,-4.435,-4.5693,-4.5835,-4.5806,-4.5735,-4.5423,-4.5319,-4.5599,-4.6403,-4.8641,-4.9293,-4.9041,-4.9464,-4.8509,-4.7656,-4.6477,-4.6479,-4.6851,-4.612,-4.6108,-4.5945,-4.6035,-4.5921,-4.5713,-4.6166,-4.6839,-4.6967,-4.7266,-4.7743,-4.8238,-4.8401,-4.8124,-4.7967,-4.8206,-4.8489,-4.8589,-4.959,-5.1629,-5.2089,-5.2587,-5.1657,-5.2306,-5.4209,-5.4888,-5.6362,-5.7203,-5.7472,-5.7811,-5.8424,-5.874,-5.8657,-5.8583,-5.8722,-5.8962,-5.918,-5.9566,-6.0823,-6.1607,-6.2304,-6.2428,-6.2776,-6.4047,-6.5281,-6.629,-6.7898,-6.847,-6.8443,-6.8406,-0.2942,-0.3637,-0.4748,-0.6509,-0.8496,-0.8715,-0.9435,-1.0304,-1.0782,-1.1031,-1.1384,-1.1682,-1.2655,-1.3811,-1.4868,-1.6261,-1.7911,-1.8706,-1.9484,-2.0449,-2.0691,-2.0776,-2.1754,-2.296,-2.459,-2.4056,-2.6177,-2.8106,-2.8106,-2.9257,-2.9417,-2.9141,-2.9721,-3.0465,-3.0921,-3.2578,-3.424,-3.5717,-3.5983,-3.6728,-3.7094,-3.6607,-3.6923,-3.774,-3.9244,-4.0646,-4.198,-4.4206,-4.5377,-4.5693,-4.5864,-4.5777,-4.5769,-4.5711,-4.571,-4.5744,-4.8265,-4.8216,-4.6043,-4.6332,-4.6706,-4.6695,-4.6687,-4.677,-4.5429,-4.5667,-4.6946,-4.5787,-4.589,-4.59,-4.5678,-4.5836,-4.6751,-4.7239,-4.7543,-4.794,-4.8584,-4.8924,-4.803,-4.7522,-4.8064,-4.8673,-4.8683,-4.9428,-5.1797,-5.329,-5.3791,-5.4858,-5.6153,-5.6915,-5.6411,-5.7325,-5.7767,-5.7935,-5.7996,-5.8456,-5.8589,-5.8441,-5.8535,-5.8934,-5.9241,-6.0123,-6.145,-6.2826,-6.32,-6.2924,-6.3386,-6.391,-6.4607,-6.5413,-6.7221,-6.7557,-6.7764,-6.7586,-6.6962,-0.4025,-0.5246,-0.5664,-0.7532,-1.0078,-1.0444,-1.0765,-1.1103,-1.1257,-1.1696,-1.2845,-1.4277,-1.5592,-1.6552,-1.7165,-1.8407,-1.9389,-1.9971,-2.0901,-2.16,-2.2405,-2.3645,-2.4983,-2.5968,-2.6235,-2.7885,-2.9071,-2.9127,-2.8977,-2.9416,-2.9398,-2.9781,-3.1128,-3.2618,-3.3901,-3.5522,-3.6005,-3.5917,-3.5735,-3.6126,-3.5849,-3.568,-3.6065,-3.6556,-3.7937,-3.957,-4.1534,-4.3244,-4.4577,-4.5519,-4.5864,-4.5864,-4.5864,-4.589,-4.6211,-4.6899,-4.7719,-4.81,-4.6682,-4.5692,-4.4599,-4.5938,-4.627,-4.7266,-4.8427,-4.8703,-4.7381,-4.611,-4.6357,-4.6499,-4.5668,-4.5766,-4.6463,-4.6673,-4.7048,-4.7274,-4.7887,-4.8786,-4.7946,-4.7311,-4.8669,-4.9725,-5.0158,-5.1487,-5.3719,-5.5349,-5.5748,-5.6563,-5.774,-5.7597,-5.7377,-5.7671,-5.8038,-5.8034,-5.8135,-5.8267,-5.8365,-5.8254,-5.8402,-5.8936,-6.0128,-6.187,-6.3183,-6.3199,-6.3207,-6.3478,-6.3766,-6.4165,-6.4846,-6.5527,-6.52,-6.5052,-6.547,-6.6541,-6.5805,-0.5922,-0.7101,-0.7751,-0.9484,-1.1911,-1.2001,-1.2478,-1.2932,-1.2973,-1.3658,-1.4463,-1.5755,-1.7025,-1.7927,-1.8718,-1.939,-2.0542,-2.0577,-2.1642,-2.2649,-2.3296,-2.4591,-2.6177,-2.7209,-2.8161,-2.8529,-2.9442,-2.9756,-2.9726,-3.0319,-2.9735,-2.9393,-3.018,-3.2739,-3.4442,-3.4951,-3.6103,-3.6324,-3.6814,-3.6581,-3.5994,-3.57,-3.5751,-3.6028,-3.7424,-3.8722,-4.1117,-4.2541,-4.4066,-4.5348,-4.5835,-4.5864,-4.5864,-4.5864,-4.5929,-4.6243,-4.6411,-4.6187,-4.5142,-4.4037,-4.331,-4.4767,-4.5129,-4.594,-4.8472,-4.8171,-4.6938,-4.6854,-4.6589,-4.6013,-4.5648,-4.581,-4.594,-4.5905,-4.6018,-4.6131,-4.684,-4.7986,-4.7833,-4.7453,-4.8676,-5.1045,-5.2483,-5.3491,-5.548,-5.7225,-5.7528,-5.7825,-5.7829,-5.7722,-5.7575,-5.7722,-5.7685,-5.7719,-5.8066,-5.8135,-5.8135,-5.814,-5.8185,-5.9041,-6.0083,-6.2005,-6.2924,-6.2708,-6.2603,-6.3143,-6.373,-6.4288,-6.4511,-6.4511,-6.397,-6.3324,-6.4134,-6.5315,-6.5204,-0.8296,-0.9233,-1.0663,-1.2145,-1.3617,-1.3565,-1.4373,-1.5339,-1.5648,-1.5859,-1.6076,-1.6576,-1.748,-1.8394,-1.8944,-1.9698,-2.1033,-2.0894,-2.2373,-2.3354,-2.3747,-2.4876,-2.6284,-2.7533,-2.7976,-2.7989,-2.888,-2.937,-2.9468,-3.0995,-3.0858,-2.942,-3.1306,-3.1811,-3.3302,-3.5027,-3.5884,-3.7262,-3.7327,-3.7193,-3.6819,-3.6517,-3.6664,-3.7437,-3.7856,-3.9131,-4.2652,-4.3019,-4.398,-4.5693,-4.5864,-4.5864,-4.5864,-4.5864,-4.5652,-4.5606,-4.5518,-4.4842,-4.3966,-4.3079,-4.2728,-4.2915,-4.3668,-4.5104,-4.6996,-4.5816,-4.6112,-4.7092,-4.6124,-4.5486,-4.5534,-4.5668,-4.5757,-4.5905,-4.6262,-4.6376,-4.7039,-4.8063,-4.8558,-4.7806,-4.9685,-5.3118,-5.5076,-5.5215,-5.6741,-5.7546,-5.7914,-5.7586,-5.7624,-5.8172,-5.7953,-5.8208,-5.7988,-5.7978,-5.8328,-5.8135,-5.8135,-5.814,-5.8149,-5.8977,-5.9768,-6.0912,-6.2131,-6.1815,-6.1314,-6.2553,-6.3465,-6.3524,-6.3531,-6.348,-6.348,-6.3352,-6.3876,-6.4426,-6.4431,-1.0085,-1.2007,-1.2547,-1.3777,-1.529,-1.5463,-1.5884,-1.6163,-1.6369,-1.6894,-1.7577,-1.7946,-1.8782,-1.9828,-2.0092,-2.088,-2.2401,-2.233,-2.4019,-2.5754,-2.6622,-2.7239,-2.8195,-2.8771,-2.9127,-2.9333,-2.9583,-2.9622,-3.0642,-3.2439,-3.4105,-3.4178,-3.3717,-3.5714,-3.6585,-3.6124,-3.5869,-3.7327,-3.6622,-3.6012,-3.5686,-3.5534,-3.5597,-3.6083,-3.702,-3.8667,-4.0977,-4.2232,-4.3839,-4.5377,-4.5806,-4.5864,-4.5864,-4.5864,-4.5711,-4.5437,-4.5143,-4.4487,-4.3777,-4.3069,-4.268,-4.2932,-4.3592,-4.4256,-4.5222,-4.6093,-4.6386,-4.4686,-4.4789,-4.5329,-4.5296,-4.5557,-4.5796,-4.6268,-4.6788,-4.7169,-4.7817,-4.9486,-5.0213,-5.0579,-5.2501,-5.5714,-5.6234,-5.6641,-5.7079,-5.7807,-5.7734,-5.7333,-5.7878,-5.8677,-5.9079,-5.9993,-5.9669,-5.9302,-5.8893,-5.8152,-5.814,-5.8135,-5.814,-5.8503,-5.872,-5.9673,-6.0705,-6.0406,-5.9731,-6.1229,-6.3733,-6.3123,-6.2618,-6.3086,-6.3415,-6.3312,-6.3641,-6.3426,-6.3685,-1.1404,-1.3418,-1.3647,-1.4965,-1.6966,-1.7125,-1.7575,-1.8096,-1.8248,-1.8586,-1.9268,-1.9711,-2.0065,-2.0529,-2.1365,-2.2521,-2.3873,-2.4051,-2.5512,-2.727,-2.7774,-2.8475,-2.9615,-2.9856,-2.9687,-2.9516,-2.9927,-3.0287,-3.1742,-3.3662,-3.471,-3.4664,-3.5546,-3.6702,-3.6752,-3.6399,-3.6505,-3.6589,-3.6136,-3.5482,-3.5326,-3.5202,-3.5074,-3.4944,-3.5764,-3.7286,-3.9104,-4.0977,-4.2766,-4.4405,-4.5606,-4.5835,-4.5864,-4.5864,-4.574,-4.5554,-4.5281,-4.5073,-4.466,-4.4038,-4.3537,-4.3466,-4.3271,-4.346,-4.3462,-4.3811,-4.3518,-4.2789,-4.4235,-4.5325,-4.5813,-4.6326,-4.6593,-4.7135,-4.814,-4.8591,-4.9367,-5.0958,-5.2421,-5.3882,-5.5262,-5.5904,-5.6473,-5.6623,-5.6747,-5.7596,-5.7976,-5.7909,-5.8456,-5.9318,-6.0328,-6.1322,-6.1013,-6.0401,-5.9341,-5.8423,-5.8526,-5.859,-5.8593,-5.856,-5.8373,-5.8255,-5.888,-5.895,-6.0053,-6.1817,-6.3619,-6.4064,-6.4103,-6.3809,-6.3404,-6.4685,-6.5785,-6.531,-6.4941,-1.2561,-1.4327,-1.4561,-1.6199,-1.8525,-1.8706,-1.9472,-2.0555,-2.0516,-2.0705,-2.0802,-2.1304,-2.1347,-2.1484,-2.2478,-2.4077,-2.5411,-2.5949,-2.6781,-2.8142,-2.842,-2.8921,-2.9784,-2.9726,-2.9663,-3.0087,-3.0719,-3.2163,-3.3752,-3.4195,-3.4357,-3.4453,-3.4904,-3.4716,-3.6586,-3.5931,-3.5864,-3.6863,-3.6657,-3.6114,-3.5602,-3.5478,-3.544,-3.5367,-3.5896,-3.7098,-3.924,-4.1171,-4.2456,-4.3976,-4.5232,-4.5835,-4.5864,-4.5864,-4.5554,-4.5372,-4.5466,-4.5864,-4.5603,-4.501,-4.436,-4.3615,-4.3057,-4.2267,-4.2048,-4.1984,-4.2199,-4.2602,-4.3442,-4.4569,-4.6209,-4.7524,-4.8055,-4.8635,-4.948,-5.0221,-5.0776,-5.2315,-5.3644,-5.5032,-5.5375,-5.6001,-5.6356,-5.6319,-5.6501,-5.7514,-5.8396,-5.8665,-5.9177,-6.0198,-6.1231,-6.191,-6.1903,-6.1003,-5.9988,-5.9158,-5.9121,-5.9189,-5.9193,-5.9195,-5.8975,-5.8828,-5.8753,-6.0067,-6.1829,-6.3589,-6.5425,-6.6121,-6.5822,-6.5531,-6.5279,-6.6198,-6.7485,-6.7374,-6.6785,-1.4673,-1.7216,-1.725,-1.8429,-1.9968,-2.0225,-2.0561,-2.1162,-2.1202,-2.1493,-2.1815,-2.2276,-2.2717,-2.3124,-2.3889,-2.5147,-2.7118,-2.7181,-2.8031,-2.9164,-2.9408,-2.9615,-2.9917,-2.9967,-3.037,-3.0973,-3.1816,-3.2933,-3.5306,-3.6481,-3.7187,-3.6947,-3.6658,-3.6992,-3.6886,-3.6312,-3.583,-3.5891,-3.5504,-3.5205,-3.5022,-3.5076,-3.5552,-3.6856,-3.8477,-3.9872,-4.1283,-4.3047,-4.4321,-4.4892,-4.5548,-4.5864,-4.5864,-4.5864,-4.5861,-4.5798,-4.5832,-4.5864,-4.5693,-4.5265,-4.4706,-4.391,-4.3044,-4.224,-4.1703,-4.1484,-4.1513,-4.1917,-4.3144,-4.4865,-4.6389,-4.7779,-4.8848,-4.9601,-5.0869,-5.2094,-5.2631,-5.3428,-5.4763,-5.5093,-5.551,-5.5695,-5.568,-5.5766,-5.6758,-5.7779,-5.9437,-5.9694,-5.9715,-6.0829,-6.1971,-6.2646,-6.2453,-6.1488,-6.0923,-6.0214,-6.0033,-6.0327,-6.0545,-6.087,-6.0467,-5.97,-6.0875,-6.2012,-6.3767,-6.5663,-6.7353,-6.8601,-6.7833,-6.7254,-6.7081,-6.7192,-6.756,-6.7634,-6.7524,-1.6871,-1.9027,-1.9154,-1.9934,-2.1181,-2.1347,-2.1516,-2.1789,-2.2036,-2.2286,-2.2946,-2.3666,-2.41,-2.4731,-2.5661,-2.7147,-2.8478,-2.8772,-2.9108,-2.9709,-2.9974,-2.9974,-2.9955,-3.0567,-3.1239,-3.1994,-3.3496,-3.5232,-3.7085,-3.8166,-3.8239,-3.8438,-3.8219,-3.8192,-3.8269,-3.76,-3.7554,-3.7457,-3.6612,-3.5896,-3.5844,-3.5076,-3.579,-3.7125,-3.8585,-4.0009,-4.1757,-4.3556,-4.4606,-4.4779,-4.5435,-4.5722,-4.5864,-4.5864,-4.5864,-4.5835,-4.5864,-4.5864,-4.5722,-4.5635,-4.5036,-4.4285,-4.3578,-4.2801,-4.2145,-4.1703,-4.1452,-4.1887,-4.3259,-4.5273,-4.7274,-4.9122,-5.0204,-5.1008,-5.2477,-5.343,-5.3794,-5.4383,-5.4714,-5.4906,-5.515,-5.5252,-5.5174,-5.6075,-5.6999,-5.8469,-6.0205,-6.0483,-6.0324,-6.1492,-6.2826,-6.3044,-6.2647,-6.2146,-6.2157,-6.1549,-6.1221,-6.1844,-6.2312,-6.3044,-6.2857,-6.1644,-6.2276,-6.4195,-6.6014,-6.797,-6.9114,-6.8884,-6.9041,-6.8943,-6.8109,-6.7487,-6.7745,-6.7855,-6.7782,-1.9075,-2.0598,-2.0469,-2.1177,-2.2155,-2.2431,-2.2497,-2.2616,-2.3141,-2.3715,-2.4401,-2.526,-2.5659,-2.628,-2.7904,-2.9045,-2.9501,-2.9653,-2.9785,-2.9955,-3.0257,-3.0277,-3.0612,-3.1374,-3.2312,-3.3174,-3.5107,-3.698,-3.8087,-3.8485,-3.8585,-3.8636,-3.8563,-3.8903,-3.9209,-3.9058,-3.8758,-3.8705,-3.7906,-3.7289,-3.6912,-3.619,-3.6137,-3.734,-3.834,-3.9323,-4.0727,-4.2456,-4.3444,-4.3334,-4.4949,-4.5664,-4.5864,-4.5864,-4.5864,-4.5864,-4.5864,-4.5864,-4.5864,-4.5835,-4.5493,-4.4929,-4.4278,-4.3556,-4.2869,-4.2144,-4.202,-4.2397,-4.3813,-4.5647,-4.9128,-5.0481,-5.1452,-5.2367,-5.3505,-5.4573,-5.4642,-5.4746,-5.4781,-5.4781,-5.4834,-5.4906,-5.5811,-5.6733,-5.8148,-5.99,-6.1927,-6.2683,-6.2532,-6.325,-6.3981,-6.3531,-6.3075,-6.3263,-6.3444,-6.2887,-6.2879,-6.3639,-6.4285,-6.4974,-6.5003,-6.3719,-6.4423,-6.6893,-6.8901,-6.9592,-6.9063,-6.8537,-6.856,-6.8619,-6.8295,-6.7855,-6.7855,-6.7855,-6.7855,-2.0605,-2.1823,-2.181,-2.1985,-2.2416,-2.3142,-2.3792,-2.4357,-2.5174,-2.5781,-2.656,-2.7015,-2.741,-2.8071,-2.884,-2.9424,-2.9861,-2.9974,-2.9974,-3.0106,-3.058,-3.0977,-3.1442,-3.2661,-3.409,-3.5748,-3.7243,-3.8035,-3.8385,-3.8485,-3.8908,-3.9326,-3.8963,-3.9354,-3.9592,-3.9226,-3.9224,-3.9511,-3.8994,-3.8588,-3.8363,-3.7448,-3.6967,-3.799,-3.8996,-4.0341,-4.1449,-4.3413,-4.4661,-4.3405,-4.4889,-4.5664,-4.5864,-4.5864,-4.5864,-4.5864,-4.5864,-4.5864,-4.5864,-4.5835,-4.5635,-4.4949,-4.4726,-4.4292,-4.3561,-4.2899,-4.2921,-4.3516,-4.4377,-4.5501,-4.8231,-5.0566,-5.2044,-5.2915,-5.398,-5.4727,-5.4781,-5.4781,-5.4781,-5.4781,-5.4781,-5.4853,-5.576,-5.7559,-5.9469,-6.1491,-6.3742,-6.5216,-6.5144,-6.5354,-6.5191,-6.4853,-6.4579,-6.4663,-6.4699,-6.4364,-6.4974,-6.561,-6.6123,-6.6882,-6.7413,-6.6867,-6.7321,-6.9692,-7.031,-7.0256,-6.9864,-6.9318,-6.8769,-6.8036,-6.8076,-6.8552,-6.8406,-6.7929,-6.7855,-2.2681,-2.3175,-2.3122,-2.322,-2.3492,-2.4362,-2.4871,-2.5409,-2.6405,-2.7245,-2.7829,-2.8301,-2.881,-2.9291,-2.9459,-2.9652,-2.9974,-2.9974,-2.9974,-3.0125,-3.0884,-3.1428,-3.2029,-3.4295,-3.609,-3.7024,-3.8114,-3.846,-3.8585,-3.8884,-3.9206,-3.9597,-3.9796,-4.0191,-4.0786,-4.0724,-4.0644,-4.0835,-4.0501,-4.0007,-3.9887,-3.8937,-3.8535,-3.8999,-4.0648,-4.2456,-4.3019,-4.5062,-4.5175,-4.503,-4.5403,-4.5864,-4.5864,-4.5864,-4.5864,-4.5864,-4.5864,-4.5864,-4.5864,-4.5864,-4.5722,-4.5406,-4.4698,-4.419,-4.3698,-4.3394,-4.3512,-4.4082,-4.5253,-4.6697,-4.9415,-5.1193,-5.188,-5.2769,-5.3605,-5.4151,-5.4386,-5.4673,-5.4781,-5.4781,-5.4781,-5.4818,-5.5899,-5.8155,-5.9876,-5.9524,-6.1869,-6.5608,-6.568,-6.568,-6.5715,-6.5715,-6.5715,-6.5715,-6.5715,-6.6036,-6.6517,-6.6955,-6.7677,-6.8785,-6.9037,-6.9434,-6.9965,-7.0274,-7.0606,-7.0674,-7.0475,-7.0528,-7.0038,-6.937,-6.9097,-6.9464,-6.9357,-6.8628,-6.8224,-2.4109,-2.4068,-2.4254,-2.4496,-2.4568,-2.5788,-2.6371,-2.6418,-2.7622,-2.8438,-2.8814,-2.9114,-2.9558,-2.9879,-2.9879,-2.9974,-2.9974,-2.9974,-2.9974,-3.0125,-3.1055,-3.206,-3.3633,-3.5918,-3.7593,-3.7866,-3.8287,-3.8485,-3.8585,-3.9008,-3.9501,-3.9672,-4.0321,-4.1187,-4.1792,-4.1879,-4.2524,-4.2822,-4.207,-4.1517,-4.1255,-4.0497,-3.9843,-3.9955,-4.1317,-4.305,-4.4408,-4.5435,-4.5864,-4.5864,-4.5864,-4.5864,-4.5864,-4.5864,-4.5864,-4.5864,-4.5864,-4.5864,-4.5864,-4.5864,-4.5864,-4.5744,-4.4973,-4.42,-4.4208,-4.4168,-4.4161,-4.4826,-4.6288,-4.8153,-5.0105,-5.0779,-5.1588,-5.2458,-5.3253,-5.3687,-5.3904,-5.4331,-5.4781,-5.4781,-5.4781,-5.4781,-5.4973,-5.8068,-5.9226,-5.805,-6.074,-6.4898,-6.5715,-6.5715,-6.5715,-6.5715,-6.5751,-6.5734,-6.5912,-6.6447,-6.7,-6.7603,-6.9299,-7.0751,-7.01,-7.0134,-7.0508,-7.0787,-7.0993,-7.0736,-7.0484,-7.0511,-6.9807,-7.018,-7.0243,-6.975,-6.9249,-6.9106,-6.8703,-2.4141,-2.4141,-2.5135,-2.5539,-2.5775,-2.7495,-2.8031,-2.8393,-2.9178,-2.9652,-2.9746,-2.9766,-2.9823,-2.9974,-2.9974,-2.9974,-2.9955,-3.0068,-3.0087,-3.0787,-3.2037,-3.3968,-3.5523,-3.7238,-3.789,-3.8312,-3.846,-3.8485,-3.8585,-3.8585,-3.8983,-3.977,-4.0545,-4.1213,-4.2031,-4.2704,-4.295,-4.3041,-4.2776,-4.2659,-4.2686,-4.1812,-4.1266,-4.1357,-4.1594,-4.1511,-4.2458,-4.4206,-4.5864,-4.5864,-4.5864,-4.5864,-4.5864,-4.5864,-4.5864,-4.5864,-4.5864,-4.5864,-4.5864,-4.5864,-4.5864,-4.5832,-4.5647,-4.5686,-4.5478,-4.5497,-4.5876,-4.6674,-4.7489,-4.8534,-4.984,-5.0843,-5.1522,-5.2205,-5.3354,-5.3557,-5.3439,-5.4051,-5.4781,-5.4781,-5.4781,-5.4781,-5.5723,-5.777,-6.0511,-6.037,-6.2788,-6.5485,-6.5715,-6.5715,-6.5715,-6.5715,-6.5751,-6.5734,-6.618,-6.6857,-6.7606,-6.8445,-7.0453,-7.163,-7.0979,-7.1535,-7.1548,-7.1367,-7.1426,-7.1229,-7.0848,-6.9865,-6.8907,-6.9167,-7.0578,-6.9941,-6.8995,-6.9067,-6.9955,-2.5013,-2.5125,-2.6131,-2.6527,-2.6798,-2.8028,-2.861,-2.8798,-2.9501,-2.9974,-2.9974,-2.9974,-2.9974,-2.9974,-2.9955,-3.0181,-3.0744,-3.0763,-3.0968,-3.1585,-3.2898,-3.4796,-3.6828,-3.7809,-3.8312,-3.8485,-3.8485,-3.8485,-3.8585,-3.8983,-3.9574,-4.0256,-4.1118,-4.1898,-4.2547,-4.3005,-4.3123,-4.2941,-4.2977,-4.3542,-4.4329,-4.3436,-4.3338,-4.4258,-4.3733,-4.3361,-4.3641,-4.5033,-4.5864,-4.5864,-4.5864,-4.5864,-4.5864,-4.5864,-4.5864,-4.5864,-4.5864,-4.5864,-4.5864,-4.5864,-4.5864,-4.5803,-4.547,-4.5557,-4.5883,-4.6226,-4.668,-4.7692,-4.8456,-4.906,-4.9813,-5.0347,-5.1013,-5.1619,-5.3096,-5.4536,-5.5666,-5.6124,-5.6315,-5.5855,-5.531,-5.4781,-5.4938,-5.8015,-6.1022,-6.3479,-6.4827,-6.5306,-6.5715,-6.5715,-6.5715,-6.5715,-6.5751,-6.5788,-6.6073,-6.7391,-6.8391,-6.9231,-7.0855,-7.2099,-7.253,-7.3772,-7.3009,-7.1899,-7.191,-7.1785,-7.1437,-7.0793,-6.9694,-6.9571,-7.0704,-7.085,-6.986,-6.9453,-7.0869,-2.6073,-2.6147,-2.7205,-2.753,-2.7691,-2.8519,-2.8916,-2.9045,-2.9615,-2.9974,-2.9974,-2.9974,-2.9974,-2.9974,-2.9955,-3.0294,-3.0744,-3.1099,-3.1767,-3.252,-3.3675,-3.5673,-3.7428,-3.8284,-3.8485,-3.8485,-3.8485,-3.8485,-3.8585,-3.9181,-3.9868,-4.0519,-4.1428,-4.2204,-4.2931,-4.346,-4.3661,-4.3495,-4.3907,-4.5084,-4.5991,-4.5598,-4.5966,-4.6955,-4.6363,-4.5988,-4.5696,-4.578,-4.5864,-4.5864,-4.5864,-4.5864,-4.5864,-4.5864,-4.5864,-4.5864,-4.5864,-4.5864,-4.5864,-4.5864,-4.5864,-4.5803,-4.5509,-4.5376,-4.5906,-4.6511,-4.7154,-4.7738,-4.8893,-4.9793,-4.9762,-5.0053,-5.0411,-5.0962,-5.2455,-5.4519,-5.6586,-5.7886,-5.7944,-5.683,-5.5566,-5.4935,-5.5462,-5.7682,-6.0652,-6.3107,-6.433,-6.4933,-6.5573,-6.5715,-6.5715,-6.5715,-6.6055,-6.602,-6.6464,-6.7997,-6.9409,-7.0396,-7.1614,-7.3084,-7.3944,-7.4614,-7.3354,-7.214,-7.1669,-7.1285,-7.1183,-7.0766,-7.1066,-7.0468,-7.1542,-7.241,-7.1263,-7.1102,-7.2712,-2.7068,-2.7285,-2.8162,-2.8496,-2.8579,-2.9389,-2.9823,-2.9861,-2.9955,-2.9974,-2.9974,-2.9974,-2.9974,-2.9974,-2.9974,-3.0068,-3.0181,-3.0987,-3.1858,-3.3025,-3.5064,-3.6814,-3.7713,-3.8236,-3.8485,-3.8485,-3.8485,-3.8485,-3.8585,-3.9304,-3.9697,-4.021,-4.1507,-4.2045,-4.2712,-4.4393,-4.5462,-4.5517,-4.6904,-4.7812,-4.8105,-4.803,-4.7755,-4.6735,-4.6959,-4.6565,-4.5672,-4.5696,-4.5864,-4.5864,-4.5864,-4.5864,-4.5864,-4.5864,-4.5864,-4.5864,-4.5864,-4.5864,-4.5864,-4.5864,-4.5864,-4.5864,-4.5794,-4.5886,-4.6116,-4.6999,-4.7638,-4.79,-4.9013,-4.9793,-4.9793,-4.9793,-5.0075,-5.0499,-5.2137,-5.4035,-5.6273,-5.8878,-5.889,-5.7242,-5.5682,-5.4781,-5.4973,-5.7086,-5.9033,-6.0617,-6.2294,-6.4046,-6.5128,-6.5715,-6.5715,-6.625,-6.6928,-6.7071,-6.7495,-6.9172,-7.153,-7.2522,-7.3738,-7.443,-7.4931,-7.4179,-7.3013,-7.1919,-7.115,-7.0729,-7.0245,-6.9297,-6.9057,-7.0341,-7.1855,-7.3237,-7.3789,-7.4184,-7.5227,-2.8028,-2.8144,-2.9045,-2.9464,-2.9521,-2.9804,-2.9974,-2.9974,-2.9974,-2.9974,-2.9974,-2.9974,-2.9974,-2.9974,-2.9974,-3.0313,-3.0856,-3.1788,-3.2936,-3.4489,-3.6263,-3.7373,-3.8187,-3.846,-3.8485,-3.8485,-3.8485,-3.8784,-3.9206,-3.9599,-4.0184,-4.1301,-4.2831,-4.3747,-4.4324,-4.6269,-4.7315,-4.7183,-4.7859,-4.8708,-4.9409,-4.9078,-4.8639,-4.8492,-4.7952,-4.7,-4.5785,-4.578,-4.5864,-4.5864,-4.5864,-4.5864,-4.5864,-4.5864,-4.5864,-4.5864,-4.5864,-4.5864,-4.5864,-4.5864,-4.5864,-4.5864,-4.5864,-4.6028,-4.6537,-4.728,-4.8033,-4.8422,-4.9212,-4.9793,-4.9793,-4.9793,-5.0423,-5.1486,-5.3121,-5.5054,-5.7123,-5.9331,-5.9467,-5.7749,-5.5851,-5.4998,-5.5301,-5.6858,-5.8103,-5.7595,-6.0335,-6.3621,-6.5076,-6.5715,-6.5715,-6.6072,-6.7356,-6.8336,-6.876,-7.0882,-7.3421,-7.4456,-7.5241,-7.5241,-7.5086,-7.4016,-7.2818,-7.1787,-7.1041,-7.0657,-6.9621,-6.8475,-6.8628,-6.9881,-7.15,-7.3534,-7.5713,-7.6369,-7.6512,-2.9045,-2.9063,-2.9728,-2.9974,-2.9974,-2.9974,-2.9974,-2.9974,-2.9974,-2.9974,-2.9974,-2.9974,-3.0068,-3.0294,-3.0407,-3.0875,-3.1767,-3.2869,-3.4234,-3.5777,-3.6781,-3.7625,-3.8385,-3.8485,-3.8485,-3.8485,-3.8685,-3.9082,-3.9697,-4.0378,-4.1353,-4.2886,-4.4516,-4.5628,-4.638,-4.8224,-4.9092,-4.8923,-4.9386,-5.0301,-5.1415,-5.0783,-5.011,-4.9728,-4.8947,-4.7609,-4.601,-4.5864,-4.5864,-4.5864,-4.5864,-4.5864,-4.5864,-4.5864,-4.5864,-4.5864,-4.5864,-4.5864,-4.5864,-4.5864,-4.5864,-4.5864,-4.5864,-4.6164,-4.6559,-4.733,-4.8003,-4.8422,-4.9318,-4.9793,-4.9793,-4.9793,-5.0908,-5.3079,-5.4477,-5.6002,-5.8391,-5.9916,-5.9627,-5.7956,-5.6034,-5.4942,-5.5158,-5.5897,-5.6545,-5.576,-5.9086,-6.3037,-6.5005,-6.5715,-6.5751,-6.6536,-6.807,-6.9497,-7.1102,-7.3229,-7.4479,-7.4955,-7.5241,-7.5241,-7.4836,-7.4067,-7.2777,-7.1794,-7.1198,-7.0419,-6.9265,-6.8953,-6.9803,-7.0872,-7.176,-7.3863,-7.6595,-7.7401,-7.7175,-2.9861,-2.9842,-2.9974,-2.9974,-2.9974,-2.9974,-2.9974,-2.9974,-2.9974,-2.9974,-2.9974,-2.9993,-3.0445,-3.108,-3.1211,-3.1898,-3.2978,-3.4277,-3.5403,-3.6401,-3.7295,-3.7929,-3.8485,-3.8485,-3.8485,-3.8485,-3.9206,-3.9697,-3.999,-4.1749,-4.3314,-4.4652,-4.5972,-4.725,-4.7989,-4.992,-5.0797,-5.0991,-5.2282,-5.3212,-5.3513,-5.3164,-5.2038,-4.9907,-4.9649,-4.8425,-4.6036,-4.5864,-4.5806,-4.5777,-4.5806,-4.5864,-4.5748,-4.5835,-4.5864,-4.5864,-4.5864,-4.5864,-4.5864,-4.5864,-4.5864,-4.5864,-4.5864,-4.5948,-4.6111,-4.7069,-4.7846,-4.8142,-4.9018,-4.9793,-4.9793,-4.9793,-5.1034,-5.437,-5.497,-5.6605,-5.9318,-6.0498,-5.9883,-5.8093,-5.6081,-5.4918,-5.4772,-5.52,-5.5288,-5.5568,-5.8191,-6.1816,-6.4933,-6.5715,-6.6393,-6.7624,-6.9211,-7.1215,-7.3323,-7.5145,-7.5193,-7.5241,-7.5241,-7.5205,-7.4859,-7.4502,-7.3344,-7.3151,-7.2633,-7.1234,-7.0143,-6.9057,-7.0091,-7.1056,-7.2236,-7.3605,-7.5595,-7.7028,-7.717,-2.9974,-2.9974,-2.9974,-2.9974,-2.9974,-2.9974,-2.9974,-2.9974,-2.9974,-2.9974,-3.0106,-3.058,-3.1012,-3.1342,-3.1878,-3.3414,-3.5553,-3.595,-3.6598,-3.7295,-3.7523,-3.7929,-3.8385,-3.8485,-3.8485,-3.8585,-3.9279,-4.0449,-4.179,-4.3356,-4.4675,-4.6,-4.8322,-4.9724,-5.018,-5.1799,-5.2756,-5.2727,-5.3241,-5.3329,-5.2855,-5.2862,-5.1748,-4.9451,-4.9068,-4.8299,-4.6677,-4.6115,-4.5599,-4.5121,-4.554,-4.557,-4.5033,-4.5482,-4.5864,-4.5864,-4.5864,-4.5864,-4.5864,-4.5864,-4.5864,-4.5864,-4.5864,-4.5864,-4.5948,-4.708,-4.7833,-4.8311,-4.9186,-4.9793,-4.9793,-4.9762,-5.0739,-5.2919,-5.4509,-5.6164,-5.848,-5.9853,-6.0188,-5.9299,-5.6888,-5.5152,-5.4786,-5.4797,-5.48,-5.4818,-5.7928,-6.1587,-6.4774,-6.5787,-6.6286,-6.7837,-7.0016,-7.2379,-7.4417,-7.5181,-7.5205,-7.5241,-7.5241,-7.5241,-7.5086,-7.4836,-7.4538,-7.4645,-7.3893,-7.2432,-7.1037,-6.9584,-6.9794,-7.0801,-7.1944,-7.2976,-7.4151,-7.5992,-7.7175,-2.9974,-2.9974,-2.9974,-3.0068,-3.0407,-3.0368,-3.0612,-3.0856,-3.0902,-3.0994,-3.1303,-3.1812,-3.2313,-3.2916,-3.3825,-3.532,-3.7113,-3.7216,-3.7523,-3.7929,-3.803,-3.8131,-3.8485,-3.8485,-3.8658,-3.9205,-3.9675,-4.1023,-4.2958,-4.4789,-4.6269,-4.7649,-5.0008,-5.1532,-5.2022,-5.3096,-5.3572,-5.3572,-5.3572,-5.3154,-5.2485,-5.2523,-5.1313,-4.8652,-4.8713,-4.8,-4.6392,-4.5931,-4.5151,-4.4099,-4.4601,-4.4818,-4.4541,-4.4953,-4.543,-4.5832,-4.5864,-4.5864,-4.5864,-4.5864,-4.5864,-4.5864,-4.5864,-4.5864,-4.5998,-4.665,-4.7533,-4.8236,-4.8814,-4.8966,-4.9006,-4.9006,-4.9949,-5.2344,-5.4251,-5.5969,-5.7849,-5.959,-6.0629,-6.0113,-5.7914,-5.5551,-5.511,-5.4781,-5.4834,-5.5184,-5.7998,-6.1587,-6.4703,-6.5751,-6.6571,-6.8605,-7.0445,-7.2394,-7.4739,-7.5193,-7.5241,-7.5241,-7.5241,-7.5241,-7.5241,-7.4991,-7.4979,-7.4979,-7.4788,-7.3608,-7.3105,-7.1621,-7.0071,-7.0973,-7.1834,-7.2641,-7.2671,-7.6632,-7.7964,-2.9974,-2.9955,-3.0087,-3.0519,-3.1323,-3.1315,-3.1867,-3.254,-3.2584,-3.2906,-3.3263,-3.3431,-3.4361,-3.5673,-3.6448,-3.7216,-3.775,-3.775,-3.803,-3.8409,-3.8485,-3.8485,-3.8509,-3.8585,-3.9279,-4.0327,-4.0634,-4.1658,-4.3394,-4.5994,-4.7999,-4.9268,-5.0999,-5.2408,-5.331,-5.3542,-5.3572,-5.3572,-5.3542,-5.3134,-5.2367,-5.2378,-5.1152,-4.8678,-4.8514,-4.7671,-4.5859,-4.5435,-4.4698,-4.3113,-4.321,-4.3558,-4.4188,-4.4126,-4.4556,-4.556,-4.569,-4.5777,-4.5864,-4.5864,-4.5864,-4.5864,-4.5835,-4.5835,-4.5861,-4.5971,-4.6649,-4.8033,-4.7603,-4.7433,-4.766,-4.7849,-4.9174,-5.2112,-5.4003,-5.5826,-5.7885,-5.9174,-6.0399,-5.9981,-5.8652,-5.6932,-5.5041,-5.4797,-5.4834,-5.548,-5.7963,-6.1587,-6.4739,-6.5699,-6.7035,-6.9211,-7.0496,-7.1602,-7.4492,-7.5241,-7.5241,-7.5241,-7.5241,-7.5241,-7.5241,-7.5241,-7.5205,-7.5134,-7.4943,-7.4788,-7.456,-7.3448,-7.164,-7.0924,-7.1715,-7.3315,-7.4166,-7.7531,-7.9423,-3.0294,-3.0875,-3.0875,-3.1434,-3.221,-3.2286,-3.2594,-3.32,-3.3183,-3.3525,-3.404,-3.4724,-3.5986,-3.7553,-3.8006,-3.8107,-3.8309,-3.8309,-3.8309,-3.8485,-3.8485,-3.8807,-3.9304,-3.97,-4.037,-4.1325,-4.2122,-4.2832,-4.3622,-4.6849,-4.8923,-4.9898,-5.2001,-5.3349,-5.3542,-5.3572,-5.3572,-5.3542,-5.2998,-5.2308,-5.158,-5.137,-5.0538,-4.9111,-4.7772,-4.6796,-4.6175,-4.4638,-4.3274,-4.2259,-4.2807,-4.3004,-4.2597,-4.2729,-4.3184,-4.3821,-4.4483,-4.518,-4.5806,-4.5864,-4.5864,-4.5835,-4.5435,-4.5322,-4.5715,-4.5826,-4.6114,-4.636,-4.5359,-4.5485,-4.6855,-4.7446,-4.8084,-4.946,-5.212,-5.3962,-5.5043,-5.7491,-5.8779,-5.7835,-5.8233,-5.7724,-5.5455,-5.4862,-5.4869,-5.5218,-5.7963,-6.1587,-6.4739,-6.577,-6.6554,-6.8958,-6.9457,-7.106,-7.4384,-7.5241,-7.5241,-7.5241,-7.5241,-7.5241,-7.5241,-7.5241,-7.5241,-7.5241,-7.5241,-7.4979,-7.4353,-7.368,-7.2308,-7.1107,-7.1611,-7.3578,-7.5725,-7.8432,-8.0398,-3.0987,-3.1767,-3.1878,-3.254,-3.3393,-3.3524,-3.404,-3.4786,-3.4894,-3.5148,-3.5732,-3.6445,-3.7386,-3.8485,-3.8485,-3.8485,-3.8485,-3.8485,-3.8365,-3.8292,-3.8711,-3.9153,-3.9796,-4.0504,-4.1575,-4.2685,-4.3296,-4.3909,-4.4719,-4.6676,-4.8504,-4.9936,-5.235,-5.3572,-5.3542,-5.3087,-5.3017,-5.3171,-5.2167,-5.1291,-5.0411,-4.9661,-4.8969,-4.8278,-4.6817,-4.5673,-4.4915,-4.3754,-4.2479,-4.1402,-4.1743,-4.2007,-4.1804,-4.2037,-4.2428,-4.3083,-4.369,-4.4198,-4.4835,-4.5507,-4.5722,-4.5493,-4.5322,-4.5191,-4.5054,-4.5021,-4.4683,-4.4066,-4.353,-4.3713,-4.5302,-4.5804,-4.6697,-4.8443,-5.0673,-5.2668,-5.371,-5.6606,-5.7951,-5.674,-5.7953,-5.8491,-5.7415,-5.6295,-5.5428,-5.5357,-5.8734,-6.2329,-6.5112,-6.5699,-6.6661,-6.8567,-6.9778,-7.1709,-7.4384,-7.5241,-7.5241,-7.5241,-7.5241,-7.5241,-7.5241,-7.5241,-7.5241,-7.5241,-7.5241,-7.4895,-7.4051,-7.3412,-7.2656,-7.246,-7.2855,-7.3391,-7.7609,-7.9653,-8.1325,-3.1989,-3.2691,-3.278,-3.3522,-3.4705,-3.4896,-3.5636,-3.6861,-3.697,-3.7344,-3.7702,-3.8309,-3.8485,-3.8485,-3.8485,-3.8485,-3.8485,-3.8487,-3.8218,-3.8099,-3.8993,-3.9594,-4.0058,-4.1022,-4.2487,-4.4017,-4.4298,-4.4841,-4.5696,-4.5981,-4.7173,-4.9616,-5.2176,-5.3524,-5.3524,-5.2395,-5.2004,-5.2493,-5.13,-5.0158,-4.9359,-4.7913,-4.7094,-4.7063,-4.5817,-4.4441,-4.3375,-4.3096,-4.2441,-4.1137,-4.1137,-4.1434,-4.2208,-4.2223,-4.2631,-4.3421,-4.3364,-4.3454,-4.3724,-4.4926,-4.5443,-4.4978,-4.5265,-4.4946,-4.3903,-4.3644,-4.297,-4.1992,-4.2132,-4.2793,-4.3401,-4.3656,-4.5084,-4.8004,-4.9812,-5.1571,-5.3586,-5.6421,-5.7688,-5.6405,-5.792,-5.9295,-5.9435,-5.7886,-5.6257,-5.533,-5.9138,-6.3001,-6.5218,-6.5751,-6.6483,-6.8317,-7.0694,-7.2715,-7.4622,-7.5205,-7.5205,-7.5241,-7.5241,-7.5241,-7.5241,-7.5241,-7.5241,-7.5241,-7.5241,-7.5062,-7.4403,-7.3646,-7.2722,-7.2962,-7.3006,-7.2945,-7.7014,-7.972,-8.1462,-3.2869,-3.376,-3.376,-3.4277,-3.5153,-3.5681,-3.6494,-3.7523,-3.754,-3.7842,-3.8284,-3.8385,-3.8485,-3.8485,-3.8485,-3.8485,-3.8462,-3.8142,-3.8005,-3.7918,-3.7801,-3.8803,-4.0559,-4.1238,-4.285,-4.4868,-4.5354,-4.5583,-4.578,-4.5864,-4.6708,-4.8395,-5.0867,-5.2612,-5.3572,-5.2387,-5.1746,-5.1759,-5.0102,-4.9311,-4.9573,-4.8174,-4.7339,-4.7246,-4.62,-4.5418,-4.5069,-4.5302,-4.5306,-4.4989,-4.4957,-4.5019,-4.5204,-4.5236,-4.5362,-4.5414,-4.4763,-4.4374,-4.4444,-4.423,-4.4322,-4.4827,-4.3929,-4.3473,-4.3645,-4.3172,-4.243,-4.1592,-4.1614,-4.2082,-4.2889,-4.3337,-4.4513,-4.6814,-4.8393,-5.0112,-5.2113,-5.3988,-5.5266,-5.6415,-5.771,-5.8559,-5.8253,-5.7454,-5.6611,-5.6441,-5.8727,-6.2135,-6.5005,-6.5715,-6.5805,-6.7071,-6.9714,-7.2526,-7.4761,-7.5191,-7.5204,-7.5205,-7.5205,-7.5241,-7.5241,-7.5241,-7.5241,-7.5205,-7.5205,-7.4824,-7.4087,-7.4148,-7.4224,-7.3507,-7.4567,-7.5983,-7.6967,-7.907,-8.1588,-3.376,-3.4492,-3.4918,-3.5236,-3.5658,-3.6494,-3.7318,-3.8006,-3.8087,-3.8287,-3.8485,-3.8485,-3.8485,-3.8436,-3.8292,-3.8611,-3.9303,-3.8962,-3.9098,-3.9553,-3.9924,-4.0824,-4.2039,-4.2914,-4.4102,-4.5493,-4.5835,-4.5864,-4.5864,-4.5864,-4.6533,-4.7842,-4.982,-5.1739,-5.3407,-5.2087,-5.1424,-5.1638,-4.9868,-4.8795,-4.857,-4.7572,-4.6665,-4.5871,-4.4608,-4.3879,-4.3879,-4.4069,-4.4225,-4.4225,-4.4194,-4.4512,-4.5214,-4.5278,-4.5597,-4.6204,-4.5678,-4.5593,-4.6012,-4.5302,-4.4911,-4.5046,-4.4559,-4.4518,-4.5051,-4.3966,-4.2772,-4.1545,-4.1448,-4.1644,-4.2144,-4.2397,-4.3689,-4.6331,-4.7297,-4.8978,-5.1457,-5.3199,-5.4117,-5.4503,-5.6737,-5.8625,-5.9034,-5.8191,-5.7664,-5.7959,-5.7448,-5.9894,-6.4862,-6.5715,-6.5734,-6.5877,-6.7659,-7.0143,-7.2593,-7.4153,-7.4833,-7.4265,-7.4741,-7.5205,-7.5241,-7.5241,-7.5193,-7.5226,-7.4654,-7.4179,-7.3876,-7.4089,-7.4615,-7.4372,-7.6429,-7.7088,-7.7471,-7.8605,-8.0349,-3.4379,-3.5036,-3.5664,-3.6044,-3.639,-3.7318,-3.7929,-3.8409,-3.8485,-3.8412,-3.8365,-3.8488,-3.8587,-3.8588,-3.852,-3.9337,-4.0634,-4.026,-4.0625,-4.1639,-4.2581,-4.3222,-4.3616,-4.4551,-4.5383,-4.5864,-4.5864,-4.5864,-4.5864,-4.5864,-4.6446,-4.7609,-4.8889,-5.0668,-5.26,-5.1279,-5.0859,-5.1569,-5.0041,-4.8799,-4.8046,-4.7184,-4.6013,-4.4446,-4.3234,-4.2468,-4.2185,-4.2559,-4.2591,-4.2591,-4.2591,-4.3103,-4.4316,-4.4601,-4.5082,-4.6204,-4.5949,-4.604,-4.6756,-4.6139,-4.5466,-4.4975,-4.5611,-4.5851,-4.5629,-4.448,-4.3216,-4.1834,-4.1768,-4.1923,-4.2271,-4.2426,-4.3749,-4.6588,-4.7134,-4.8296,-5.149,-5.2968,-5.3294,-5.2296,-5.5447,-5.8313,-5.9898,-5.9486,-5.9049,-5.9579,-5.9014,-5.8787,-6.3851,-6.5537,-6.5734,-6.5753,-6.5735,-6.7123,-7.0302,-7.2915,-7.3559,-7.273,-7.3564,-7.4277,-7.4599,-7.4955,-7.524,-7.5205,-7.4502,-7.3861,-7.397,-7.3373,-7.4505,-7.6466,-7.6902,-7.7129,-7.8299,-7.8666,-7.8816,-3.3849,-3.4394,-3.4495,-3.5436,-3.687,-3.7373,-3.7774,-3.79,0.0,0.0,0.0,-3.878,-3.9295,-3.9368,-4.0733,-4.1645,-4.1844,-4.1465,-4.1412,-4.1557,-4.1456,-4.215,-4.3501,-4.3807,-4.4545,-4.5835,-4.5864,-4.5864,-4.5864,-4.5864,-4.5981,-4.6301,-4.7984,-4.9068,-4.9422,-4.9441,-5.0098,-5.1267,-5.0517,-5.0754,-5.1944,-4.9507,-4.7519,-4.6077,-4.6007,-4.5453,-4.4262,-4.575,-4.6642,-4.6642,-4.6582,-4.6359,-4.5918,-4.6588,-4.674,-4.621,-4.4339,-4.3271,-4.3466,-4.2563,-4.2193,-4.2723,-4.4053,-4.3579,-4.0749,-4.1688,-4.2396,-4.2705,-4.3277,-4.4514,-4.6539,-4.614,-4.6588,-4.8653,-4.8848,-4.966,-5.1555,-5.2179,-5.2277,-5.2137,-5.3717,-5.6248,-5.9807,-5.9656,-5.9672,-6.05,-6.1954,-6.41,-6.378,-6.4827,-6.5751,-6.5734,-6.577,-6.6786,-6.9661,-7.1218,-7.1163,-7.1051,-7.1209,-7.1852,-7.3122,-7.4359,-7.5097,-7.4976,-7.5074,-7.4471,-7.4211,-7.4771,-7.6208,-7.6314,-7.7322,-7.8367,-7.8666,-7.8704,-7.8704,-3.3217,0.0,-3.4569,-3.5725,0.0,-3.7905,-3.7785,-3.7243,-3.7483,-3.7968,-3.8571,-3.9227,-3.9993,-4.0916,-4.1639,-4.2385,-4.3085,-4.2741,-4.297,-4.3761,-4.3556,-4.3947,-4.4695,-4.4719,-4.5088,-4.5864,-4.5864,-4.5628,-4.5209,-4.518,-4.502,-4.472,-4.6232,-4.7428,-4.8352,-4.8391,-4.8703,-4.933,-4.9886,-4.9855,-4.9263,-4.9001,-4.7845,-4.5687,0.0,0.0,0.0,0.0,0.0,0.0,0.0,0.0,0.0,0.0,0.0,-4.5883,-4.3356,-4.1868,-4.1829,-4.1365,-4.1282,-4.1664,-4.2185,-4.1581,-3.9267,-4.1106,-4.2016,-4.1297,-4.3115,-4.4828,-4.6012,-4.6461,-4.7391,-4.9107,-4.9367,-5.0051,-5.1555,-5.1916,-5.1916,-5.2014,-5.2706,-5.3891,-5.5939,-5.7293,-5.8834,-6.0298,-6.3444,-6.4917,-6.3586,-6.4561,-6.5715,-6.5715,-6.5715,-6.6339,-6.7891,-6.9232,-7.034,-6.9318,-6.8618,-6.9152,-7.1316,-7.3652,-7.4451,-7.2459,-7.201,-7.2112,-7.2159,-7.291,-7.3746,-7.4501,-7.6036,-7.7348,-7.7544,-7.8143,-7.8704,-3.2858,-3.4326,-3.4888,-3.6093,-3.7552,-3.8022,-3.763,-3.6678,-3.6714,-3.755,-3.8809,-3.9377,-4.0678,-4.2315,-4.2392,-4.3162,-4.4409,-4.4126,-4.4686,-4.5864,-4.5864,-4.5864,-4.5864,-4.5864,-4.5864,-4.5864,-4.5864,-4.539,-4.4512,-4.4512,-4.4176,-4.3558,-4.4518,-4.5845,-4.735,0.0,0.0,0.0,-4.9364,-4.9188,-4.7248,-4.8782,-4.8455,-4.5858,-4.7199,0.0,-4.7669,-4.7669,-4.7663,-4.7649,-4.7366,0.0,0.0,0.0,0.0,0.0,0.0,0.0,0.0,0.0,0.0,0.0,-3.8657,-3.8095,-3.7754,-3.9513,-4.0323,-3.9311,-4.221,-4.4229,-4.4289,-4.5611,-4.716,-4.8811,-4.9268,-5.0115,-5.1719,-5.1916,-5.1916,-5.1883,-5.2006,-5.1754,-5.1255,-5.4279,-5.788,-6.1005,-6.3479,-6.4473,-6.3586,-6.4827,-6.568,-6.5715,-6.5715,-6.5715,-6.5715,-6.7891,-6.882,-6.7927,-6.6516,-6.6959,-6.9584,-7.2439,-7.2835,-6.984,-6.864,-6.8854,-7.0131,-7.025,-7.11,-7.2834,-7.4779,-7.5947,-7.5511,-7.6879,-7.8255,-3.3322,-3.4857,-3.4975,-3.5722,-3.6814,-3.688,-3.6923,-3.6689,-3.6754,-3.6554,-3.636,-3.9107,-4.1343,-4.3082,-4.4582,-4.5467,-4.5583,-4.5635,-4.5635,-4.5864,-4.5864,-4.5864,-4.5864,-4.5864,-4.5864,-4.5864,-4.5864,-4.5419,-4.4512,-4.4512,-4.4099,-4.3232,-4.3825,-4.4268,-4.4649,-4.4353,-4.5621,-4.8411,-5.0234,-5.1708,-5.2928,-5.2015,-5.08,-4.9227,-4.9322,-4.8891,-4.7735,-4.7669,-4.7648,-4.7596,-4.6406,-4.5964,-4.6322,-4.2164,-3.9389,0.0,-3.4326,0.0,0.0,0.0,0.0,0.0,0.0,0.0,0.0,-3.3372,-3.4859,-3.8314,-4.1253,-4.3143,-4.3465,-4.4799,-4.6268,-4.768,-4.8928,-5.0242,-5.1653,-5.1916,-5.1916,-5.1916,-5.1019,-4.9356,-4.7236,-5.1407,-5.7521,-6.3157,-6.3441,-6.3053,-6.4791,-6.5358,-6.5608,-6.5715,-6.5715,-6.5715,-6.5787,-6.6108,-6.6446,-6.6143,-6.5841,-6.634,-6.807,-6.9892,-7.0561,-6.8738,-6.7363,-6.7512,-6.98,-7.0102,-7.0916,-7.294,-7.4802,-7.5101,-7.3002,-7.4436,-7.6535,-3.1965,-3.3598,-3.414,-3.5032,-3.599,-3.5934,-3.6112,-3.6289,-3.6283,-3.6216,-3.6319,-3.8729,-4.086,-4.2669,-4.3487,-4.4207,-4.4847,-4.4876,-4.5039,-4.5092,-4.5092,-4.4873,-4.4405,-4.4405,-4.4368,-4.4353,-4.439,-4.391,-4.3067,-4.3007,-4.2537,-4.1767,-4.2001,-4.2534,-4.3342,-4.3051,-4.4059,-4.652,-4.8102,-4.9725,-5.1391,-5.1124,-5.053,-4.9716,-4.9871,-4.9999,-5.0039,-4.9976,-4.9653,-4.8846,-4.8182,-4.6879,-4.4697,-4.0412,-3.6856,0.0,0.0,0.0,0.0,0.0,0.0,0.0,0.0,0.0,0.0,0.0,-3.1437,-3.4961,-3.9272,-4.1979,-4.2151,-4.3466,-4.4584,-4.5176,-4.5973,-4.66,-4.7083,-4.8327,-4.8591,-4.7313,-4.8181,-4.7945,-4.5701,-5.034,-5.6117,-6.1841,-6.0391,-5.9489,-6.1492,-6.3396,-6.4431,-6.4467,-6.5144,-6.5715,-6.5715,-6.5715,-6.5715,-6.5715,-6.5715,-6.566,-6.5692,-6.6891,-6.7208,-6.5365,-6.4479,-6.4784,-6.7044,-6.7561,-6.815,-7.0261,-7.2212,-7.2964,-7.2009,-7.3449,-7.5189,-3.142,-3.3053,-3.3332,-3.3866,-3.4384,-3.447,-3.4868,-3.5451,-3.5456,-3.5672,-3.6225,-3.7976,-3.9294,-4.0265,-4.0807,-4.17,-4.285,-4.3171,-4.3621,-4.4091,-4.411,-4.3753,-4.3174,-4.3157,-4.3093,-4.3171,-4.3626,-4.312,-4.1864,-4.2245,-4.2018,-4.0896,-4.0364,-4.0831,-4.2263,-4.2454,-4.333,-4.5052,-4.6555,-4.8145,-4.964,-5.008,-5.0179,-4.9838,-4.9787,-5.0179,-5.0989,-5.1055,-5.0434,-4.9005,-4.8267,-4.6319,-4.2875,-3.7934,0.0,0.0,0.0,0.0,0.0,0.0,0.0,0.0,0.0,-2.3449,-2.3961,0.0,-2.8357,0.0,-3.6835,-3.952,-3.8811,-4.0312,0.0,0.0,-4.1939,-4.2455,-4.3029,-4.4113,-4.4488,-4.3704,-4.6112,-4.7156,-4.5329,-4.925,-5.3999,-5.8602,-5.7479,-5.6745,-5.8462,-6.1113,-6.2825,-6.2897,-6.3524,-6.4324,-6.4467,-6.4788,-6.5002,-6.5247,-6.4991,-6.4481,-6.3514,-6.3644,-6.3369,-6.1976,-6.1331,-6.1856,-6.3882,-6.465,-6.5419,-6.6792,-6.8619,-7.0141,-7.0655,-7.1749,-7.3058,-3.3444,-3.4972,-3.2791,-3.1877,-3.1777,-3.178,-3.26,-3.3957,-3.4018,-3.4259,-3.4859,-3.6674,-3.6466,-3.478,-3.6887,0.0,-3.9161,-4.0481,-4.1734,-4.2871,-4.2919,-4.3005,-4.3142,-4.3081,-4.3119,-4.3202,-4.4999,-4.4462,-4.1994,-4.3722,-4.3613,-4.1688,-3.9548,-3.9325,-4.0976,-4.2613,-4.4163,-4.558,-4.7377,-4.9018,-5.0567,-5.0693,-5.0693,-5.06,-4.9296,-4.8603,-4.8703,-4.8737,-4.7998,-4.6525,-4.4037,-4.2102,-4.0864,0.0,0.0,0.0,0.0,0.0,0.0,0.0,0.0,0.0,0.0,0.0,0.0,0.0,0.0,0.0,-3.3969,0.0,-3.1826,-3.401,0.0,0.0,0.0,-3.9109,-4.2001,-4.0194,-4.0313,-4.4165,0.0,0.0,-4.5867,-4.748,-5.0805,-5.5983,-5.6501,-5.6929,-5.8509,-6.0007,-6.122,-6.1113,-6.0481,-6.0339,-6.1243,-6.2098,-6.3018,-6.4089,-6.308,-6.2084,-6.1787,-6.0282,-5.906,-5.9688,-5.8935,-5.8756,-6.0572,-6.2532,-6.3672,-6.4192,-6.5393,-6.6266,-6.6278,-6.7924,-6.9992,-3.1003,-3.0741,-3.0464,-3.0356,-3.037,-3.0639,-3.1644,-3.2982,-3.3041,-3.326,-3.3743,-3.4412,-3.4006,-3.2775,-3.3741,0.0,0.0,0.0,-3.8999,-4.0073,-4.1456,-4.1517,-4.0797,-4.1816,-4.2344,-4.2435,-4.3162,-4.2521,-4.0765,-4.1574,-4.1091,-3.9467,0.0,0.0,-4.102,-4.2245,-4.3218,-4.4025,-4.6338,-4.8359,-4.9883,-5.0986,-5.1407,-5.1023,-4.8628,-4.7656,-4.8393,-4.759,-4.6119,-4.3911,-4.0882,-3.7367,0.0,0.0,0.0,0.0,0.0,0.0,0.0,0.0,0.0,0.0,0.0,-1.8001,-1.8645,0.0,0.0,0.0,-2.7664,-2.9027,-2.9768,-3.1663,0.0,0.0,0.0,0.0,0.0,0.0,0.0,-3.4433,-3.9848,-4.4349,-4.6254,-4.714,-4.835,-5.042,-5.1541,-5.2372,-5.2979,0.0,-5.8223,-5.8259,-5.787,-5.774,-5.8143,-5.8593,-6.0256,-6.4298,-6.0358,-5.7077,-5.8665,-5.839,-5.8025,-5.8563,-5.8439,-5.8709,-6.058,-6.1885,-6.2697,-6.2424,-6.4109,-6.467,-6.2167,-6.3985,-6.6839,-2.8213,0.0,0.0,0.0,0.0,-2.8023,-2.8894,-3.0249,-3.0287,-3.0503,-3.0852,-3.0896,0.0,0.0,0.0,0.0,0.0,0.0,-3.5508,-3.6256,-3.899,-3.9687,-3.8712,-3.9937,-4.0584,-4.0678,-4.0804,-4.0007,-3.8386,-3.7473,-3.6591,-3.5788,0.0,0.0,0.0,0.0,-4.1902,-4.3037,-4.5247,-4.7381,-4.9342,-5.0236,-5.0697,-5.0782,-4.7787,-4.636,-4.6756,-4.5462,-4.3173,-3.9985,-3.6947,0.0,0.0,0.0,0.0,0.0,0.0,0.0,0.0,0.0,0.0,0.0,0.0,0.0,0.0,0.0,0.0,0.0,0.0,0.0,-2.7688,-2.8922,-2.9634,0.0,0.0,0.0,0.0,0.0,0.0,0.0,0.0,0.0,-4.6506,-4.6661,-4.6196,0.0,0.0,-5.0446,-4.9693,-5.3079,-5.5583,-5.5076,-5.5023,0.0,-5.3867,-5.4897,-5.7213,-6.127,-5.7271,-5.4017,-5.5839,-5.7098,-5.7688,-5.6948,-5.7301,-5.7572,-5.7926,-5.825,-5.8325,-5.8213,-6.107,-6.2075,-5.7735,-5.8856,-6.2375,0.0,0.0,0.0,0.0,0.0,0.0,0.0,0.0,-2.5168,-2.5416,0.0,-2.5935,0.0,0.0,0.0,0.0,0.0,-2.9443,0.0,0.0,-3.5172,-3.7214,-3.7513,-3.762,-3.7806,-3.8017,-3.8498,-3.7211,-3.4261,-3.1326,0.0,0.0,0.0,0.0,0.0,0.0,-4.0489,-4.3445,-4.4479,-4.6426,-4.9206,-4.8131,-4.8097,-4.9342,-4.6563,-4.4347,-4.3029,-4.1737,-3.8915,-3.4466,-3.1711,0.0,0.0,0.0,0.0,0.0,0.0,0.0,0.0,0.0,0.0,0.0,0.0,0.0,0.0,0.0,0.0,0.0,0.0,0.0,0.0,-2.5116,0.0,0.0,0.0,0.0,0.0,0.0,0.0,0.0,0.0,0.0,-4.603,-4.5482,-4.4201,-4.2792,0.0,0.0,0.0,0.0,-5.3585,-5.2158,-5.1909,-5.0869,-4.794,-5.1395,-5.412,-5.3293,0.0,0.0,-5.3554,-5.6069,-5.7211,-5.4204,-5.4869,-5.4709,-5.0507,-4.9838,-4.9763,-5.0007,-5.4971,-5.6735,-5.1427,-5.2192,-5.6388,0.0,0.0,0.0,0.0,0.0,0.0,0.0,0.0,0.0,-2.3341,0.0,-2.3693,0.0,0.0,0.0,0.0,0.0,0.0,0.0,0.0,-3.2076,-3.3851,-3.4753,-3.5816,-3.6524,0.0,-3.5943,-3.2723,0.0,0.0,0.0,0.0,0.0,0.0,0.0,0.0,-4.0167,-4.2241,-4.4098,-4.6491,-4.9276,-4.8403,-4.8369,-4.9378,-4.7582,-4.5005,-4.1719,-3.9241,-3.5929,0.0,0.0,0.0,0.0,0.0,0.0,0.0,0.0,0.0,0.0,0.0,0.0,0.0,0.0,0.0,0.0,0.0,0.0,0.0,0.0,0.0,0.0,0.0,-2.4548,0.0,0.0,0.0,0.0,0.0,0.0,0.0,0.0,0.0,-3.2572,-3.782,-4.2283,-4.2816,-4.677,-4.9742,-5.007,0.0,0.0,0.0,0.0,0.0,0.0,0.0,-5.0036,-4.9789,-5.0185,-5.0383,-5.0045,-5.3117,-5.4569,-5.1237,0.0,0.0,-4.8138,-4.5057,-4.42,-4.8362,-5.1019,-5.0662,-4.4162,-4.5431,-4.9728,0.0,0.0,0.0,0.0,0.0,0.0,0.0,0.0,0.0,-2.0622,-2.0699,0.0,0.0,0.0,0.0,0.0,0.0,0.0,0.0,0.0,0.0,0.0,-3.12,-3.2284,0.0,0.0,0.0,0.0,0.0,0.0,0.0,0.0,0.0,0.0,0.0,0.0,-3.8913,-4.0905,-4.3771,-4.6643,-4.9396,-4.7974,-4.7906,-4.9464,-4.7616,-4.5052,-4.185,0.0,0.0,0.0,0.0,0.0,0.0,0.0,0.0,0.0,0.0,0.0,0.0,0.0,0.0,0.0,0.0,0.0,0.0,0.0,0.0,0.0,0.0,0.0,0.0,0.0,-2.3148,0.0,0.0,0.0,0.0,0.0,0.0,0.0,0.0,0.0,0.0,0.0,-3.9712,-4.1474,-4.601,-4.9467,-5.0511,-5.2347,-5.3365,0.0,0.0,0.0,0.0,0.0,0.0,0.0,0.0,0.0,0.0,0.0,0.0,0.0,0.0,-4.436,-4.2939,-4.0946,-4.0428,-4.3653,0.0,0.0,0.0,0.0,0.0,0.0,0.0,0.0,0.0,0.0,0.0,0.0,0.0,0.0,0.0,0.0,0.0,0.0,-1.7835,0.0,0.0,0.0,0.0,0.0,0.0,0.0,0.0,0.0,0.0,0.0,0.0,0.0,0.0,0.0,0.0,0.0,0.0,0.0,0.0,0.0,0.0,-3.6599,-3.9449,-4.3365,-4.6745,-4.9413,-4.6594,-4.654,-4.9379,-4.654,-4.4296,-4.3107,0.0,0.0,0.0,0.0,0.0,0.0,0.0,0.0,0.0,0.0,0.0,0.0,0.0,0.0,0.0,0.0,0.0,0.0,0.0,0.0,0.0,0.0,0.0,0.0,0.0,0.0,-1.9606,-1.9204,-1.925,0.0,0.0,0.0,0.0,0.0,0.0,0.0,0.0,0.0,0.0,-4.6859,-5.2458,-5.1982,-5.252,-5.3033,-5.3052,-5.1694,-5.0813,-5.1246,-5.2403,-5.2217,0.0,0.0,0.0,0.0,0.0,0.0,0.0,0.0,0.0,0.0,0.0,0.0,0.0,0.0,0.0,0.0,0.0,0.0,0.0,0.0,0.0,0.0,0.0,0.0,0.0,0.0,0.0,0.0,0.0,0.0,0.0,0.0,0.0,0.0,0.0,0.0,0.0,0.0,0.0,0.0,0.0,0.0,0.0,0.0,0.0,0.0,0.0,0.0,0.0,0.0,0.0,0.0,0.0,0.0,-3.5401,-3.9414,-4.2297,-4.5774,-5.0005,-4.8566,-4.8604,-5.0171,-4.6119,-4.3277,0.0,0.0,0.0,0.0,0.0,0.0,0.0,0.0,0.0,0.0,0.0,0.0,0.0,0.0,0.0,0.0,0.0,0.0,0.0,0.0,0.0,0.0,0.0,0.0,0.0,0.0,0.0,0.0,-2.1541,-2.0359,-1.9306,0.0,0.0,0.0,0.0,0.0,0.0,0.0,0.0,0.0,0.0,-4.9878,-5.5171,-5.5113,-5.4159,-5.3312,-5.2752,-5.221,-5.1534,-5.1719,-5.12,-4.9094,0.0,0.0,0.0,0.0,0.0,0.0,0.0,0.0,0.0,0.0,0.0,0.0,0.0,0.0,0.0,0.0,0.0,0.0,0.0,0.0,0.0,0.0,0.0,0.0,0.0,0.0,0.0,0.0,0.0,0.0,0.0,0.0,0.0,0.0,0.0,0.0,0.0,0.0,0.0,0.0,0.0,0.0,0.0,0.0,0.0,0.0,0.0,0.0,0.0,0.0,0.0,0.0,0.0,-3.4738,-3.8521,-4.2201,-4.6124,-5.0062,-4.8581,-4.8615,-5.0684,-4.5975,-4.2631,0.0,0.0,0.0,0.0,0.0,0.0,0.0,0.0,0.0,0.0,0.0,0.0,0.0,0.0,0.0,0.0,0.0,0.0,0.0,0.0,0.0,0.0,0.0,0.0,0.0,0.0,0.0,0.0,-2.1417,-2.0401,-1.9444,0.0,0.0,0.0,0.0,0.0,0.0,0.0,0.0,0.0,0.0,-4.8425,-5.7019,-5.572,0.0,0.0,-5.366,-5.2597,-5.1572,-5.2339,-5.1907,-4.8519,-4.6754,0.0,0.0,0.0,0.0,0.0,0.0,0.0,0.0,0.0,0.0,0.0,0.0,0.0,0.0,0.0,0.0,0.0,0.0,0.0,0.0,0.0,0.0,0.0,0.0,0.0,0.0,0.0,0.0,0.0,0.0,0.0,0.0,0.0,0.0,0.0,0.0,0.0,0.0,0.0,0.0,0.0,0.0,0.0,0.0,0.0,0.0,0.0,0.0,0.0,0.0,0.0,0.0,0.0,-3.7252,-4.2799,-4.7222,-5.0193,-4.7239,-4.7236,-5.059,-4.5963,-4.2269,0.0,0.0,0.0,0.0,0.0,0.0,0.0,0.0,0.0,0.0,0.0,0.0,0.0,0.0,0.0,0.0,0.0,0.0,0.0,0.0,0.0,0.0,0.0,0.0,0.0,0.0,0.0,0.0,0.0,0.0,0.0,0.0,0.0,0.0,0.0,0.0,0.0,0.0,0.0,0.0,0.0,-4.7596,-5.7409,-5.4635,-5.2626,0.0,0.0,-5.2133,-5.1206,-5.3441,-5.3275,-4.7124,0.0,0.0,0.0,0.0,0.0,0.0,0.0,0.0,0.0,0.0,0.0,0.0,0.0,0.0,0.0,0.0,0.0,0.0,0.0,0.0,0.0,0.0,0.0,0.0,0.0,0.0,0.0,0.0,0.0,0.0,0.0,0.0,0.0,0.0,0.0,0.0,0.0,0.0,0.0,0.0,0.0,0.0,0.0,0.0,0.0,0.0,0.0,0.0,0.0,0.0,0.0,0.0,0.0,0.0,-3.7577,-4.2263,-4.6768,-5.0654,-4.7831,-4.7887,-5.1195,-4.5379,0.0,0.0,0.0,0.0,0.0,0.0,0.0,0.0,0.0,0.0,0.0,0.0,0.0,0.0,0.0,0.0,0.0,0.0,0.0,0.0,0.0,0.0,0.0,0.0,0.0,0.0,0.0,-1.8868,0.0,0.0,0.0,0.0,0.0,0.0,0.0,0.0,0.0,0.0,0.0,0.0,0.0,0.0,-4.4382,-5.4128,-5.238,-5.0331,0.0,0.0,-5.1595,-4.8572,-4.9702,-4.916,0.0,0.0,0.0,0.0,0.0,0.0,0.0,0.0,0.0,0.0,0.0,0.0,0.0,0.0,0.0,0.0,0.0,0.0,0.0,0.0,0.0,0.0,0.0,0.0,0.0,0.0,0.0,0.0,0.0,0.0,0.0,0.0,0.0,0.0,0.0,0.0,0.0,0.0,0.0,0.0,0.0,0.0,0.0,0.0,0.0,0.0,0.0,0.0,0.0,0.0,0.0,0.0,0.0,0.0,-3.4875,-3.7831,-4.2243,-4.6628,-5.0839,-4.8076,-4.8133,-5.1582,-4.5335,-4.1075,0.0,0.0,0.0,0.0,0.0,0.0,0.0,0.0,0.0,0.0,0.0,0.0,0.0,0.0,0.0,0.0,0.0,0.0,0.0,0.0,0.0,0.0,0.0,0.0,0.0,0.0,0.0,0.0,0.0,0.0,0.0,0.0,0.0,0.0,0.0,0.0,0.0,0.0,0.0,0.0,0.0,0.0,-5.0752,-4.8851,0.0,0.0,0.0,-4.6853,-4.6139,0.0,0.0,0.0,0.0,0.0,0.0,0.0,0.0,0.0,0.0,0.0,0.0,0.0,0.0,0.0,0.0,0.0,0.0,0.0,0.0,0.0,0.0,0.0,0.0,0.0,0.0,0.0,0.0,0.0,0.0,0.0,0.0,0.0,0.0,0.0,0.0,0.0,0.0,0.0,0.0,0.0,0.0,0.0,0.0,0.0,0.0,0.0,0.0,0.0,0.0,0.0,0.0,0.0,0.0,0.0,0.0,0.0,-3.8038,-4.2425,-4.6756,-5.0564,-4.8011,-4.8027,-5.1231,-4.57,-4.1124,0.0,0.0,0.0,0.0,0.0,0.0,0.0,0.0,0.0,0.0,0.0,0.0,0.0,0.0,0.0,0.0,0.0,0.0,0.0,0.0,0.0,0.0,0.0,0.0,0.0,0.0,0.0,0.0,0.0,0.0,0.0,0.0,0.0,0.0,0.0,0.0,0.0,0.0,0.0,0.0,0.0,-3.7881,-4.6972,-4.4636,-4.286,0.0,0.0,-4.0816,-4.3441,-4.3721,0.0,0.0,0.0,0.0,0.0,0.0,0.0,0.0,0.0,0.0,0.0,0.0,0.0,0.0,0.0,0.0,0.0,0.0,0.0,0.0,0.0,0.0,0.0,0.0,0.0,0.0,0.0,0.0,0.0,0.0,0.0,0.0,0.0,0.0,0.0,0.0,0.0,0.0,0.0,0.0,0.0,0.0,0.0,0.0,0.0,0.0,0.0,0.0,0.0,0.0,0.0,0.0,0.0,0.0,0.0,0.0,-3.8469,-4.2659,-4.6432,-4.951,-4.7601,-4.753,-4.9661,-4.5905,-4.1961,0.0,0.0,0.0,0.0,0.0,0.0,0.0,0.0,0.0,0.0,0.0,0.0,0.0,0.0,0.0,0.0,0.0,0.0,0.0,0.0,0.0,0.0,0.0,0.0,0.0,0.0,0.0,0.0,0.0,0.0,0.0,0.0,0.0,0.0,0.0,0.0,0.0,0.0,0.0,0.0,0.0,-3.4998,-4.0777,-4.0877,0.0,0.0,0.0,0.0,-3.8878,-3.8409,0.0,0.0,0.0,0.0,0.0,0.0,0.0,0.0,0.0,0.0,0.0,0.0,0.0,0.0,0.0,0.0,0.0,0.0,0.0,0.0,0.0,0.0,0.0,0.0,0.0,0.0,0.0,0.0,0.0,0.0,0.0,0.0,0.0,0.0,0.0,0.0,0.0,0.0,0.0,0.0,0.0,0.0,0.0,0.0,0.0,0.0,0.0,0.0,0.0,0.0,0.0,0.0,0.0,0.0,0.0,0.0,-3.8477,-4.2012,-4.5619,-4.9162,-4.7617,-4.7581,-4.9236,-4.5375,-4.1498,0.0,0.0,0.0,0.0,0.0,0.0,0.0,0.0,0.0,0.0,0.0,0.0,0.0,0.0,0.0,0.0,0.0,0.0,0.0,0.0,0.0,0.0,0.0,0.0,0.0,0.0,0.0,0.0,0.0,0.0,0.0,0.0,0.0,0.0,0.0,0.0,0.0,0.0,0.0,0.0,-2.9937,-3.1811,-3.6712,0.0,0.0,0.0,0.0,0.0,0.0,-3.5953,-3.5346,0.0,0.0,0.0,0.0,0.0,0.0,0.0,0.0,0.0,0.0,0.0,0.0,0.0,0.0,0.0,0.0,0.0,0.0,0.0,0.0,0.0,0.0,0.0,0.0,0.0,0.0,0.0,0.0,0.0,0.0,0.0,0.0,0.0,0.0,0.0,0.0,0.0,0.0,0.0,0.0,0.0,0.0,0.0,0.0,0.0,0.0,0.0,0.0,0.0,0.0,0.0,0.0,0.0,0.0,0.0,-3.7911,-4.1196,-4.4728,-4.8486,-4.7556,-4.7663,-4.8769,-4.488,-4.1063,-3.7807,0.0,0.0,0.0,0.0,0.0,0.0,0.0,0.0,0.0,0.0,0.0,0.0,0.0,0.0,0.0,0.0,0.0,0.0,0.0,0.0,0.0,0.0,0.0,0.0,0.0,0.0,0.0,0.0,0.0,0.0,0.0,0.0,0.0,0.0,0.0,0.0,0.0,0.0,0.0,-2.7636,-2.8679,0.0,0.0,0.0,0.0,0.0,0.0,0.0,0.0,-3.3452,0.0,0.0,0.0,0.0,0.0,0.0,0.0,0.0,0.0,0.0,0.0,0.0,0.0,0.0,0.0,0.0,0.0,0.0,0.0,0.0,0.0,0.0,0.0,0.0,0.0,0.0,0.0,0.0,0.0,0.0,0.0,0.0,0.0,0.0,0.0,0.0,0.0,0.0,0.0,0.0,0.0,0.0,0.0,0.0,0.0,0.0,0.0,0.0,0.0,0.0,0.0,0.0,0.0,0.0,0.0,0.0,-4.0834,-4.3844,-4.538,-4.6487,-4.7164,-4.7378,-4.5379,-4.2337,-3.8102,0.0,0.0,0.0,0.0,0.0,0.0,0.0,0.0,0.0,0.0,0.0,0.0,0.0,0.0,0.0,0.0,0.0,0.0,0.0,0.0,0.0,0.0,0.0,0.0,0.0,0.0,0.0,0.0,0.0,0.0,0.0,0.0,0.0,0.0,0.0,0.0,0.0,0.0,-2.3578,-2.4535,0.0,0.0,0.0,0.0,0.0,0.0,0.0,0.0,-3.1762,0.0,0.0,0.0,0.0,0.0,0.0,0.0,0.0,0.0,0.0,0.0,0.0,0.0,0.0,0.0,0.0,0.0,0.0,0.0,0.0,0.0,0.0,0.0,0.0,0.0,0.0,0.0,0.0,0.0,0.0,0.0,0.0,0.0,0.0,0.0,0.0,0.0,0.0,0.0,0.0,0.0,0.0,0.0,0.0,0.0,0.0,0.0,0.0,0.0,0.0,0.0,0.0,0.0,0.0,0.0,0.0,0.0,0.0,-4.3699,-4.4897,-4.638,-4.7096,-4.6951,-4.4118,-4.083,0.0,0.0,0.0,0.0,0.0,0.0,0.0,0.0,0.0,0.0,0.0,0.0,0.0,0.0,0.0,0.0,0.0,0.0,0.0,0.0,0.0,0.0,0.0,0.0,0.0,0.0,0.0,0.0,0.0,0.0,0.0,0.0,0.0,0.0,0.0,0.0,0.0,0.0,0.0,0.0,0.0,0.0,0.0,0.0,0.0,0.0,0.0,0.0,0.0,0.0,0.0,0.0,0.0,0.0,0.0,0.0,0.0,0.0,0.0,0.0,0.0,0.0,0.0,0.0,0.0,0.0,0.0,0.0,0.0,0.0,0.0,0.0,0.0,0.0,0.0,0.0,0.0,0.0,0.0,0.0,0.0,0.0,0.0,0.0,0.0,0.0,0.0,0.0,0.0,0.0,0.0,0.0,0.0,0.0,0.0,0.0,0.0,0.0,0.0,0.0,0.0,0.0,0.0,0.0,0.0,0.0,0.0,0.0,-4.3771,-4.4664,-4.647,-4.7203,-4.6668,-4.2088,-3.821,0.0,0.0,0.0,0.0,0.0,0.0,0.0,0.0,0.0,0.0,0.0,0.0,0.0,0.0,0.0,0.0,0.0,0.0,0.0,0.0,0.0,0.0,0.0,0.0,0.0,0.0,0.0,0.0,0.0,0.0,0.0,0.0,0.0,0.0,0.0,0.0,0.0,0.0,0.0,0.0,0.0,0.0,0.0,0.0,0.0,0.0,0.0,0.0,-2.5561,0.0,0.0,0.0,0.0,0.0,0.0,0.0,0.0,0.0,0.0,0.0,0.0,0.0,0.0,0.0,0.0,0.0,0.0,0.0,0.0,0.0,0.0,0.0,0.0,0.0,0.0,0.0,0.0,0.0,0.0,0.0,0.0,0.0,0.0,0.0,0.0,0.0,0.0,0.0,0.0,0.0,0.0,0.0,0.0,0.0,0.0,0.0,0.0,0.0,0.0,0.0,0.0,0.0,0.0,0.0,0.0,0.0,0.0,0.0,-4.3659,-4.34,-4.6356,-4.7152,-4.5415,-3.9606,-3.5026,0.0,0.0,0.0,0.0,0.0,0.0,0.0,0.0,0.0,0.0,0.0,0.0,0.0,0.0,0.0,0.0,0.0,0.0,0.0,0.0,0.0,0.0,0.0,0.0,0.0,0.0,0.0,0.0,0.0,0.0,0.0,0.0,0.0,0.0,0.0,0.0,0.0,0.0,0.0,0.0,0.0,0.0,0.0,0.0,0.0,0.0,0.0,0.0,0.0,0.0,0.0,0.0,0.0,0.0,0.0,0.0,0.0,0.0,0.0,0.0,0.0,0.0,0.0,0.0,0.0,0.0,0.0,0.0,0.0,0.0,0.0,0.0,0.0,0.0,0.0,0.0,0.0,0.0,0.0,0.0,0.0,0.0,0.0,0.0,0.0,0.0,0.0,0.0,0.0,0.0,0.0,0.0,0.0,0.0,0.0,0.0,0.0,0.0,0.0,0.0,0.0,0.0,0.0,0.0,0.0,0.0,0.0,0.0,-4.1515,-4.2111,-4.4286,-4.3746,-4.0192,-3.5851,-3.259,0.0,0.0,0.0,0.0,0.0,0.0,0.0,0.0,0.0,0.0,0.0,0.0,0.0,0.0,0.0,0.0,0.0,0.0,0.0,0.0,0.0,0.0,0.0,0.0,0.0,0.0,0.0,0.0,0.0,0.0,0.0,0.0,0.0,0.0,0.0,0.0,0.0,0.0,0.0,0.0,0.0,0.0,0.0,0.0,0.0,0.0,0.0,0.0,0.0,0.0,0.0,0.0,0.0,0.0,0.0,0.0,0.0,0.0,0.0,0.0,0.0,0.0,0.0,0.0,0.0,0.0,0.0,0.0,0.0,0.0,0.0,0.0,0.0,0.0,0.0,0.0,0.0,0.0,0.0,0.0,0.0,0.0,0.0,0.0,0.0,0.0,0.0,0.0,0.0,0.0,0.0,0.0,0.0,0.0,0.0,0.0,0.0,0.0,0.0,0.0,0.0,0.0,0.0,0.0,0.0,0.0,0.0,0.0,0.0,-3.9969,-4.0678,-3.9387,-3.5853,-3.2723,-3.0164,0.0,0.0,0.0,0.0,0.0,0.0,0.0,0.0,0.0,0.0,0.0,0.0,0.0,0.0,0.0,0.0,0.0,0.0,0.0,0.0,0.0,0.0,0.0,0.0,0.0,0.0,0.0,0.0,0.0,0.0,0.0,0.0,0.0,0.0,0.0,0.0,0.0,0.0,0.0,0.0,0.0,0.0,0.0,0.0,0.0,0.0,0.0,0.0,0.0,0.0,0.0,0.0,0.0,0.0,0.0,0.0,0.0,0.0,0.0,0.0,0.0,0.0,0.0,0.0,0.0,0.0,0.0,0.0,0.0,0.0,0.0,0.0,0.0,0.0,0.0,0.0,0.0,0.0,0.0,0.0,0.0,0.0,0.0,0.0,0.0,0.0,0.0,0.0,0.0,0.0,0.0,0.0,0.0,0.0,0.0,0.0,0.0,0.0,0.0,0.0,0.0,0.0,0.0,0.0,0.0,0.0,0.0,0.0,0.0,-3.6254,-3.5148,-3.4399,-3.4045,-3.0699,-2.7515,0.0,0.0,0.0,0.0,0.0,0.0,0.0,0.0,0.0,0.0,0.0,0.0,0.0,0.0,0.0,0.0,0.0,0.0,0.0,0.0,0.0,0.0,0.0,0.0,0.0,0.0,0.0,0.0,0.0,0.0,0.0,0.0,0.0,0.0,0.0,0.0,0.0,0.0,0.0,0.0,0.0,0.0,0.0,0.0,0.0,0.0,0.0,0.0,0.0,0.0,0.0,0.0,0.0,0.0,0.0,0.0,0.0,0.0,0.0,0.0,0.0,0.0,0.0,0.0,0.0,0.0,0.0,0.0,0.0,0.0,0.0,0.0,0.0,0.0,0.0,0.0,0.0,0.0,0.0,0.0,0.0,0.0,0.0,0.0,0.0,0.0,0.0,0.0,0.0,0.0,0.0,0.0,0.0,0.0,0.0,0.0,0.0,0.0,0.0,0.0,0.0,0.0,0.0,0.0,0.0,0.0,0.0,0.0,0.0,-2.8867,-2.8209,-2.8528,-2.9866,-2.5933,-2.3868,-2.4028,0.0,0.0,0.0,0.0,0.0,0.0,0.0,0.0,0.0,0.0,0.0,0.0,0.0,0.0,0.0,0.0,0.0,0.0,0.0,0.0,0.0,0.0,0.0,0.0,0.0,0.0,0.0,0.0,0.0,0.0,0.0,0.0,0.0,0.0,0.0,0.0,0.0,0.0,0.0,0.0,0.0,0.0,0.0,0.0,0.0,0.0,0.0,0.0,0.0,0.0,0.0,0.0,0.0,0.0,0.0,0.0,0.0,0.0,0.0,0.0,0.0,0.0,0.0,0.0,0.0,0.0,0.0,0.0,0.0,0.0,0.0,0.0,0.0,0.0,0.0,0.0,0.0,0.0,0.0,0.0,0.0,0.0,0.0,0.0,0.0,0.0,0.0,0.0,0.0,0.0,0.0,0.0,0.0,0.0,0.0,0.0,0.0,0.0,0.0,0.0,0.0,0.0,0.0,0.0,0.0,0.0,0.0,0.0,-2.4236,-2.417,-2.4698,-2.5583,-2.2305,-2.1083,0.0,0.0,0.0,0.0,0.0,0.0,0.0,0.0,0.0,0.0,0.0,0.0,0.0,0.0,0.0,0.0,0.0,0.0,0.0,0.0,0.0,0.0,0.0,0.0,0.0,0.0,0.0,0.0,0.0,0.0,0.0,0.0,0.0,0.0,0.0,0.0,0.0,0.0,0.0,0.0,0.0,0.0,0.0,0.0,0.0,0.0,0.0,0.0,0.0,0.0,0.0,0.0,0.0,0.0,0.0,0.0,0.0,0.0,0.0,0.0,0.0,0.0,0.0,0.0,0.0,0.0,0.0,0.0,0.0,0.0,0.0,0.0,0.0,0.0,0.0,0.0,0.0,0.0,0.0,0.0,0.0,0.0,0.0,0.0,0.0,0.0,0.0,0.0,0.0,0.0,0.0,0.0,0.0,0.0,0.0,0.0,0.0,0.0,0.0,0.0,0.0,0.0,0.0,0.0,0.0,0.0,0.0,0.0,-2.2063,-2.3218,-2.3511,-2.3107,-2.2224,-2.0401,-1.9334,0.0,0.0,0.0,0.0,0.0,0.0,0.0,0.0,0.0,0.0,0.0,0.0,0.0,0.0,0.0,0.0,0.0,0.0,0.0,0.0,0.0,0.0,0.0,0.0,0.0,0.0,0.0,0.0,0.0,0.0,0.0,0.0,0.0,0.0,0.0,0.0,0.0,0.0,0.0,0.0,0.0,0.0,0.0,0.0,0.0,0.0,0.0,0.0,0.0,0.0,0.0,0.0,0.0,0.0,0.0,0.0,0.0,0.0,0.0,0.0,0.0,0.0,0.0,0.0,0.0,0.0,0.0,0.0,0.0,0.0,0.0,0.0,0.0,0.0,0.0,0.0,0.0,0.0,0.0,0.0,0.0,0.0,0.0,0.0,0.0,0.0,0.0,0.0,0.0,0.0,0.0,0.0,0.0,0.0,0.0,0.0,0.0,0.0,0.0,0.0,0.0,0.0,0.0,0.0,0.0,0.0,0.0,0.0,0.0,-1.8838,0.0,-1.7949,0.0,-1.6195,-1.5461,0.0,0.0,0.0,0.0,0.0,0.0,0.0,0.0,0.0,0.0,0.0,0.0,0.0,0.0,0.0,0.0,0.0,0.0,0.0,0.0,0.0,0.0,0.0,0.0,0.0,0.0,0.0,0.0,0.0,0.0,0.0,0.0,0.0,0.0,0.0,0.0,0.0,0.0,0.0,0.0,0.0,0.0,0.0,0.0,0.0,0.0,0.0,0.0,0.0,0.0,0.0,0.0,0.0,0.0,0.0,0.0,0.0,0.0,0.0,0.0,0.0,0.0,0.0,0.0,0.0,0.0,0.0,0.0,0.0,0.0,0.0,0.0,0.0,0.0,0.0,0.0,0.0,0.0,0.0,0.0,0.0,0.0,0.0,0.0,0.0,0.0,0.0,0.0,0.0,0.0,0.0,0.0,0.0,0.0,0.0,0.0,0.0,0.0,0.0,0.0,0.0,0.0,0.0,0.0,0.0,0.0,0.0,0.0,0.0,-1.5863,-1.4526,-1.4419,-1.5693,-1.3084,-1.2571,0.0,0.0,0.0,0.0,0.0,0.0,0.0,0.0,0.0,0.0,0.0,0.0,0.0,0.0,0.0,0.0,0.0,0.0,0.0,0.0,0.0,0.0,0.0,0.0,0.0,0.0,0.0,0.0,0.0,0.0,0.0,0.0,0.0,0.0,0.0,0.0,0.0,0.0,0.0,0.0,0.0,0.0,0.0,0.0,0.0,0.0,0.0,0.0,0.0,0.0,0.0,0.0,0.0,0.0,0.0,0.0,0.0,0.0,0.0,0.0,0.0,0.0,0.0,0.0,0.0,0.0,0.0,0.0,0.0,0.0,0.0,0.0,0.0,0.0,0.0,0.0,0.0,0.0,0.0,0.0,0.0,0.0,0.0,0.0,0.0,0.0,0.0,0.0,0.0,0.0,0.0,0.0,0.0,0.0,0.0,0.0,0.0,0.0,0.0,0.0,0.0,0.0,0.0,0.0,0.0,0.0,0.0,0.0,0.0,0.0,-1.3363,-1.2403,-1.1282,-1.0968,-1.0632,0.0,0.0,0.0,0.0,0.0,0.0,0.0,0.0,0.0,0.0,0.0,0.0,0.0,0.0,0.0,0.0,0.0,0.0,0.0,0.0,0.0,0.0,0.0,0.0,0.0,0.0,0.0,0.0,0.0,0.0,0.0,0.0,0.0,0.0,0.0,0.0,0.0,0.0,0.0,0.0,0.0,0.0,0.0,0.0,0.0,0.0,0.0,0.0,0.0,0.0,0.0,0.0,0.0,0.0,0.0,0.0,0.0,0.0,0.0,0.0,0.0,0.0,0.0,0.0,0.0,0.0,0.0,0.0,0.0,0.0,0.0,0.0,0.0,0.0,0.0,0.0,0.0,0.0,0.0,0.0,0.0,0.0,0.0,0.0,0.0,0.0,0.0,0.0,0.0,0.0,0.0,0.0,0.0,0.0,0.0,0.0,0.0,0.0,0.0,0.0,0.0,0.0,0.0,0.0,0.0,0.0,0.0,0.0,0.0,0.0,-0.9397,0.0,-0.7736,-0.6871,-0.7146,-0.8703,0.0,0.0,0.0,0.0,0.0,0.0,0.0,0.0,0.0,0.0,0.0,0.0,0.0,0.0,0.0,0.0,0.0,0.0,0.0,0.0,0.0,0.0,0.0,0.0,0.0,0.0,0.0,0.0,0.0,0.0,0.0,0.0,0.0,0.0,0.0,0.0,0.0,0.0,0.0,0.0,0.0,0.0,0.0,0.0,0.0,0.0,0.0,0.0,0.0,0.0,0.0,0.0,0.0,0.0,0.0,0.0,0.0,0.0,0.0,0.0,0.0,0.0,0.0,0.0,0.0,0.0,0.0,0.0,0.0,0.0,0.0,0.0,0.0,0.0,0.0,0.0,0.0,0.0,0.0,0.0,0.0,0.0,0.0,0.0,0.0,0.0,0.0,0.0,0.0,0.0,0.0,0.0,0.0,0.0,0.0,0.0,0.0,0.0,0.0,0.0,0.0,0.0,0.0,0.0,0.0,0.0,0.0,0.0,0.0,0.0,0.0,-0.5644,-0.4778,-0.5045,0.0,0.0,0.0,0.0,0.0,0.0,0.0,0.0,0.0,0.0,0.0,0.0,0.0,0.0,0.0,0.0,0.0,0.0,0.0,0.0,0.0,0.0,0.0,0.0,0.0,0.0,0.0,0.0,0.0,0.0,0.0,0.0,0.0,0.0,0.0,0.0,0.0,0.0,0.0,0.0,0.0,0.0,0.0,0.0,0.0,0.0,0.0,0.0,0.0,0.0,0.0,0.0,0.0,0.0,0.0,0.0,0.0,0.0,0.0,0.0,0.0,0.0,0.0,0.0,0.0,0.0,0.0,0.0,0.0,0.0,0.0,0.0,0.0,0.0,0.0,0.0,0.0,0.0,0.0,0.0,0.0,0.0,0.0,0.0,0.0,0.0,0.0,0.0,0.0,0.0,0.0,0.0,0.0,0.0,0.0,0.0,0.0,0.0,0.0,0.0,0.0,0.0,0.0,0.0,0.0,0.0,0.0,0.0,0.0,0.0,0.0,-0.3593,-0.4577,-0.389,0.0,-0.42,0.0,0.0,0.0,0.0,0.0,0.0,0.0,0.0,0.0,0.0,0.0,0.0,0.0,0.0,0.0,0.0,0.0,0.0,0.0,0.0,0.0,0.0,0.0,0.0,0.0,0.0,0.0,0.0,0.0,0.0,0.0,0.0,0.0,0.0,0.0,0.0,0.0,0.0,0.0,0.0,0.0,0.0,0.0,0.0,0.0,0.0,0.0,0.0,0.0,0.0,0.0,0.0,0.0,0.0,0.0,0.0,0.0,0.0,0.0,0.0,0.0,0.0,0.0,0.0,0.0,0.0,0.0,0.0,0.0,0.0,0.0,0.0,0.0,0.0,0.0,0.0,0.0,0.0,0.0,0.0,0.0,0.0,0.0,0.0,0.0,0.0,0.0,0.0,0.0,0.0,0.0,0.0,0.0,0.0,0.0,0.0,0.0,0.0,0.0,0.0,0.0,0.0,0.0,0.0,0.0,0.0,0.0,0.0,0.0,0.0,0.0,0.0,-0.2394,-0.2075,-0.2223,0.0,0.0,0.0,0.0,0.0,0.0,0.0,0.0,0.0,0.0,0.0,0.0,0.0,0.0,0.0,0.0,0.0,0.0,0.0,0.0,0.0,0.0,0.0,0.0,0.0,0.0,0.0,0.0,0.0,0.0,0.0,0.0,0.0,0.0,0.0,0.0,0.0,0.0,0.0,0.0,0.0,0.0,0.0,0.0,0.0,0.0,0.0,0.0,0.0,0.0,0.0,0.0,0.0,0.0,0.0,0.0,0.0,0.0,0.0,0.0,0.0,0.0,0.0,0.0,0.0,0.0,0.0,0.0,0.0,0.0,0.0,0.0,0.0,0.0,0.0,0.0,0.0,0.0,0.0,0.0,0.0,0.0,0.0,0.0,0.0,0.0,0.0,0.0,0.0,0.0,0.0,0.0,0.0,0.0,0.0,0.0,0.0,0.0,0.0,0.0,0.0,0.0,0.0,0.0,0.0,0.0,0.0,0.0,0.0,0.0,-0.1588,-0.1828,-0.1517,-0.1459,-0.1629,0.0,0.0,0.0,0.0,0.0,0.0,0.0,0.0,0.0,0.0,0.0,0.0,0.0,0.0,0.0,0.0,0.0,0.0,0.0,0.0,0.0,0.0,0.0,0.0,0.0,0.0,0.0,0.0,0.0,0.0,0.0,0.0,0.0,0.0,0.0,0.0,0.0,0.0,0.0,0.0,0.0,0.0,0.0,0.0,0.0,0.0,0.0,0.0,0.0,0.0,0.0,0.0,0.0,0.0,0.0,0.0,0.0,0.0,0.0,0.0,0.0,0.0,0.0,0.0,0.0,0.0,0.0,0.0,0.0,0.0,0.0,0.0,0.0,0.0,0.0,0.0,0.0,0.0,0.0,0.0,0.0,0.0,0.0,0.0,0.0,0.0,0.0,0.0,0.0,0.0,0.0,0.0,0.0,0.0,0.0,0.0,0.0,0.0,0.0,0.0,0.0,0.0,0.0,0.0,0.0,0.0,0.0,0.0,0.0,0.0,0.0,0.0,0.0,0.0,-0.1636,0.0,0.0,0.0,0.0,0.0,0.0,0.0,0.0,0.0,0.0,0.0,0.0,0.0,0.0,0.0,0.0,0.0,0.0,0.0,0.0,0.0,0.0,0.0,0.0,0.0,0.0,0.0,0.0,0.0,0.0,0.0,0.0,0.0,0.0,0.0,0.0,0.0,0.0,0.0,0.0,0.0,0.0,0.0,0.0,0.0,0.0,0.0,0.0,0.0,0.0,0.0,0.0,0.0,0.0,0.0,0.0,0.0,0.0,0.0,0.0,0.0,0.0,0.0,0.0,0.0,0.0,0.0,0.0,0.0,0.0,0.0,0.0,0.0,0.0,0.0,0.0,0.0,0.0,0.0,0.0,0.0,0.0,0.0,0.0,0.0,0.0,0.0,0.0,0.0,0.0,0.0,0.0,0.0,0.0,0.0,0.0,0.0,0.0,0.0,0.0,0.0,0.0,0.0,0.0,0.0,0.0,0.0,0.0,0.0,0.0,0.0,0.0,0.0,0.0,0.0,0.0,0.0,0.0,0.0,0.0,0.0,0.0,0.0,0.0,0.0,0.0,0.0,0.0,0.0,0.0,0.0,0.0,0.0,0.0,0.0,0.0,0.0,0.0,0.0,0.0,0.0,0.0,0.0,0.0,0.0,0.0,0.0,0.0,0.0,0.0,0.0,0.0,0.0,0.0,0.0,0.0,0.0,0.0,0.0,0.0,0.0,0.0,0.0,0.0,0.0,0.0,0.0,0.0,0.0,0.0,0.0,0.0,0.0,0.0,0.0,0.0,0.0,0.0,0.0,0.0,0.0,0.0,0.0,0.0,0.0,0.0,0.0,0.0,0.0,0.0,0.0,0.0,0.0,0.0,0.0,0.0,0.0,0.0,0.0,0.0,0.0,0.0,0.0,0.0,0.0,0.0,0.0,0.0,0.0,0.0,0.0,0.0,0.0,0.0,0.0,0.0,0.0,0.0,0.0,0.0,0.0,0.0,0.0,0.0,0.0,0.0,0.0,0.0,0.0,0.0,0.0,0.0,0.0,0.0,0.0,0.0,0.0,0.0,0.0,0.0,0.0,0.0,0.0,0.0,0.0,0.0,0.0,0.0,0.0,0.0,0.0,0.0,0.0,0.0,0.0,0.0,0.0,0.0,0.0,0.0,0.0,0.0,0.0,0.0,0.0,0.0,0.0,0.0,0.0,0.0,0.0,0.0,0.0,0.0,0.0,0.0,0.0,0.0,0.0,0.0,0.0,0.0,0.0,0.0,0.0,0.0,0.0,0.0,0.0,0.0,0.0,0.0,0.0,0.0,0.0,0.0,0.0,0.0,0.0,0.0,0.0,0.0,0.0,0.0,0.0,0.0,0.0,0.0,0.0,0.0,0.0,0.0,0.0,0.0,0.0,0.0,0.0,0.0,0.0,0.0,0.0,0.0,0.0,0.0,0.0,0.0,0.0,0.0,0.0,0.0,0.0,0.0,0.0,0.0,0.0,0.0,0.0,0.0,0.0,0.0,0.0,0.0,0.0,0.0,0.0,0.0,0.0,0.0,0.0,0.0,0.0,0.0,0.0,0.0,0.0,0.0,0.0,0.0,0.0,0.0,0.0,0.0,0.0,0.0,0.0,0.0,0.0,0.0,0.0,0.0,0.0,0.0,0.0,0.0,0.0,0.0,0.0,0.0,0.0,0.0,0.0,0.0,0.0,0.0,0.0,0.0,0.0,0.0,0.0,0.0,0.0,0.0,0.0,0.0,0.0,0.0,0.0,0.0,0.0,0.0,0.0,0.0,0.0,0.0,0.0,0.0,0.0,0.0,0.0,0.0,0.0,0.0,0.0,0.0,0.0,0.0,0.0,0.0,0.0,0.0,0.0,0.0,0.0,0.0,0.0,0.0,0.0,0.0,0.0,0.0,0.0,0.0,0.0,0.0,0.0,0.0,0.0,0.0,0.0,0.0,0.0,0.0,0.0,0.0,0.0,0.0,0.0,0.0,0.0,0.0,0.0,0.0,0.0,0.0,0.0,0.0,0.0,0.0,0.0,0.0,0.0,0.0,0.0,0.0,0.0,0.0,0.0,0.0,0.0,0.0,0.0,0.0,0.0,0.0,0.0,0.0,0.0,0.0,0.0,0.0,0.0,0.0,0.0,0.0,0.0,0.0,0.0,0.0,0.0,0.0,0.0,0.0,0.0,0.0,0.0,0.0,0.0,0.0,0.0,0.0,0.0,0.0,0.0,0.0,0.0,0.0,0.0,0.0,0.0,0.0,0.0,0.0,0.0,0.0,0.0,0.0,0.0,0.0,0.0,0.0,0.0,0.0,0.0,0.0,0.0,0.0,0.0,0.0,0.0,0.0,0.0,0.0,0.0,0.0,0.0,0.0,0.0,0.0,0.0,0.0,0.0,0.0,0.0,0.0,0.0,0.0,0.0,0.0,0.0,0.0,0.0,0.0,0.0,0.0,0.0,0.0,0.0,0.0,0.0,0.0,0.0,0.0,0.0,0.0,0.0,0.0,0.0,0.0,0.0,0.0,0.0,0.0,0.0,0.0,0.0,0.0,0.0,0.0,0.0,0.0,0.0,0.0,0.0,0.0,0.0,0.0,0.0,0.0,0.0,0.0,0.0,0.0,0.0,0.0,0.0,0.0,0.0,0.0,0.0,0.0,0.0,0.0,0.0,0.0,0.0,0.0,0.0,0.0,0.0,0.0,0.0,0.0,0.0,0.0,0.0,0.0,0.0,0.0,0.0,0.0,0.0,0.0,0.0,0.0,0.0,0.0,0.0,0.0,0.0,0.0,0.0,0.0,0.0,0.0,0.0,0.0,0.0,0.0,0.0,0.0,0.0,0.0,0.0,0.0,0.0,0.0,0.0,0.0,0.0,0.0,0.0,0.0,0.0,0.0,0.0,0.0,0.0,0.0,0.0,0.0,0.0,0.0,0.0,0.0,0.0,0.0,0.0,0.0,0.0,0.0,0.0,0.0,0.0,0.0,0.0,0.0,0.0,0.0,0.0,0.0,0.0,0.0,0.0,0.0,0.0,0.0,0.0,0.0,0.0,0.0,0.0,0.0,0.0,0.0,0.0,0.0,0.0,0.0,0.0,0.0,0.0,0.0,0.0,0.0,0.0,0.0,0.0,0.0,0.0,0.0,0.0,0.0,0.0,0.0,0.0,0.0,0.0,0.0,0.0,0.0,0.0,0.0,0.0,0.0,0.0,0.0,0.0,0.0,0.0,0.0,0.0,0.0,0.0,0.0,0.0,0.0,0.0,0.0,0.0,0.0,0.0,0.0,0.0,0.0,0.0,0.0,0.0,0.0,0.0,0.0,0.0,0.0,0.0,0.0,0.0,0.0,0.0,0.0,0.0,0.0,0.0,0.0,0.0,0.0,0.0,0.0,0.0,0.0,0.0,0.0,0.0,0.0,0.0,0.0,0.0,0.0,0.0,0.0,0.0,0.0,0.0,0.0,0.0,0.0,0.0,0.0,0.0,0.0,0.0,0.0,0.0,0.0,0.0,0.0,0.0,0.0,0.0,0.0,0.0,0.0,0.0,0.0,0.0,0.0,0.0,0.0,0.0,0.0,0.0,0.0,0.0,0.0,0.0,0.0,0.0,0.0,0.0,0.0,0.0,0.0,0.0,0.0,0.0,0.0,0.0,0.0,0.0,0.0,0.0,0.0,0.0,0.0,0.0,0.0,0.0,0.0,0.0,0.0,0.0,0.0,0.0,0.0,0.0,0.0,0.0,0.0,0.0,0.0,0.0,0.0,0.0,0.0,0.0,0.0,0.0,0.0,0.0,0.0,0.0,0.0,0.0,0.0,0.0,0.0,0.0,0.0,0.0,0.0,0.0,0.0,0.0,0.0,0.0,0.0,0.0,0.0,0.0,0.0,0.0,0.0,0.0,0.0,0.0,0.0,0.0,0.0,0.0,0.0,0.0,0.0,0.0,0.0,0.0,0.0,0.0,0.0,0.0,0.0,0.0,0.0,0.0,0.0,0.0,0.0,0.0,0.0,0.0,0.0,0.0,0.0,0.0,0.0,0.0,0.0,0.0,0.0,0.0,0.0,0.0,0.0,0.0,0.0,0.0,0.0,0.0,0.0,0.0,0.0,0.0,0.0,0.0,0.0,0.0,0.0,0.0,0.0,0.0,0.0,0.0,0.0,0.0,0.0,0.0,0.0,0.0,0.0,0.0,0.0,0.0,0.0,0.0,0.0,0.0,0.0,0.0,0.0,0.0,0.0,0.0,0.0,0.0,0.0,0.0,0.0,0.0,0.0,0.0,0.0,0.0,0.0,0.0,0.0,0.0,0.0,0.0,0.0,0.0,0.0,0.0,0.0,0.0,0.0,0.0,0.0,0.0,0.0,0.0,0.0]}]]]